[[{"header":{"parameterUnit":"m.s-1","parameterCategory":1,"la1":30.6,"la2":28.766,"lo1":-90.7593,"lo2":-88.6598,"dx":0.0162,"dy":0.0183,"nx":116,"ny":114,"refTime":"2023-01-06T06:00:00:Z","depth":0,"parameterNumber":2,"parameterNumberName":"U-component_of_WINDS"},"data":[0.0,0.0,0.0,0.0,0.0,0.0,0.0,0.0,0.0,0.0,0.0,0.0,0.0,0.0,0.0,0.0,0.0,0.0,0.0,0.0,0.0,0.0,0.0,0.0,0.0,0.0,0.0,0.0,0.0,0.0,0.0,0.0,0.0,0.0,0.0,0.0,0.0,0.0,0.0,0.0,0.0,0.0,0.0,0.0,0.0,0.0,0.0,0.0,0.0,0.0,0.0,0.0,0.0,0.0,0.0,0.0,0.0,0.0,0.0,0.0,0.0,0.0,0.0,0.0,0.0,0.0,0.0,0.0,0.0,0.0,0.0,0.0,0.0,0.0,0.0,0.0,0.0,0.0,0.0,0.0,0.0,0.0,0.0,0.0,0.0,0.0,0.0,0.0,0.0,0.0,0.0,0.0,0.0,0.0,0.0,0.0,0.0,0.0,0.0,0.0,0.0,0.0,0.0,0.0,0.0,0.0,0.0,0.0,0.0,0.0,0.0,0.0,0.0,0.0,0.0,0.0,0.0,0.0,0.0,0.0,0.0,0.0,0.0,0.0,0.0,0.0,0.0,0.0,0.0,0.0,0.0,0.0,0.0,0.0,0.0,0.0,0.0,0.0,0.0,0.0,0.0,0.0,0.0,0.0,0.0,0.0,0.0,0.0,0.0,0.0,0.0,0.0,0.0,0.0,0.0,0.0,0.0,0.0,0.0,0.0,0.0,0.0,0.0,0.0,0.0,0.0,0.0,0.0,0.0,0.0,0.0,0.0,0.0,0.0,0.0,0.0,0.0,0.0,0.0,0.0,0.0,0.0,0.0,0.0,0.0,0.0,0.0,0.0,0.0,0.0,0.0,0.0,0.0,0.0,0.0,0.0,0.0,0.0,0.0,0.0,0.0,0.0,0.0,0.0,0.0,0.0,0.0,0.0,0.0,0.0,0.0,0.0,0.0,0.0,0.0,0.0,0.0,0.0,0.0,0.0,0.0,0.0,0.0,0.0,0.0,0.0,0.0,0.0,0.0,0.0,0.0,0.0,0.0,0.0,0.0,0.0,0.0,0.0,0.0,0.0,0.0,0.0,0.0,0.0,0.0,0.0,0.0,0.0,0.0,0.0,0.0,0.0,0.0,0.0,0.0,0.0,0.0,0.0,0.0,0.0,0.0,0.0,0.0,0.0,0.0,0.0,0.0,0.0,0.0,0.0,0.0,0.0,0.0,0.0,0.0,0.0,0.0,0.0,0.0,0.0,0.0,0.0,0.0,0.0,0.0,0.0,0.0,0.0,0.0,0.0,0.0,0.0,0.0,0.0,0.0,0.0,0.0,0.0,0.0,0.0,0.0,0.0,0.0,0.0,0.0,0.0,0.0,0.0,0.0,0.0,0.0,0.0,0.0,0.0,0.0,0.0,0.0,0.0,0.0,0.0,0.0,0.0,0.0,0.0,0.0,0.0,0.0,0.0,0.0,0.0,0.0,0.0,0.0,0.0,0.0,0.0,0.0,0.0,0.0,0.0,0.0,0.0,0.0,0.0,0.0,0.0,0.0,0.0,0.0,0.0,0.0,0.0,0.0,0.0,0.0,0.0,0.0,0.0,0.0,0.0,0.0,0.0,0.0,0.0,0.0,0.0,0.0,0.0,0.0,0.0,0.0,0.0,0.0,0.0,0.0,0.0,0.0,0.0,0.0,0.0,0.0,0.0,0.0,0.0,0.0,0.0,0.0,0.0,0.0,0.0,0.0,0.0,0.0,0.0,0.0,0.0,0.0,0.0,0.0,0.0,0.0,0.0,0.0,0.0,0.0,0.0,0.0,0.0,0.0,0.0,0.0,0.0,0.0,0.0,0.0,0.0,0.0,0.0,0.0,0.0,0.0,0.0,0.0,0.0,0.0,0.0,0.0,0.0,0.0,0.0,0.0,0.0,0.0,0.0,0.0,0.0,0.0,0.0,0.0,0.0,0.0,0.0,0.0,0.0,0.0,0.0,0.0,0.0,0.0,0.0,0.0,0.0,0.0,0.0,0.0,0.0,0.0,0.0,0.0,0.0,0.0,0.0,0.0,0.0,0.0,0.0,0.0,0.0,0.0,0.0,0.0,0.0,0.0,0.0,0.0,0.0,0.0,0.0,0.0,0.0,0.0,0.0,0.0,0.0,0.0,0.0,0.0,0.0,0.0,0.0,0.0,0.0,0.0,0.0,0.0,0.0,0.0,0.0,0.0,0.0,0.0,0.0,0.0,0.0,0.0,0.0,0.0,0.0,0.0,0.0,0.0,0.0,0.0,0.0,0.0,0.0,0.0,0.0,0.0,0.0,0.0,0.0,0.0,0.0,0.0,0.0,0.0,0.0,0.0,0.0,0.0,0.0,0.0,0.0,0.0,0.0,0.0,0.0,0.0,0.0,0.0,0.0,0.0,0.0,0.0,0.0,0.0,0.0,0.0,0.0,0.0,0.0,0.0,0.0,0.0,0.0,0.0,0.0,0.0,0.0,0.0,0.0,0.0,0.0,0.0,0.0,0.0,0.0,0.0,0.0,0.0,0.0,0.0,0.0,0.0,0.0,0.0,0.0,0.0,0.0,0.0,0.0,0.0,0.0,0.0,0.0,0.0,0.0,0.0,0.0,0.0,0.0,0.0,0.0,0.0,0.0,0.0,0.0,0.0,0.0,0.0,0.0,0.0,0.0,0.0,0.0,0.0,0.0,0.0,0.0,0.0,0.0,0.0,0.0,0.0,0.0,0.0,0.0,0.0,0.0,0.0,0.0,0.0,0.0,0.0,0.0,0.0,0.0,0.0,0.0,0.0,0.0,0.0,0.0,0.0,0.0,0.0,0.0,0.0,0.0,0.0,0.0,0.0,0.0,0.0,0.0,0.0,0.0,0.0,0.0,0.0,0.0,0.0,0.0,0.0,0.0,0.0,0.0,0.0,0.0,0.0,0.0,0.0,0.0,0.0,0.0,0.0,0.0,0.0,0.0,0.0,0.0,0.0,0.0,0.0,0.0,0.0,0.0,0.0,0.0,0.0,0.0,0.0,0.0,0.0,0.0,0.0,0.0,0.0,0.0,0.0,0.0,0.0,0.0,0.0,0.0,0.0,0.0,0.0,0.0,0.0,0.0,0.0,0.0,0.0,0.0,0.0,0.0,0.0,0.0,0.0,0.0,0.0,0.0,0.0,0.0,0.0,0.0,0.0,0.0,0.0,0.0,0.0,0.0,0.0,0.0,0.0,0.0,0.0,0.0,0.0,0.0,0.0,0.0,0.0,0.0,0.0,0.0,0.0,0.0,0.0,0.0,0.0,0.0,0.0,0.0,0.0,0.0,0.0,0.0,0.0,0.0,0.0,0.0,0.0,0.0,0.0,0.0,0.0,0.0,0.0,0.0,0.0,0.0,0.0,0.0,0.0,0.0,0.0,0.0,0.0,0.0,0.0,0.0,0.0,0.0,0.0,0.0,0.0,0.0,0.0,0.0,0.0,0.0,0.0,0.0,0.0,0.0,0.0,0.0,0.0,0.0,0.0,0.0,0.0,0.0,0.0,0.0,0.0,0.0,0.0,0.0,0.0,0.0,0.0,0.0,0.0,0.0,0.0,0.0,0.0,0.0,0.0,0.0,0.0,0.0,0.0,0.0,0.0,0.0,0.0,0.0,0.0,0.0,0.0,0.0,0.0,0.0,0.0,0.0,0.0,0.0,0.0,0.0,0.0,0.0,0.0,0.0,0.0,0.0,0.0,0.0,0.0,0.0,0.0,0.0,0.0,0.0,0.0,0.0,0.0,0.0,0.0,0.0,0.0,0.0,0.0,0.0,0.0,0.0,0.0,0.0,0.0,0.0,0.0,0.0,0.0,0.0,0.0,0.0,0.0,0.0,0.0,0.0,0.0,0.0,0.0,0.0,0.0,0.0,0.0,0.0,0.0,0.0,0.0,0.0,0.0,0.0,0.0,0.0,0.0,0.0,0.0,0.0,0.0,0.0,0.0,0.0,0.0,0.0,0.0,0.0,0.0,0.0,0.0,0.0,0.0,0.0,0.0,0.0,0.0,0.0,0.0,0.0,0.0,0.0,0.0,0.0,0.0,0.0,0.0,0.0,0.0,0.0,0.0,0.0,0.0,0.0,0.0,0.0,0.0,0.0,0.0,0.0,0.0,0.0,0.0,0.0,0.0,0.0,0.0,0.0,0.0,0.0,0.0,0.0,0.0,0.0,0.0,0.0,0.0,0.0,0.0,0.0,0.0,0.0,0.0,0.0,0.0,0.0,0.0,0.0,0.0,0.0,0.0,0.0,0.0,0.0,0.0,0.0,0.0,0.0,0.0,0.0,0.0,0.0,0.0,0.0,0.0,0.0,0.0,0.0,0.0,0.0,0.0,0.0,0.0,0.0,0.0,0.0,0.0,0.0,0.0,0.0,0.0,0.0,0.0,0.0,0.0,0.0,0.0,0.0,0.0,0.0,0.0,0.0,0.0,0.0,0.0,0.0,0.0,0.0,0.0,0.0,0.0,0.0,0.0,0.0,0.0,0.0,0.0,0.0,0.0,0.0,0.0,0.0,0.0,0.0,0.0,0.0,0.0,0.0,0.0,0.0,0.0,0.0,0.0,0.0,0.0,0.0,0.0,0.0,0.0,0.0,0.0,0.0,0.0,0.0,0.0,0.0,0.0,0.0,0.0,0.0,0.0,0.0,0.0,0.0,0.0,0.0,0.0,0.0,0.0,0.0,0.0,0.0,0.0,0.0,0.0,0.0,0.0,0.0,0.0,0.0,0.0,0.0,0.0,0.0,0.0,0.0,0.0,0.0,0.0,0.0,0.0,0.0,0.0,0.0,0.0,0.0,0.0,0.0,0.0,0.0,0.0,0.0,0.0,0.0,0.0,0.0,0.0,0.0,0.0,0.0,0.0,0.0,0.0,0.0,0.0,0.0,0.0,0.0,0.0,0.0,0.0,0.0,0.0,0.0,0.0,0.0,0.0,0.0,0.0,0.0,0.0,0.0,0.0,0.0,0.0,0.0,0.0,0.0,0.0,0.0,0.0,0.0,0.0,0.0,0.0,0.0,0.0,0.0,0.0,0.0,0.0,0.0,0.0,0.0,0.0,0.0,0.0,0.0,0.0,0.0,0.0,0.0,0.0,0.0,0.0,0.0,0.0,0.0,0.0,0.0,0.0,0.0,0.0,0.0,0.0,0.0,0.0,0.0,0.0,0.0,0.0,0.0,0.0,0.0,0.0,0.0,0.0,0.0,0.0,0.0,0.0,0.0,0.0,0.0,0.0,0.0,0.0,0.0,0.0,0.0,0.0,0.0,0.0,0.0,0.0,0.0,0.0,0.0,0.0,0.0,0.0,0.0,0.0,0.0,0.0,0.0,0.0,0.0,0.0,0.0,0.0,0.0,0.0,0.0,0.0,0.0,0.0,0.0,0.0,0.0,0.0,0.0,0.0,0.0,0.0,0.0,0.0,0.0,0.0,0.0,0.0,0.0,0.0,0.0,0.0,0.0,0.0,0.0,0.0,0.0,0.0,0.0,0.0,0.0,0.0,0.0,0.0,0.0,0.0,0.0,0.0,0.0,0.0,0.0,0.0,0.0,0.0,0.0,0.0,0.0,0.0,0.0,0.0,0.0,0.0,0.0,0.0,0.0,0.0,0.0,0.0,0.0,0.0,0.0,0.0,0.0,0.0,0.0,0.0,0.0,0.0,0.0,0.0,0.0,0.0,0.0,0.0,0.0,0.0,0.0,0.0,0.0,0.0,0.0,0.0,0.0,0.0,0.0,0.0,0.0,0.0,0.0,0.0,0.0,0.0,0.0,0.0,0.0,0.0,0.0,0.0,0.0,0.0,0.0,0.0,0.0,0.0,0.0,0.0,0.0,0.0,0.0,0.0,0.0,0.0,0.0,0.0,0.0,0.0,0.0,0.0,0.0,0.0,0.0,0.0,0.0,0.0,0.0,0.0,0.0,0.0,0.0,0.0,0.0,0.0,0.0,0.0,0.0,0.0,0.0,0.0,0.0,0.0,0.0,0.0,0.0,0.0,0.0,0.0,0.0,0.0,0.0,0.0,0.0,0.0,0.0,0.0,0.0,0.0,0.0,0.0,0.0,0.0,0.0,0.0,0.0,2.3708,2.2419,0.0,0.0,0.0,0.0,0.0,0.0,0.0,0.0,0.0,0.0,0.0,0.0,0.0,0.0,0.0,0.0,0.0,0.0,0.0,0.0,0.0,0.0,0.0,0.0,0.0,0.0,0.0,0.0,0.0,0.0,0.0,0.0,0.0,0.0,0.0,0.0,0.5609,0.5609,0.6493,0.7333,0.8155,0.8867,0.9276,0.9402,0.0,0.0,0.0,0.0,0.0,0.0,0.0,0.0,0.0,0.0,0.0,0.0,0.0,0.0,0.0,0.0,0.0,0.0,0.0,0.0,0.0,0.0,0.0,0.0,0.0,0.0,0.0,0.0,0.0,0.0,0.0,0.0,0.0,0.0,0.0,0.0,0.0,0.0,0.0,0.0,0.0,0.0,0.0,0.0,0.0,0.0,0.0,0.0,0.0,0.0,0.0,0.0,0.0,0.0,0.0,0.0,0.0,0.0,0.0,0.0,0.0,0.0,0.0,0.0,0.0,0.0,0.0,0.0,0.0,0.0,2.6124,2.5185,0.0,0.0,0.0,0.0,0.0,0.0,0.0,0.0,0.0,0.0,0.0,0.0,0.0,0.0,0.0,0.0,0.0,0.0,0.0,0.0,0.0,0.0,0.0,0.485,0.4995,0.528,0.5301,0.5178,0.0,0.0,0.0,0.0,0.0,0.0,0.4469,0.5132,0.5538,0.5651,0.6983,0.7976,0.8686,0.9763,1.0038,0.9671,0.9886,0.0,0.0,0.0,0.0,0.0,0.0,0.0,0.0,0.0,0.0,0.0,0.0,0.0,0.0,0.0,0.0,0.0,0.0,0.0,0.0,0.0,0.0,0.0,0.0,0.0,0.0,0.0,0.0,0.0,0.0,0.0,0.0,0.0,0.0,0.0,0.0,0.0,0.0,0.0,0.0,0.0,0.0,0.0,0.0,0.0,0.0,0.0,0.0,0.0,0.0,0.0,0.0,0.0,0.0,0.0,0.0,0.0,0.0,0.0,0.0,0.0,0.0,0.0,2.7083,2.7195,2.7195,2.7682,2.7895,2.7973,2.9379,2.8811,2.6909,2.7049,0.0,0.0,0.0,0.0,0.0,0.0,0.0,0.0,0.0,0.0,0.0,0.0,0.0,0.0,0.0,0.0,0.0,0.0,0.0,0.0,0.0,0.5052,0.5253,0.5293,0.5301,0.528,0.5239,0.0,0.0,0.0,0.0,0.505,0.4754,0.5457,0.6091,0.6614,0.79,0.8525,0.8532,0.9047,0.9803,1.0758,1.1807,1.1839,1.1115,0.0,0.0,0.0,0.0,0.0,0.0,0.0,0.0,0.0,0.0,0.0,0.0,0.0,0.0,0.0,0.0,0.0,0.0,0.0,0.0,0.0,0.0,0.0,0.0,0.0,0.0,0.0,0.0,0.0,0.0,0.0,0.0,0.0,0.0,0.0,0.0,0.0,0.0,0.0,0.0,0.0,1.9839,1.8971,0.0,0.0,0.0,0.0,0.0,0.0,0.0,0.0,0.0,0.0,0.0,0.0,0.0,2.3639,2.4986,2.4674,2.5153,2.6405,2.7734,2.8381,2.8454,3.0795,3.1862,3.1911,3.3295,0.0,2.7678,2.7034,0.0,0.0,0.0,0.0,0.0,0.0,0.0,0.0,0.0,0.0,0.0,0.0,0.0,0.0,0.0,0.0,0.0,0.0,0.0,0.0,0.0,0.5397,0.5806,0.5806,0.6075,0.6128,0.5833,0.5806,0.0,0.0,0.5226,0.5232,0.509,0.573,0.6593,0.7697,0.8412,0.9068,0.9687,1.0328,1.1079,1.1953,1.2944,1.289,1.2061,1.1564,0.0,0.0,0.0,0.0,0.0,0.0,0.0,0.0,0.0,0.0,0.0,0.0,0.0,0.0,0.0,0.0,0.0,0.0,0.0,0.0,0.0,0.0,0.0,0.0,0.0,0.0,0.0,0.0,0.0,0.0,0.0,0.0,0.0,0.0,0.0,0.0,0.0,0.0,0.0,1.8504,1.8838,1.7745,1.869,1.8992,0.0,0.0,0.0,0.0,0.0,0.0,0.0,0.0,0.0,2.2004,2.3417,2.4841,2.6274,2.6843,2.7811,2.9225,2.9916,3.0225,3.0283,3.146,3.2202,3.2639,3.3636,3.3151,3.1605,3.0808,2.9973,2.9136,0.0,0.0,0.0,0.0,2.7342,2.747,0.0,0.0,0.0,0.0,0.0,0.0,0.0,0.0,0.0,0.0,0.0,0.0,0.5155,0.5901,0.6335,0.6162,0.6519,0.6509,0.5953,0.5915,0.5733,0.532,0.5301,0.5301,0.5301,0.6115,0.7247,0.8737,0.9085,0.9794,1.0814,1.1413,1.2059,1.273,1.3319,1.3325,1.2819,1.2161,1.2145,1.2463,0.0,0.0,0.0,0.0,0.0,0.0,0.0,0.0,0.0,0.0,0.0,0.0,0.0,0.0,0.0,0.0,0.0,0.0,0.0,0.0,0.0,0.0,0.0,0.0,0.0,0.0,0.0,0.0,0.0,0.0,0.0,0.0,0.0,0.0,0.0,0.0,0.0,1.8052,1.8474,1.728,1.8581,1.9083,0.0,0.0,0.0,0.0,0.0,0.0,2.0423,2.1889,2.2906,2.3321,2.4655,2.6125,2.7712,2.8708,2.9986,3.1511,3.1511,3.1511,3.1511,3.1511,3.1796,3.2355,3.3037,3.3636,3.4047,3.3584,3.2747,3.1664,3.0741,3.0515,3.0619,3.0071,2.9865,2.9865,0.0,0.0,0.0,0.0,0.0,0.0,0.0,0.0,0.0,0.0,0.0,0.5772,0.6102,0.6627,0.6702,0.6068,0.6038,0.58,0.5192,0.5149,0.5204,0.5296,0.5301,0.5301,0.5301,0.6697,0.8147,0.9634,1.0224,1.0798,1.1366,1.14,1.189,1.2697,1.273,1.296,1.3268,1.3212,1.3395,1.3626,1.2824,0.0,0.0,0.0,0.0,0.0,0.0,0.0,0.0,0.0,0.0,0.0,0.0,0.0,0.0,0.0,0.0,0.0,0.0,0.0,0.0,0.0,0.0,0.0,0.0,0.0,0.0,0.0,0.0,0.0,0.0,0.0,0.0,0.0,0.0,0.0,0.0,0.0,0.0,1.9033,1.8926,0.0,0.0,0.0,0.0,1.851,1.9456,2.0002,2.0031,2.2489,2.3941,2.3931,2.5551,2.7241,2.8911,2.8967,2.9846,3.1511,3.1511,3.1511,3.1511,3.1511,3.1525,3.1611,3.2327,3.2683,3.2748,3.3225,3.3355,3.3152,3.1698,3.1142,3.1162,3.1118,3.1128,3.1128,0.0,0.0,0.0,0.4059,0.3819,0.3614,0.3405,0.3614,0.3811,0.3824,0.4847,0.5435,0.5083,0.6144,0.6591,0.5931,0.619,0.6145,0.5587,0.5354,0.5219,0.5172,0.4962,0.5434,0.6687,0.8161,0.9367,1.0278,1.0835,1.1316,1.1734,1.1734,1.1987,1.2468,1.3073,1.3602,1.4046,1.3853,1.4372,1.5253,1.4217,1.3883,0.0,0.0,0.0,0.0,0.0,0.0,0.0,0.0,0.0,0.0,0.0,0.0,0.0,0.0,0.0,0.0,0.0,0.0,0.0,0.0,0.0,0.0,0.0,0.0,0.0,0.0,0.0,0.0,0.0,0.0,0.0,0.0,0.0,0.0,0.0,0.0,0.0,1.878,1.9642,0.0,1.9119,1.9109,1.9302,1.9623,2.1178,2.2123,2.2123,2.4345,2.5619,2.5619,2.6197,2.7027,2.8136,2.8716,2.9582,3.0733,3.1248,3.1511,3.1511,3.1511,3.1753,3.2216,3.2492,3.3108,3.3901,3.4091,3.416,3.4126,3.3583,3.365,3.4021,3.4021,3.4021,3.4021,0.0,0.0,0.0,0.388,0.365,0.3452,0.3316,0.3533,0.3696,0.3674,0.4692,0.5283,0.491,0.5976,0.6451,0.5758,0.6025,0.5965,0.5365,0.5114,0.4954,0.487,0.5039,0.6113,0.8189,0.9206,1.0129,1.1028,1.1383,1.173,1.2029,1.2029,1.2136,1.2342,1.328,1.4101,1.4741,1.4831,1.5601,1.6643,1.5531,1.5055,1.4923,0.0,0.0,0.0,0.0,0.0,0.0,0.0,0.0,0.0,0.0,0.0,0.0,0.0,0.0,0.0,0.0,0.0,0.0,0.0,0.0,0.0,0.0,0.0,0.0,0.0,0.0,0.0,0.0,0.0,0.0,0.0,0.0,0.0,0.0,0.0,1.8895,1.9335,2.0302,2.0891,2.0722,2.0817,2.0997,2.1296,2.2901,2.3861,2.3861,2.5544,2.6499,2.6499,2.6499,2.7027,2.8119,2.8716,2.9566,3.0718,3.1248,3.1511,3.1511,3.1511,3.1768,3.2216,3.2216,3.285,3.3941,3.3941,3.4182,3.4628,3.4842,3.5191,3.56,3.56,3.56,3.56,0.0,0.0,0.3892,0.3559,0.3501,0.3452,0.3334,0.3527,0.3779,0.3994,0.4794,0.5447,0.5736,0.6266,0.6294,0.5516,0.547,0.5161,0.4443,0.4385,0.4393,0.4433,0.5624,0.7362,0.9646,0.9741,1.045,1.1899,1.1913,1.2042,1.2305,1.2305,1.2305,1.2342,1.3302,1.4296,1.5261,1.6227,1.7078,1.7713,1.6688,1.6513,1.6661,0.0,0.0,0.0,0.0,0.0,0.0,0.0,0.0,0.0,0.0,0.0,0.0,0.0,0.0,0.0,0.0,0.0,0.0,0.0,0.0,0.0,0.0,0.0,0.0,0.0,0.0,0.0,0.0,0.0,0.0,0.0,0.0,0.0,1.6614,1.8364,1.9906,2.0788,2.0841,2.1437,2.3045,2.2554,2.2495,2.3345,2.4384,2.4963,2.4963,2.5938,2.6499,2.6499,2.6499,2.728,2.8907,2.8971,2.9813,3.1438,3.1482,3.1511,3.1511,3.1511,3.1511,3.1511,3.1511,3.1924,3.2615,3.2629,3.3404,3.4664,3.5328,3.5588,3.56,3.56,3.56,3.56,0.4456,0.4181,0.3892,0.3559,0.3501,0.3516,0.358,0.3652,0.3928,0.4576,0.5491,0.5848,0.5216,0.6022,0.6058,0.468,0.4694,0.4631,0.4278,0.4071,0.4342,0.5157,0.7243,0.879,0.9687,1.0514,1.1249,1.1899,1.2096,1.2225,1.2305,1.2305,1.2305,1.2378,1.4045,1.4924,1.5313,1.6941,1.7733,1.7946,1.7893,1.7453,1.68,0.0,0.0,0.0,0.0,0.0,0.0,0.0,0.0,0.0,0.0,0.0,0.0,0.0,0.0,0.0,0.0,0.0,0.0,0.0,0.0,0.0,0.0,0.0,0.0,0.0,0.0,0.0,0.0,0.0,0.0,0.0,0.0,1.8577,1.8755,1.8832,1.9331,2.0542,2.0675,2.084,2.1308,2.1159,2.1129,2.1373,2.2954,2.3909,2.3909,2.5564,2.6499,2.6499,2.6499,2.6714,2.7179,2.8379,2.9239,2.969,3.0911,3.1511,3.1511,3.1511,3.1511,3.1511,3.1511,3.1924,3.2656,3.3116,3.384,3.4628,3.4795,3.5156,3.56,3.56,3.56,3.56,0.4429,0.4075,0.3727,0.3532,0.3618,0.3704,0.3707,0.3821,0.4194,0.4968,0.5574,0.5814,0.5481,0.6142,0.6057,0.47,0.4727,0.464,0.4145,0.4306,0.5234,0.7019,0.8479,0.9675,1.0597,1.1263,1.1757,1.2069,1.2225,1.2305,1.2305,1.2305,1.2305,1.2378,1.39,1.4816,1.5313,1.6967,1.7898,1.8259,1.8459,1.799,1.7132,1.7096,1.6912,1.6672,1.6433,1.6712,1.7093,1.6436,0.0,0.0,0.0,0.0,0.0,0.0,0.0,0.0,0.0,0.0,0.0,0.0,0.0,0.0,0.0,0.0,0.0,0.0,0.0,0.0,0.0,0.0,0.0,0.0,1.832,1.9394,1.9938,1.9691,1.9856,2.1045,2.1183,2.1355,2.1775,2.1813,2.1813,2.1813,2.325,2.4126,2.4126,2.5634,2.6499,2.6499,2.6499,2.685,2.7537,2.8508,2.9348,3.0071,3.1014,3.1511,3.1511,3.1511,3.1511,3.1511,3.1511,3.2076,3.3068,3.3443,3.4165,3.5028,0.0,0.0,0.0,0.0,3.56,3.56,0.4442,0.3969,0.3559,0.3559,0.38,0.3946,0.3803,0.4059,0.4563,0.5387,0.5502,0.5708,0.6281,0.6547,0.6285,0.5289,0.5293,0.5042,0.4325,0.5169,0.6775,0.9202,0.942,1.0248,1.1868,1.1899,1.2029,1.2305,1.2305,1.2305,1.2305,1.2305,1.2305,1.236,1.3393,1.4368,1.5294,1.6741,1.7834,1.8598,1.8656,1.829,1.7656,1.7129,1.6836,1.6664,1.6178,1.6608,1.7333,1.7216,0.0,0.0,0.0,0.0,0.0,0.0,0.0,0.0,0.0,0.0,0.0,0.0,0.0,0.0,0.0,0.0,0.0,0.0,0.0,0.0,0.0,0.0,0.0,0.0,1.8563,1.924,2.0429,2.0605,2.0915,2.1735,2.1849,2.2188,2.3102,2.3176,2.3176,2.3176,2.4199,2.4814,2.4814,0.0,0.0,0.0,0.0,2.7213,2.87,2.8907,2.9736,3.1219,3.1424,3.1511,3.1511,3.1511,3.1511,3.1511,3.1511,3.2241,3.3495,3.3572,3.4386,3.56,3.56,3.56,3.56,3.56,3.56,3.56,0.4728,0.4282,0.3905,0.3905,0.3951,0.4055,0.4238,0.4503,0.5156,0.6499,0.6666,0.6817,0.721,0.7198,0.6799,0.5908,0.5753,0.5764,0.5923,0.7318,0.8474,0.9269,1.0174,1.1059,1.1868,1.1899,1.2029,1.2305,1.2305,1.2305,1.2305,1.2305,1.2305,1.2378,1.4135,1.5013,1.5348,1.7435,1.8439,1.8637,1.9005,1.886,1.8358,1.7944,1.8173,1.8728,1.8628,1.9273,2.0074,1.9209,1.9171,1.9309,1.8217,1.7239,0.0,0.0,0.0,0.0,0.0,0.0,0.0,0.0,0.0,0.0,0.0,0.0,0.0,0.0,0.0,0.0,0.0,0.0,0.0,1.8075,1.927,2.0293,2.0566,2.0605,2.0683,2.0837,2.0857,2.0953,2.1146,2.1165,2.1165,2.1165,2.2787,2.38,2.38,2.5504,2.6499,2.6499,2.6499,2.6645,2.696,2.8314,2.916,2.9504,3.0851,0.0,3.1511,3.1511,3.1511,3.1511,3.1511,3.1978,3.2828,3.3378,3.4386,3.56,3.56,3.56,3.56,3.56,3.56,3.5701,0.5056,0.4589,0.4194,0.4194,0.4308,0.4442,0.4575,0.4849,0.5424,0.6463,0.6596,0.6722,0.7023,0.711,0.6775,0.5835,0.5843,0.6266,0.7104,0.8187,0.9259,1.0309,1.09,1.1476,1.2096,1.2109,1.2176,1.2305,1.2305,1.2305,1.2305,1.2305,1.2549,1.3043,1.4027,1.4977,1.6,1.7585,1.8514,1.9004,1.9434,1.9336,1.8888,1.8479,1.8559,1.8913,1.8708,1.9582,2.0719,2.0182,2.039,2.0667,1.9553,1.8797,1.8077,0.0,0.0,0.0,0.0,0.0,0.0,0.0,0.0,0.0,0.0,0.0,0.0,0.0,0.0,1.7118,0.0,0.0,1.9203,1.8736,1.9745,2.0605,2.0605,2.0605,2.0605,2.0605,2.0605,2.0684,2.0879,2.1429,2.172,2.1662,2.3769,2.4821,2.4299,2.5955,2.6776,2.6499,2.6499,2.6679,2.7095,2.8363,2.9223,2.9659,3.0911,3.1511,3.1511,3.1511,3.1511,3.1511,3.1511,3.2118,3.3169,3.419,3.5238,3.6197,3.6197,3.5949,3.5645,3.605,3.6197,3.6299,0.5419,0.5087,0.4746,0.4523,0.4648,0.48,0.48,0.509,0.5516,0.6115,0.6205,0.6321,0.665,0.6817,0.6578,0.5711,0.6146,0.6901,0.7927,0.8662,0.9729,1.1255,1.1326,1.1593,1.2211,1.2278,1.2397,1.2567,1.2567,1.2659,1.2861,1.2861,1.3266,1.3991,1.4189,1.5119,1.6664,1.7624,1.8543,1.9335,1.9746,1.9707,1.9355,1.8908,1.8617,1.8442,1.8108,1.8969,2.0274,2.0331,2.0884,2.1419,2.0546,2.0144,1.9462,1.7036,1.7068,0.0,0.0,0.0,0.0,0.0,0.0,0.0,0.0,0.0,1.6152,1.7423,1.8061,1.8214,1.7632,1.8978,1.9999,1.9386,2.0019,2.0605,2.0605,2.0683,2.0723,2.0723,2.0898,2.1213,2.161,2.2682,2.3306,2.3188,2.5314,2.6213,2.5367,2.6572,2.7085,2.6675,2.6549,2.6816,2.7454,2.8492,2.9348,3.0071,3.1014,3.1511,3.1511,3.1511,3.1511,3.1525,3.1796,3.2715,3.4097,3.5332,3.6299,3.7021,3.7021,3.6603,3.6118,3.6772,3.7021,3.7122,0.5835,0.6067,0.5949,0.4924,0.4774,0.48,0.48,0.509,0.5516,0.6115,0.6205,0.6388,0.6897,0.6774,0.65,0.6151,0.7349,0.82,0.8341,0.9346,1.0276,1.1009,1.1035,1.1333,1.1922,1.2189,1.2714,1.3553,1.3553,1.4009,1.4887,1.4887,1.4924,1.5066,1.5895,1.6385,1.6681,1.7968,1.8818,1.9335,1.9746,1.9864,1.9786,1.9375,1.875,1.8049,1.8027,1.8457,1.913,1.9372,1.9883,2.0402,2.0532,1.9853,1.8821,1.7748,1.65,1.5382,1.4847,1.5271,0.0,1.5578,1.6008,1.6637,0.0,0.0,1.7318,1.7857,1.8009,1.8031,1.7966,1.8742,1.9386,1.9296,2.0019,2.0605,2.0605,2.0918,2.1112,2.1112,2.2024,2.2817,2.3197,2.427,2.4937,2.4937,2.596,2.6542,2.6447,2.6984,2.7261,2.7211,2.6751,2.6551,2.6611,2.8201,2.905,2.916,3.0762,3.1511,3.1511,3.1511,3.1511,3.1583,3.281,3.4169,3.5523,3.6335,3.711,3.7787,3.7787,3.7719,3.764,3.7741,3.7787,3.7889,0.6244,0.6389,0.6348,0.5875,0.5792,0.5792,0.5792,0.5899,0.6089,0.6346,0.6376,0.6465,0.6685,0.6395,0.6213,0.6247,0.7824,0.8892,0.9082,1.0569,1.1722,1.2372,1.2173,1.2475,1.3386,1.2987,1.3362,1.4583,1.3991,1.4207,1.519,1.519,1.5491,1.6018,1.642,1.6906,1.7478,1.8265,1.8869,1.9297,1.9473,1.9551,1.9512,1.9044,1.8518,1.7932,1.7425,1.7725,0.0,1.8506,1.872,1.9035,1.964,1.9167,1.8113,1.6719,1.6384,1.6469,1.6591,1.644,0.0,0.0,1.7525,1.7932,1.8398,1.8514,1.8709,1.9374,1.9511,1.9511,1.9511,1.9804,2.0058,0.0,2.0351,2.0605,2.0605,2.0957,2.1308,2.1562,2.2818,2.3471,2.2979,2.4511,2.5509,2.545,2.7295,2.8166,2.7508,2.7952,2.7946,2.7311,2.7085,2.6826,2.6499,2.8152,2.9002,2.9018,3.0703,3.1511,3.1511,3.1511,3.172,3.2181,3.3594,3.4806,3.5792,3.6962,3.7855,3.8531,3.8531,3.8802,3.9119,3.87,3.8531,3.8633,0.6669,0.6752,0.6827,0.6827,0.6827,0.6752,0.6533,0.6503,0.6503,0.6503,0.6503,0.6503,0.6503,0.6236,0.6152,0.6334,0.7818,0.8992,0.958,1.0949,1.2153,1.3083,1.2712,1.2989,1.3999,1.344,1.3829,1.5222,1.4492,1.4665,1.5618,1.5618,1.5978,1.6642,1.6842,1.7216,1.7692,1.8388,1.872,1.8803,1.9206,1.9259,1.9081,1.909,1.8553,1.7681,1.6962,1.7076,1.7516,1.735,1.7244,1.7321,1.8009,1.7797,1.701,1.5639,1.5828,1.6623,1.7303,0.0,0.0,1.8479,1.8966,1.924,1.9589,1.9667,1.9843,2.0468,2.0605,2.0605,2.0605,2.0605,2.0605,2.0605,2.0605,2.0644,2.0762,2.1133,2.1562,2.2012,2.316,2.3571,2.274,2.4966,2.6505,2.6724,2.8651,2.9428,2.8624,2.8781,2.848,2.7562,2.7386,2.7157,2.6833,2.8266,2.9129,2.938,3.0998,3.178,3.178,3.1974,3.2421,3.3108,3.4178,3.515,3.608,3.7359,3.8316,3.898,3.9214,3.9626,4.0045,3.9491,3.9288,3.9389,0.7089,0.7395,0.7669,0.7669,0.7669,0.7407,0.6617,0.6503,0.6503,0.6503,0.6503,0.6503,0.6503,0.6488,0.648,0.6497,0.7316,0.8371,0.9622,0.9934,1.0792,1.236,1.1977,1.2081,1.2843,1.3091,1.3896,1.5292,1.5276,1.573,1.6666,1.6666,1.6682,1.6726,1.744,1.7382,1.6821,1.8288,1.8332,1.7589,1.9009,1.9167,1.8657,1.9889,1.9051,1.7164,1.6832,1.6583,1.6345,1.5697,1.5364,1.5228,1.5444,1.5498,1.54,1.4936,1.4525,1.4486,1.5791,0.0,1.7692,1.8963,1.9902,2.0527,2.0566,2.0566,2.0566,2.0605,2.0605,2.0605,2.0605,2.0605,2.0605,2.0605,2.0605,2.0742,2.1132,2.1582,2.2031,2.242,2.2871,2.3125,0.0,2.6065,2.8505,2.9599,2.976,2.9779,2.9754,2.9208,2.8656,2.8097,2.757,2.7428,2.7653,2.8556,2.9426,3.0269,3.1752,3.2482,3.2482,3.3155,3.3804,3.4436,3.448,3.5346,3.6716,3.7502,3.8249,3.8969,3.9745,4.0079,4.0113,4.0079,4.0079,4.0079,0.7503,0.7605,0.7705,0.7705,0.7705,0.7605,0.7329,0.7285,0.7285,0.7285,0.7285,0.0,0.0,0.0,0.0,0.0,0.7939,0.8788,0.9213,1.092,1.2166,1.2706,1.3092,1.3553,1.4105,1.3623,1.4144,1.5837,1.5211,1.5515,1.6707,1.6707,1.6971,1.743,1.7693,1.7918,1.8193,1.8686,1.8879,1.8876,1.9043,1.917,1.9169,1.8523,1.7847,1.7,0.0,1.4916,1.4845,1.4606,1.4497,1.4546,1.5194,1.4991,1.4504,1.4381,1.4863,1.5718,1.7008,1.8005,1.8905,1.9902,2.039,2.0605,2.0605,2.0605,2.0605,2.0605,2.0136,1.9745,1.9745,1.9745,1.9745,1.9745,2.0214,2.0742,2.1132,2.1602,2.2031,2.244,2.3517,0.0,0.0,0.0,0.0,2.7565,2.8973,2.9955,3.0306,3.0136,2.9785,2.9252,2.9051,2.8646,2.7989,2.9467,3.0338,3.0648,3.2347,3.3155,3.3185,3.3395,3.3878,3.4546,3.5029,3.6082,3.7498,3.8221,3.899,3.9714,3.9978,4.0113,4.0113,4.0113,4.0113,4.0113,0.7705,0.7705,0.7705,0.7705,0.7705,0.0,0.0,0.0,0.0,0.0,0.0,0.0,0.0,0.0,0.0,0.0,0.0,0.8732,0.9179,1.0658,1.1788,1.2406,1.2773,1.3237,1.3867,1.3268,1.3619,1.4964,1.45,1.4783,1.5771,1.5942,1.6336,1.6976,1.7495,1.7844,1.8094,1.8891,1.9088,1.8881,1.8908,1.8965,1.8897,1.8146,1.7316,0.0,1.5321,1.4371,1.3678,1.3678,1.3678,1.3776,1.4336,1.4322,1.4178,1.4674,1.5527,1.6637,1.8066,1.8867,1.9511,2.039,2.0605,2.0605,2.0605,2.0605,2.0605,2.0605,1.9902,1.9315,1.9315,1.9061,1.8846,1.8846,1.9315,1.998,2.0859,2.125,2.1738,2.2615,2.3737,2.4889,0.0,0.0,0.0,2.793,2.9453,3.0507,3.0884,3.0688,3.0337,2.9804,2.9603,2.9364,2.9072,3.0204,3.1244,3.2131,3.3284,3.3963,3.4203,3.4203,3.4442,3.4879,3.5353,3.6106,3.7025,3.7758,3.8553,3.9289,3.9571,3.985,4.0113,4.0113,4.0113,4.0113,0.7705,0.7705,0.7705,0.0,0.0,0.0,0.0,0.0,0.0,0.0,0.0,0.0,0.0,0.0,0.0,0.0,0.0,0.0,0.9426,0.9201,0.9755,1.141,1.1124,1.1317,1.2125,1.2164,1.2391,1.2864,1.3242,1.3639,1.4055,1.4492,1.4945,1.5471,1.6874,1.7159,1.6708,1.8828,1.8907,1.7711,1.8605,1.8547,1.7982,1.8598,1.7447,1.5577,1.6039,1.4781,1.2915,1.2915,1.2935,1.2961,1.304,1.3613,1.4484,1.5791,1.6484,1.7194,1.8848,1.9316,1.9569,2.0371,2.0605,2.0605,2.0605,2.0605,2.0586,2.0546,1.9843,1.9237,0.0,0.0,1.8047,1.8098,1.8142,1.8789,2.0468,2.0703,2.1329,0.0,0.0,0.0,0.0,0.0,0.0,3.0503,0.0,3.1406,3.1406,3.0934,3.0407,2.9854,2.9283,2.9585,3.0824,3.0925,3.2155,3.4548,3.4548,3.4877,3.5519,3.5519,3.5519,3.5519,3.5519,3.5506,3.5619,3.6291,3.7069,3.7879,3.8608,3.9368,4.0028,4.01,4.01,4.018,0.0,0.0,0.0,0.0,0.0,0.0,0.0,0.0,0.0,0.0,0.0,0.0,0.0,0.0,0.0,0.0,0.0,0.0,0.816,0.8978,0.9513,0.9658,1.0802,1.1358,1.1229,1.1573,1.1964,1.2391,1.2476,1.2761,1.3203,1.3333,1.4134,1.5495,1.5873,1.6675,1.7809,1.8375,1.8399,1.8068,1.8299,1.8285,1.7994,1.6846,1.6025,1.5355,1.4193,1.3403,1.2915,1.2915,1.3301,1.3971,1.4955,1.5625,1.6161,1.6871,1.7793,1.873,1.918,1.9765,2.0312,2.0527,2.0605,2.0605,2.0605,2.0605,2.0429,1.9765,1.8926,1.8296,0.0,0.0,0.0,1.9253,2.0216,0.0,2.1914,2.2264,0.0,2.3535,0.0,2.6977,2.7282,2.9616,0.0,0.0,3.1311,3.1406,3.1406,3.126,3.0959,3.0407,3.0236,3.0477,3.1082,3.25,3.3873,3.525,3.525,3.534,3.5519,3.5519,3.5519,3.5519,3.5519,3.5814,3.6322,3.6538,3.7069,3.7879,3.8608,3.9016,3.9289,3.9889,4.0438,4.0933,0.0,0.0,0.0,0.0,0.0,0.0,0.0,0.0,0.0,0.0,0.0,0.0,0.0,0.0,0.0,0.0,0.0,0.0,0.0,0.8367,0.8753,0.8739,0.9843,1.042,1.0332,1.0791,1.1369,1.2056,1.2002,1.2446,1.3333,1.3065,1.3667,1.4983,1.5089,1.5963,1.7395,1.7699,1.7978,0.0,0.0,1.7676,1.7273,1.6021,1.5219,1.4629,1.3655,1.3352,1.3516,1.4109,0.0,1.5137,1.6055,1.666,1.7168,1.7988,0.0,1.9393,1.9765,2.0233,2.0605,2.0605,2.0605,2.0507,2.0136,2.0019,1.9784,1.8906,1.8047,0.0,1.7333,1.7741,0.0,0.0,0.0,0.0,2.209,2.2441,2.3144,0.0,2.6395,0.0,2.8975,3.0723,3.1766,0.0,3.1763,3.1637,3.1411,3.1185,3.0909,3.0613,3.0382,3.0753,3.181,3.3705,3.4938,3.5519,3.5519,3.5519,3.5519,3.5519,3.5519,3.5519,3.5519,3.5911,3.66,3.66,3.7278,3.8288,3.8372,3.8804,3.9342,3.947,3.9993,4.0592,0.0,0.0,0.0,0.0,0.0,0.0,0.0,0.0,0.0,0.7868,0.7771,0.7705,0.0,0.0,0.0,0.0,0.0,0.0,0.0,0.0,0.7876,0.8289,0.875,0.9171,0.9504,1.002,1.0774,1.1677,1.1568,1.2201,1.3496,1.2967,1.3255,1.4182,1.4418,1.5118,1.6168,1.6865,1.7392,1.7711,1.7323,1.6773,1.6114,0.0,1.471,1.3813,1.3781,1.3957,1.4387,1.5737,1.6222,1.6378,1.6937,1.7405,1.7966,1.9139,1.9471,1.9647,2.0371,2.0605,2.0605,2.0605,2.0605,2.037,1.9511,1.9315,1.9023,1.803,0.0,1.6699,1.6692,1.7076,1.7471,1.7668,0.0,2.0077,2.1816,2.2236,2.3378,2.6067,2.7018,2.8318,3.047,3.1137,3.162,3.2056,3.2093,3.1863,3.1311,3.0859,3.0622,3.068,3.0335,3.1015,3.277,3.4606,3.5519,3.5519,3.5519,3.5519,3.5519,3.5519,3.5519,3.5519,3.5519,3.5878,3.6461,3.6461,3.728,3.853,3.8008,3.8584,3.9675,3.9139,3.9363,3.9954,0.0,0.0,0.0,0.0,0.0,0.0,0.0,0.0,0.0,0.0,0.8141,0.7705,0.0,0.0,0.0,0.0,0.0,0.0,0.0,0.0,0.0,0.781,0.8586,0.9034,0.9112,0.9892,1.0381,1.0577,1.0547,1.0861,1.1502,1.1405,1.2099,1.3478,1.3517,1.4141,1.5167,1.5752,1.5772,1.542,1.5754,1.5528,1.4925,1.434,0.0,0.0,1.3603,1.4037,1.4863,1.6157,1.6855,1.7438,1.8887,1.9396,1.959,2.0195,2.0371,2.041,2.0566,2.0605,2.0605,2.0605,2.0605,2.037,1.9511,1.9315,0.0,0.0,1.6804,1.6675,1.6559,1.7003,1.783,1.9172,1.9951,2.0957,2.2654,2.4076,2.5433,0.0,2.897,3.0636,3.1036,3.2125,0.0,0.0,3.1537,3.1311,3.0783,3.0638,3.0755,3.1097,3.1755,3.2629,3.3756,3.4905,3.5519,3.5519,3.5519,3.5519,3.5519,3.5519,3.5519,3.5519,3.5519,3.557,3.57,3.57,3.6179,3.6957,3.7452,3.8122,3.8905,3.9436,4.0097,4.0719,0.0,0.0,0.0,0.0,0.0,0.0,0.0,0.8719,0.877,0.8984,0.8644,0.8383,0.8383,0.8383,0.8383,0.0,0.0,0.0,0.0,0.0,0.0,0.8733,0.9103,0.9553,1.0088,1.0222,1.0703,1.1513,0.0,1.1068,1.183,1.154,1.1943,1.2889,1.2889,1.3481,1.4525,1.506,1.5266,1.533,1.5854,1.5522,1.4663,0.0,0.0,0.0,0.0,1.4361,1.5234,1.6094,1.7109,1.8244,1.9493,2.0078,2.0312,2.0527,2.0605,2.0605,2.0605,2.0605,2.0605,2.0605,2.0605,2.0234,1.8926,0.0,0.0,0.0,1.6005,1.6008,1.5954,1.7052,0.0,1.899,2.0678,2.2345,2.37,2.5317,0.0,2.8522,3.0183,3.1444,0.0,3.2446,3.229,3.1482,3.1135,3.0758,3.0206,3.0181,3.0515,3.1193,3.2092,3.3035,3.3979,3.5017,3.5519,3.5519,3.5519,3.5519,3.5519,3.5519,3.5699,3.6028,3.6028,3.6425,3.7105,3.7105,3.7548,3.8227,3.8148,3.8533,3.9104,3.9088,3.952,4.0138,0.0,0.0,0.0,0.0,0.0,0.0,0.0,0.9132,0.9191,0.9386,0.9405,0.9444,0.9551,0.9219,0.8995,0.0,0.0,0.0,0.0,0.0,0.0,0.0,0.0,0.0,0.0,0.0,0.0,0.0,1.1673,0.0,0.0,0.0,0.0,0.0,1.2766,1.3292,1.4132,1.4793,1.5172,0.0,0.0,1.5388,0.0,0.0,0.0,0.0,0.0,1.4693,1.5371,1.6011,1.7109,1.8344,1.922,1.9863,2.0312,2.0312,2.0312,2.0351,2.0546,2.0605,2.0605,2.0605,2.0605,2.0136,1.8398,1.7991,0.0,0.0,1.5396,1.5454,1.5613,0.0,1.8004,0.0,2.0487,2.2553,2.4236,2.5831,2.7671,0.0,3.0848,0.0,3.2653,3.229,0.0,3.126,3.0859,3.0382,2.9829,2.9991,3.0533,3.1462,3.2397,3.3433,3.4516,3.5324,3.5789,3.5908,3.5908,3.5908,3.5908,3.5908,3.6178,3.6686,3.6686,3.7311,3.8333,3.8333,3.8817,3.9424,3.8795,3.8962,3.9491,3.8848,3.896,3.9391,0.0,0.0,0.0,0.0,0.0,0.0,0.0,0.9543,0.9816,1.0615,1.0732,1.0889,1.1321,0.9951,0.8995,0.0,0.0,0.0,0.0,0.0,0.0,0.0,0.0,0.0,0.0,0.0,0.0,1.1782,0.0,0.0,0.0,0.0,0.0,0.0,0.0,1.3949,1.4166,1.5185,0.0,0.0,0.0,0.0,0.0,0.0,0.0,0.0,0.0,1.4799,1.5053,0.0,0.0,1.7019,1.7893,1.875,1.9413,1.9413,0.0,0.0,2.0371,2.0605,2.0605,2.0605,2.0605,2.0136,1.8398,0.0,1.7519,1.5747,1.5396,1.5599,1.6269,1.5997,0.0,0.0,1.8536,1.9627,2.3507,2.5121,2.6847,2.9376,0.0,0.0,3.1537,3.1507,3.126,3.0713,3.0613,3.0382,2.9829,3.0601,3.1499,3.2433,3.3394,3.4637,3.624,3.6354,3.6686,3.7225,3.7225,3.7225,3.7225,3.7225,3.7255,3.7315,3.7315,3.7379,3.7507,3.7507,3.7889,3.8516,3.8459,3.8845,3.9409,3.9338,3.9361,3.9391,0.0,0.0,0.0,0.0,0.0,0.0,0.9961,1.0225,1.0507,1.0849,1.1143,1.1389,1.1576,1.0988,1.0567,1.0567,0.0,0.0,0.0,0.0,0.0,0.0,0.0,0.0,0.0,0.0,1.3088,1.3136,1.3078,0.0,0.0,0.0,0.0,0.0,0.0,0.0,1.3493,1.4278,0.0,0.0,0.0,0.0,0.0,0.0,0.0,0.0,0.0,0.0,1.5234,0.0,0.0,0.0,1.6488,1.7035,0.0,0.0,1.9315,1.9491,2.0351,2.0605,2.0605,2.0605,2.0214,1.9511,1.8281,0.0,1.6879,1.5649,1.5396,1.5497,1.5787,1.6326,1.7041,1.7964,1.9454,2.121,2.3178,2.5054,2.6961,2.8949,2.993,0.0,0.0,0.0,3.0834,3.0613,3.0909,3.0984,3.0758,3.1105,3.2049,3.3615,3.344,3.4484,3.7028,3.645,3.6568,3.7387,3.7387,3.7387,3.7387,3.7387,3.7614,3.8003,3.8003,3.8242,3.8584,3.8584,3.8763,3.902,3.902,3.9152,3.9391,3.9391,3.9391,3.9391,0.0,0.0,0.0,0.0,0.0,0.9952,1.042,1.0723,1.0986,1.1259,1.1562,1.1839,1.1967,1.1987,1.1987,1.1987,1.1447,0.0,0.0,0.0,0.0,0.0,0.0,0.0,0.0,0.0,1.3985,1.4318,1.4135,1.3742,0.0,0.0,0.0,0.0,0.0,0.0,0.0,0.0,0.0,0.0,0.0,0.0,0.0,0.0,0.0,0.0,0.0,0.0,0.0,0.0,0.0,1.62,1.5591,1.5825,1.6625,1.8105,1.8711,1.912,1.998,2.039,2.0605,2.0605,1.9941,1.9062,0.0,0.0,1.6453,1.5571,1.557,1.5781,1.6011,1.6898,1.7743,1.8192,2.0089,2.1875,2.294,2.4632,2.6356,0.0,0.0,2.9321,3.0532,3.0783,3.0859,3.0859,3.1336,3.1637,3.1637,3.1808,3.2659,3.436,3.4219,3.5299,3.7686,3.6993,3.7099,3.7985,3.7985,3.7985,3.7985,3.7985,3.8242,3.8691,3.8691,3.8943,3.9391,3.9391,3.9391,3.9391,3.9391,3.9391,3.9391,3.9391,3.9391,3.9391,0.0,0.0,0.0,0.0,0.0,0.0,1.083,1.0908,1.122,1.2075,1.2203,1.2359,1.2844,1.2895,1.2895,1.2895,1.2085,0.0,0.0,0.0,0.0,0.0,0.0,0.0,0.0,0.0,1.4786,1.4786,1.5327,1.5275,1.4686,1.4686,1.472,1.4788,0.0,0.0,0.0,0.0,0.0,0.0,0.0,0.0,0.0,0.0,0.0,0.0,0.0,0.0,0.0,0.0,0.0,0.0,0.0,1.5396,1.5591,1.6473,1.7347,1.8203,1.908,1.9941,2.0605,2.0605,1.9941,1.9062,0.0,0.0,1.6453,1.5571,1.5968,1.6708,1.744,1.7592,1.8083,1.954,1.9678,2.0435,2.278,2.3637,2.4648,0.0,0.0,2.716,2.8781,3.0432,3.1386,3.1386,3.1888,3.2194,3.2194,3.2763,3.3493,3.4369,3.6306,3.7699,3.8362,3.8392,3.8703,3.9391,3.9391,3.9391,3.9391,3.9391,3.9391,3.9391,3.9391,3.9391,3.9391,3.9391,3.9391,3.9391,3.9391,3.9391,3.9391,3.9391,3.9391,3.9391,0.0,0.0,0.0,0.0,0.0,0.0,0.0,1.1415,1.1892,1.2153,1.2488,1.2734,1.2883,1.2915,1.2915,1.2915,1.2344,0.0,0.0,0.0,0.0,0.0,0.0,0.0,0.0,1.6276,1.6584,1.6584,1.7103,1.707,1.6467,1.6467,1.6056,1.5291,1.5452,0.0,0.0,0.0,0.0,0.0,0.0,0.0,0.0,0.0,0.0,0.0,0.0,0.0,0.0,0.0,0.0,0.0,0.0,0.0,0.0,1.5727,1.643,1.7308,1.8166,1.8613,1.8809,1.8809,1.8164,1.7444,1.7155,0.0,1.5727,1.5454,1.6003,1.6567,1.6807,1.7674,1.8646,1.9513,2.0362,2.1304,0.0,0.0,0.0,2.6834,2.8718,3.005,0.0,0.0,3.1964,3.1964,3.2491,3.2813,3.2813,3.3682,3.4307,3.46,3.5209,3.635,3.7955,3.8002,3.8451,3.9391,3.9391,3.9391,3.9391,3.9391,3.9391,3.9391,3.9391,3.9391,3.9391,3.9391,3.9391,3.9391,3.9391,3.9391,3.9391,3.9391,3.969,4.0079,0.0,0.0,0.0,0.0,0.0,0.0,0.0,1.1853,1.2262,1.2449,1.2727,1.2915,1.2915,1.2915,1.2915,1.2915,1.2637,0.0,0.0,0.0,0.0,0.0,0.0,0.0,1.6435,1.6824,1.7246,1.7713,1.8028,1.8001,1.7629,1.7629,1.7243,1.6515,1.6228,1.5934,0.0,0.0,0.0,0.0,0.0,0.0,1.5059,0.0,0.0,0.0,0.0,0.0,0.0,0.0,0.0,0.0,0.0,0.0,0.0,0.0,1.5786,1.6395,1.7269,1.7757,1.7991,1.7991,1.7347,1.6707,1.6707,1.6232,1.5744,1.5454,1.6419,1.7246,1.6975,1.8313,1.9575,1.9943,2.1028,2.2071,0.0,0.0,0.0,2.7394,0.0,0.0,0.0,3.1964,3.2541,3.2541,3.2667,3.2763,3.2763,3.3535,3.397,3.397,3.5224,3.6671,3.8397,3.8416,3.873,3.9391,3.9391,3.9391,3.9391,3.9391,3.9391,3.9391,3.9391,3.9391,0.0,3.9391,3.9391,3.9421,3.966,3.978,3.981,4.0068,4.0427,4.0756,0.0,0.0,0.0,0.0,0.0,0.0,0.0,1.2223,1.241,1.2844,1.2915,1.2915,1.2915,1.2935,1.2942,1.2942,0.0,0.0,0.0,0.0,0.0,0.0,0.0,0.0,1.6408,1.6537,1.7131,1.8254,1.8304,1.8318,1.8318,1.8318,1.8292,1.8219,1.7545,1.718,1.7019,0.0,0.0,0.0,1.5254,1.5396,0.0,0.0,0.0,0.0,0.0,0.0,0.0,0.0,0.0,0.0,0.0,0.0,0.0,0.0,0.0,0.0,0.0,1.721,1.7832,1.7832,1.721,1.6625,1.6672,1.6552,0.0,1.5686,1.7183,1.8434,1.7856,1.9353,2.0717,2.0792,2.1644,2.2709,0.0,2.5184,0.0,0.0,2.9779,0.0,3.0663,3.216,3.3065,3.2989,3.2491,3.2169,3.2164,3.2507,3.2732,3.281,3.5906,3.8084,3.9134,3.9265,3.9331,3.9331,3.9391,3.9391,3.9391,3.9391,3.9421,3.9481,3.9481,3.9511,3.9541,3.9541,3.9541,3.9601,4.0217,4.0457,4.0546,4.1164,4.1433,4.1463,0.0,0.0,0.0,0.0,0.0,0.0,0.0,0.0,0.0,0.0,1.2915,1.2915,1.2915,1.3164,1.3359,0.0,0.0,0.0,0.0,0.0,0.0,0.0,0.0,0.0,1.693,1.7897,1.8523,1.8807,1.9221,1.9434,1.9434,1.9434,1.9196,1.8795,1.8623,1.7939,1.6867,1.6638,0.0,0.0,1.5357,1.5396,0.0,0.0,0.0,0.0,1.5396,1.5396,0.0,0.0,0.0,0.0,0.0,0.0,0.0,0.0,1.5396,1.5435,1.5649,0.0,1.6,1.6,1.5864,1.5856,0.0,1.6087,1.5925,1.6884,1.7509,1.8116,1.8973,1.9987,2.0968,2.1794,2.2146,2.2985,2.4958,2.7645,0.0,3.0532,3.1738,3.2164,3.1286,3.2361,3.2738,3.1884,3.2064,3.2039,3.1612,3.166,3.2109,3.2935,3.4407,3.5684,3.6711,3.7991,3.8631,3.8631,3.9152,3.9391,3.9391,3.9391,3.966,4.0157,4.0157,4.0457,4.0924,4.0924,4.0924,4.0954,4.1104,4.1164,4.1194,4.1343,4.1703,4.2171,0.0,0.0,0.0,0.0,0.0,0.0,0.0,0.0,0.0,0.0,0.0,1.2915,1.2915,1.3262,0.0,0.0,0.0,0.0,0.0,0.0,0.0,0.0,0.0,1.6098,1.6937,1.7975,1.8454,1.8373,1.9339,1.9618,1.9306,1.9631,1.966,1.9346,1.8671,1.7524,1.6175,1.6175,1.5859,1.5396,1.5396,0.0,0.0,0.0,0.0,0.0,1.5396,1.5396,0.0,1.5396,1.5396,1.5396,0.0,0.0,0.0,0.0,1.5396,1.5396,1.5396,1.5396,1.5396,1.5396,1.5396,1.5497,1.5917,1.6212,1.6433,1.656,1.7895,1.9054,1.91,2.0055,2.117,2.2149,2.262,0.0,0.0,0.0,3.0111,3.0934,3.1587,3.1788,3.1457,3.1959,3.206,3.1457,3.1436,3.1461,3.1406,3.1572,3.2274,3.36,3.4566,3.5512,3.6392,3.7724,3.8542,3.8871,3.9212,3.9391,3.9421,3.972,4.0068,4.0427,4.0726,4.1074,4.1403,4.1403,4.1403,4.1433,4.1733,4.1852,4.1882,4.2162,4.2491,4.2791,0.0,0.0,0.0,0.0,0.0,0.0,0.0,0.0,0.0,0.0,0.0,0.0,0.0,0.0,0.0,0.0,0.0,0.0,0.0,0.0,0.0,0.0,1.526,1.5773,1.674,1.7479,1.7766,1.7605,1.8847,1.9124,1.8555,1.9175,1.9462,1.941,1.8165,1.6842,1.557,1.557,1.5497,1.5396,1.5396,0.0,0.0,0.0,0.0,0.0,0.0,0.0,0.0,1.5396,1.5396,1.5396,1.5396,0.0,0.0,0.0,0.0,0.0,1.5396,1.5493,1.5571,1.5435,1.5396,1.5425,1.5541,1.6609,1.7286,1.6257,1.8491,2.0286,1.91,2.0153,2.1454,0.0,0.0,0.0,2.7837,2.8831,2.9609,3.0487,3.0663,3.0884,3.1235,3.1411,3.1486,3.1432,3.106,3.1009,3.1361,3.1719,3.2535,3.3897,3.5077,3.6012,3.6763,3.7848,3.8691,3.9242,3.9361,3.9391,3.9421,4.0008,4.0307,4.0427,4.1104,4.1463,4.1553,4.1643,4.1703,4.1762,4.2301,4.2541,4.2601,4.31,4.329,4.329,0.0,0.0,0.0,0.0,0.0,0.0,0.0,0.0,0.0,0.0,0.0,0.0,0.0,0.0,0.0,0.0,0.0,0.0,0.0,0.0,0.0,1.5344,1.5936,1.6371,1.6546,1.7274,1.7625,1.7605,1.7838,1.7879,1.777,1.7893,1.7947,1.7934,1.7702,1.7121,1.6326,1.6326,1.5974,1.5396,1.5396,0.0,0.0,0.0,0.0,0.0,0.0,0.0,0.0,1.5396,1.5396,1.5396,1.5396,0.0,0.0,0.0,0.0,0.0,1.5396,1.5942,1.6317,1.5591,1.5396,1.5555,1.6183,1.6905,1.773,1.8741,1.9738,2.049,2.0612,2.1418,2.2214,0.0,0.0,2.7707,0.0,0.0,3.0909,3.0638,0.0,3.1135,3.0738,3.1541,3.1888,3.1411,3.1738,3.1788,3.1411,3.1473,3.161,3.1868,3.3657,3.4965,3.5643,3.7477,3.8452,3.8542,3.9122,3.9391,3.9391,3.9511,3.984,4.0427,4.1104,4.1703,4.2291,4.2821,4.301,4.304,4.313,4.316,4.316,4.326,4.329,4.329,0.0,0.0,0.0,0.0,0.0,0.0,0.0,0.0,0.0,0.0,0.0,0.0,0.0,0.0,0.0,0.0,0.0,0.0,0.0,0.0,1.5396,1.5396,1.5729,1.5917,1.5917,1.6638,1.68,1.6404,1.7205,1.7399,1.6996,1.7413,1.7385,1.6996,1.6996,1.6609,1.5917,1.5917,1.5715,1.5396,0.0,0.0,0.0,0.0,0.0,0.0,0.0,0.0,0.0,0.0,1.5396,1.5396,1.5396,0.0,0.0,0.0,0.0,0.0,1.5396,1.5688,1.6005,1.6083,1.6293,1.6578,1.6914,1.7503,1.8196,1.8924,2.0135,2.0951,2.0495,2.1323,2.2533,2.3844,0.0,2.7971,2.8781,2.9308,2.9754,0.0,3.0382,3.0678,3.1009,3.1486,3.1662,3.1432,3.1637,3.1788,3.1838,3.2383,3.312,3.3966,3.5441,3.6655,3.756,3.847,3.896,3.896,3.9242,3.9391,3.9421,3.978,4.0127,4.0427,4.1104,4.1762,4.241,4.269,4.301,4.329,4.329,4.329,4.329,4.329,4.329,4.329,0.0,0.0,0.0,0.0,0.0,0.0,0.0,0.0,0.0,0.0,0.0,0.0,0.0,0.0,0.0,0.0,0.0,0.0,0.0,1.5396,1.5396,1.5396,1.5396,1.5396,1.5396,1.596,1.5974,1.5396,1.6532,1.68,1.624,1.6814,1.6771,1.624,1.624,1.5925,1.5396,1.5396,1.5396,1.5396,0.0,0.0,0.0,0.0,0.0,0.0,0.0,0.0,0.0,0.0,0.0,0.0,0.0,0.0,0.0,1.5396,1.5396,1.5396,1.5396,1.5772,1.6237,1.6613,1.6894,1.7165,1.7461,1.8141,1.8725,1.8878,2.0496,2.1581,2.0583,2.1631,0.0,2.5357,2.6791,2.8047,2.9157,2.8932,2.9076,3.0055,3.0156,3.0532,3.1486,3.1587,3.1637,3.1808,3.1808,3.1984,3.239,3.3199,3.4196,3.5453,3.6749,3.7814,3.8657,3.9144,3.9391,3.9391,3.9391,3.9391,3.9421,3.993,4.0157,4.0217,4.0876,4.1553,4.2171,4.2351,4.278,4.329,4.329,4.329,4.329,4.329,4.329,4.3319,0.0,0.0,0.0,0.0,0.0,0.0,0.0,0.0,0.0,0.0,0.0,0.0,0.0,0.0,0.0,0.0,0.0,0.0,0.0,1.5396,1.5396,1.5396,1.5396,1.5396,1.5396,1.5454,1.5454,1.5396,1.5512,1.5541,1.5483,1.5541,1.5541,1.5483,1.5483,1.5454,1.5396,1.5396,1.5396,1.5396,1.5396,0.0,0.0,0.0,0.0,0.0,0.0,0.0,0.0,0.0,0.0,0.0,0.0,0.0,1.5396,1.5396,1.5396,1.5396,1.5396,1.685,1.8101,1.6971,1.6445,1.6496,1.7695,1.862,1.9356,1.9741,2.1216,2.231,2.1928,2.3543,2.5443,2.6916,2.808,2.9183,3.0312,0.0,3.0658,3.121,3.126,3.1512,3.2089,3.2144,3.2365,3.2939,3.2989,3.2989,3.304,3.3125,3.3189,3.33,3.5278,3.6369,3.6428,3.8405,3.9391,3.9391,3.9391,3.9391,3.9391,3.9451,3.9481,3.9511,4.0187,4.0846,4.1523,4.2141,4.278,4.329,4.329,4.329,4.329,4.329,4.329,4.3379,0.0,0.0,0.0,0.0,0.0,0.0,0.0,0.0,0.0,0.0,0.0,0.0,0.0,0.0,0.0,0.0,0.0,0.0,0.0,1.5396,1.5396,1.5396,1.5396,1.5396,1.5396,1.5396,1.5396,1.5396,1.5396,1.5396,1.5396,1.5396,1.5396,1.5396,1.5396,1.5396,1.5396,1.5396,1.5396,1.5396,1.5396,1.5396,0.0,0.0,0.0,0.0,0.0,0.0,0.0,0.0,1.5396,1.5396,1.5396,1.5396,1.5396,1.5396,1.5729,1.6064,1.5876,1.6931,1.8014,1.7603,1.7386,1.7539,1.8592,1.9679,2.0801,2.1911,2.2339,2.2655,2.3143,0.0,2.6449,2.7184,2.8807,3.0111,3.0538,3.0884,3.1311,3.1838,3.1913,3.2114,3.2692,3.2763,3.2842,3.309,3.309,3.309,3.309,3.3747,3.41,3.41,3.612,3.7195,3.7195,3.8657,3.9391,3.9391,3.9391,3.9391,3.9391,3.9391,3.9391,3.9421,3.966,4.0397,4.1433,4.1673,4.2372,4.329,4.329,4.3549,4.3938,4.3938,4.4177,4.4586,0.0,0.0,0.0,0.0,0.0,0.0,0.0,0.0,0.0,0.0,0.0,0.0,0.0,0.0,0.0,0.0,0.0,0.0,1.5381,1.5396,1.5396,1.5396,1.5396,1.5396,1.5396,1.5396,1.5396,1.5396,1.5396,1.5396,1.5396,1.5396,1.5396,1.5396,1.5396,1.5396,1.5396,1.5396,1.5396,1.5396,1.5396,1.5396,0.0,0.0,0.0,0.0,0.0,0.0,0.0,0.0,1.5396,1.5396,1.5396,1.5396,1.5396,1.5396,1.5773,1.6142,1.6103,1.6966,1.789,1.7994,1.8611,1.9329,1.9639,2.0269,2.1205,2.2694,2.3137,2.3552,2.4363,0.0,0.0,0.0,2.9653,3.0889,3.1065,3.1436,3.1863,3.2416,3.2491,3.2641,3.3065,3.309,3.309,3.309,3.309,3.309,3.309,3.4121,3.4718,3.4718,3.6738,3.7805,3.7805,3.887,3.9511,3.972,3.972,3.9601,3.9391,3.9391,3.9391,3.9391,3.9391,4.0038,4.1134,4.1523,4.2581,4.3938,4.3938,4.4207,4.4616,4.4616,4.4915,4.5334,0.0,0.0,0.0,0.0,0.0,0.0,0.0,0.0,1.0602,1.0602,1.0602,0.0,0.0,0.0,0.0,0.0,0.0,0.0,1.5337,1.5396,1.5396,1.5396,1.5396,1.5396,1.5396,1.5396,1.5396,1.5396,1.5396,1.5396,1.5396,1.5396,1.5396,1.5396,1.5396,1.5396,1.5396,1.5396,1.5396,1.5396,1.5396,1.5396,1.5396,0.0,0.0,0.0,0.0,0.0,0.0,0.0,1.5396,1.5396,1.541,1.541,1.5396,1.541,1.541,1.5508,1.5987,1.7027,1.802,1.8011,1.9968,2.165,2.0812,2.0273,2.0332,2.1662,2.3605,2.5161,2.5552,2.7913,0.0,2.9804,3.0708,3.1587,3.2139,3.2194,3.2441,3.304,3.309,3.309,3.309,3.309,3.309,3.309,3.309,3.309,3.309,3.4121,3.4697,3.4697,3.6719,3.7805,3.7805,3.89,3.975,4.0397,4.0397,4.0068,3.9421,3.9421,3.9421,3.9421,3.9421,3.981,4.0546,4.1901,4.3559,4.5304,4.5304,4.5304,4.5304,4.5304,4.5304,4.5394,0.0,0.0,0.0,0.0,0.0,0.0,0.0,0.0,1.0602,1.0602,1.0602,0.0,0.0,0.0,0.0,0.0,0.0,0.0,1.454,1.5089,1.5396,1.5396,1.5396,1.5396,1.5396,1.5396,1.5396,1.5396,1.5396,1.5396,1.5396,1.5396,1.5396,1.5396,1.5396,1.5396,1.5396,1.5396,1.5396,1.5396,1.5396,1.5396,1.5396,0.0,0.0,0.0,0.0,0.0,0.0,0.0,0.0,0.0,1.5997,1.583,1.5497,1.6011,1.6395,1.666,1.6546,1.7866,1.92,1.8962,1.9954,2.108,2.143,2.2446,2.3677,2.4878,2.6529,2.7666,2.7415,2.9318,0.0,3.0432,3.126,3.2014,3.219,3.2566,3.2914,3.309,3.309,3.309,3.309,3.309,3.309,3.309,3.309,3.309,3.309,3.3386,3.3756,3.4142,3.6225,3.7558,3.7937,3.9856,4.0905,4.1104,4.1104,4.1014,4.0816,4.1313,4.1523,4.1523,4.1964,4.2532,4.319,4.4077,4.4786,4.5304,4.5304,4.5603,4.6001,4.6001,4.6322,4.6741,0.0,0.0,0.0,0.0,0.0,0.0,1.0602,1.0602,1.0602,1.0602,1.0602,1.0602,0.0,0.0,0.0,1.1764,1.2687,1.3522,1.4168,1.4643,1.5074,1.5381,1.5396,1.5396,1.5396,1.5396,1.5396,1.5396,1.5396,1.5396,1.5396,1.5396,1.5396,1.5396,1.5396,1.5396,1.5396,1.5396,1.5396,1.5396,1.5396,1.5396,1.5396,0.0,0.0,0.0,0.0,0.0,0.0,0.0,0.0,0.0,1.5931,1.5773,1.5497,1.5925,1.6395,1.684,1.7144,1.8128,1.9245,1.9897,2.0449,2.1272,2.2911,2.3866,2.4618,2.5296,2.7069,2.8393,2.8071,3.0039,3.1612,3.1311,3.1989,3.2566,3.2566,3.2889,3.309,3.309,3.309,3.309,3.309,3.309,3.309,3.309,3.3316,3.3416,3.3416,3.4005,3.4736,3.5521,3.7243,3.8557,3.9327,4.0713,4.1654,4.2162,4.2162,4.2432,4.293,4.259,4.2511,4.2761,4.318,4.3848,4.4736,4.5125,4.5603,4.6082,4.6082,4.6352,4.6689,4.6689,4.6929,4.7309,0.0,0.0,0.0,0.0,0.0,0.0,1.0602,1.0602,1.0602,1.0602,1.0602,1.0602,0.0,0.0,0.0,1.164,1.1749,1.2427,1.3882,1.4124,1.4525,1.5264,1.5294,1.5264,1.5191,1.525,1.5294,1.5294,1.5366,1.5396,1.5396,1.5396,1.5396,1.5396,1.5396,1.5396,1.5396,1.5396,1.5396,1.5396,1.5396,1.5396,1.5396,1.5396,0.0,0.0,0.0,0.0,0.0,0.0,0.0,0.0,1.5483,1.5454,1.5425,1.557,1.592,1.6551,1.7759,1.8179,1.8771,2.0781,2.1346,2.2122,2.467,2.4567,2.3999,2.4254,2.6363,2.818,2.8267,3.0497,3.229,3.229,3.2742,3.309,3.309,3.309,3.309,3.309,3.309,3.3115,3.3165,3.3165,3.319,3.3241,3.3696,3.3972,3.3972,3.5456,3.6845,3.7972,3.913,4.0304,4.149,4.1615,4.2282,4.3469,4.3469,4.4147,4.5334,4.3559,4.309,4.3668,4.3718,4.4407,4.5484,4.5484,4.6202,4.7309,4.7309,4.7309,4.7309,4.7309,4.7309,4.7309,0.0,0.0,0.0,0.0,0.0,0.0,1.0602,1.0602,1.0602,1.0602,1.0602,1.0602,1.0602,1.0602,0.0,1.0839,1.1437,1.195,1.2289,1.3507,1.4288,1.4451,1.4466,1.4168,1.3539,1.4139,1.4466,1.4466,1.5084,1.5396,1.5396,1.5396,1.5396,1.5396,1.5396,1.5396,1.5396,1.5396,1.5396,1.5396,1.5396,1.5396,1.5396,1.5396,1.5396,0.0,0.0,0.0,0.0,0.0,0.0,0.0,1.6069,1.5874,1.5623,1.6786,1.7342,1.777,1.8629,1.9671,2.0723,2.1543,2.25,2.3406,2.4004,2.448,2.5502,2.7871,2.9228,3.0295,3.1107,3.2173,3.2914,3.2914,3.3014,3.309,3.309,3.309,3.309,3.309,3.309,3.3266,3.3671,3.3721,3.3897,3.4301,3.4452,3.4527,3.4527,3.5751,3.6777,3.7442,3.9465,4.1108,4.2328,4.3236,4.4077,4.4885,4.4885,4.5304,4.6061,4.5642,4.5822,4.642,4.6471,4.6621,4.686,4.686,4.704,4.7309,4.7309,4.7309,4.7309,4.7309,4.7309,4.7309,0.0,0.0,0.0,0.0,0.0,0.0,0.0,0.0,1.0747,1.0629,1.0602,1.0602,1.0602,1.0602,0.0,0.0,1.0982,1.1391,1.1764,1.2596,1.322,1.3614,1.3629,1.3433,1.3009,1.3795,1.4198,1.4198,1.5015,1.5396,1.5396,1.5396,1.5396,1.5396,1.5396,1.5396,1.5396,1.5396,1.5396,1.5396,1.5396,1.5396,1.5396,1.5396,1.5396,1.5396,1.5396,0.0,0.0,0.0,0.0,0.0,0.0,0.0,1.5555,1.6305,1.6941,1.7644,1.8863,2.0042,2.1172,2.2206,2.3144,2.3848,2.4043,2.5539,2.7369,2.9123,2.9794,3.0379,3.1517,3.2478,3.309,3.309,3.309,3.309,3.309,3.3316,3.347,3.347,3.3696,3.3972,3.4274,3.4276,3.4377,3.4678,3.4954,3.5082,3.5082,3.62,3.7202,3.8032,4.0128,4.1796,4.2969,4.4178,4.5125,4.5783,4.5783,4.6121,4.6779,4.6779,4.6958,4.7309,4.7309,4.7309,4.7309,4.7309,4.7309,4.7309,4.7309,4.7309,4.7309,4.7309,4.7309,4.7309,0.0,0.0,0.0,0.0,0.0,0.0,0.0,0.0,0.0,1.0626,1.0602,1.0602,1.0602,1.0602,1.0602,0.0,0.0,0.0,1.1546,1.1718,1.2089,1.2765,1.2795,1.2734,1.2596,1.3356,1.3777,1.3777,1.4599,1.5001,1.4982,1.5264,1.5323,1.5206,1.5337,1.5323,1.5206,1.5337,1.5323,1.5206,1.5337,1.5396,1.5396,1.5396,1.5396,1.5396,1.5396,1.5396,1.5396,1.5396,0.0,0.0,0.0,0.0,1.5425,1.5555,1.617,1.7217,1.8984,2.0298,2.147,2.2754,2.373,2.4403,2.4657,2.6887,2.906,2.9602,2.9897,3.035,3.1334,3.237,3.309,3.309,3.319,3.3241,3.3241,3.3696,3.4048,3.4048,3.4427,3.4753,3.4828,3.4853,3.4929,3.5104,3.5556,3.5834,3.5932,3.7001,3.82,3.9342,4.1092,4.2614,4.39,4.4942,4.5813,4.648,4.648,4.6749,4.7309,4.7309,4.7309,4.7309,4.7309,4.7309,4.7309,4.7309,4.7309,4.7309,4.7309,4.7309,4.7309,4.7309,4.7309,4.7309,0.0,0.0,0.0,0.0,0.0,0.0,0.0,0.0,0.0,0.0,1.0602,1.0602,1.0602,1.0602,1.0602,1.0602,1.0602,1.0649,1.076,0.0,0.0,1.195,1.195,1.1624,1.0949,1.1717,1.212,1.212,1.2916,1.3327,1.3358,1.4746,1.503,1.4392,1.5089,1.4996,1.4406,1.5103,1.4996,1.4421,1.5133,1.5396,1.5396,1.5396,1.5396,1.5396,1.5396,1.5396,1.5396,1.5396,1.5396,0.0,0.0,0.0,1.5526,1.6169,1.6814,1.773,1.9716,2.1784,2.3349,2.3162,2.4816,2.6408,2.6099,2.7757,2.9625,3.0731,3.1843,3.2655,3.2831,3.2982,3.309,3.309,3.347,3.3796,3.3796,3.4248,3.4603,3.4603,3.4653,3.4879,3.5332,3.5382,3.5807,3.6784,3.6935,3.7186,3.7663,3.8785,4.0027,4.1274,4.2552,4.403,4.5888,4.6066,4.648,4.7189,4.7189,4.7219,4.7309,4.7309,4.7309,4.7309,4.7309,4.7309,4.7309,4.7309,4.7309,4.7309,4.7309,4.7309,4.7309,4.7309,4.7309,4.7309,0.0,0.0,0.0,0.0,0.0,0.0,0.0,0.0,0.0,0.0,0.0,1.0602,1.0602,1.0602,1.0602,1.0602,1.0602,1.0602,1.0602,1.0919,1.1123,1.1123,1.1123,1.0951,1.0615,1.1391,1.1795,1.1795,1.2612,1.278,1.2351,1.3507,1.4109,1.4228,1.4569,1.4776,1.4864,1.4761,1.4776,1.4894,1.5264,1.5415,1.5447,1.5416,1.5419,1.5447,1.5412,1.5396,1.5396,1.5396,1.5396,1.5396,1.5396,0.0,0.0,0.0,1.6267,1.7244,1.9807,2.213,2.397,2.4721,2.6129,2.7416,2.7651,2.9353,3.097,3.1159,3.2462,3.3467,3.3165,3.3366,3.3567,3.3567,3.3997,3.4327,3.4327,3.4803,3.5132,3.5132,3.5454,3.5855,3.6408,3.6458,3.6784,3.7588,3.7638,3.7739,3.799,3.9493,4.0614,4.1157,4.3364,4.492,4.5801,4.6486,4.6988,4.7309,4.7309,4.7309,4.7309,4.7309,4.7309,4.7309,4.7309,4.7309,4.7309,4.7309,4.7309,4.7309,4.7309,4.7309,4.7309,4.7309,4.7309,4.7309,0.0,0.0,0.0,0.0,0.0,0.0,0.0,0.0,0.0,0.0,0.0,1.0602,1.0602,0.0,0.0,0.0,1.0602,1.0602,1.0602,1.0602,1.0602,1.0602,1.0602,1.0602,1.0602,1.1186,1.15,1.15,1.2104,1.2074,1.1515,1.232,1.3007,1.3597,1.3792,1.4228,1.4761,1.4377,1.4555,1.5108,1.5343,1.5457,1.5489,1.5427,1.5371,1.5323,1.5385,1.5308,1.5237,1.5362,1.5396,1.5396,1.5396,1.5396,0.0,0.0,0.0,1.7271,1.9846,2.2039,2.4016,2.5701,2.7059,2.8249,2.9217,3.1075,3.2482,3.2147,3.3276,3.4176,3.3771,3.3922,3.4098,3.4098,3.4552,3.4904,3.4904,3.5506,3.5882,3.5757,3.6358,3.6909,3.7185,3.7336,3.7613,3.8191,3.8216,3.8291,3.8417,4.0063,4.1152,4.1464,4.4031,4.5576,4.5869,4.6814,4.7309,4.7309,4.7309,4.7309,4.7309,4.7309,4.7309,4.7309,4.7309,4.7309,4.7309,4.7309,4.7309,4.7309,4.7309,4.7309,4.7309,4.7309,4.7309,4.7309,0.0,0.0,0.0,0.0,0.0,0.0,0.0,0.0,0.0,0.0,0.0,1.0602,1.0602,1.0602,1.0602,1.0602,1.0602,1.0602,1.0602,1.0602,1.0602,1.0602,1.0602,0.0,1.0602,1.0634,1.0649,1.0649,1.0697,1.0697,1.0681,1.1484,1.1873,1.195,1.2734,1.3085,1.3176,1.39,1.4228,1.4333,1.5163,1.5507,1.5509,1.549,1.5223,1.4904,1.5265,1.5113,1.4795,1.5252,1.5396,1.5396,1.5396,1.5396,1.5396,0.0,0.0,0.0,2.0045,2.1698,2.3461,2.5209,2.721,2.9203,3.0888,0.0,3.3934,3.4412,3.5009,3.5408,3.5382,3.4979,3.4653,3.4653,3.513,3.5458,3.5458,3.6409,3.6934,3.6406,3.7286,3.7739,3.7261,3.7663,3.8216,3.8818,3.8843,3.9095,3.9572,4.0842,4.2104,4.333,4.4697,4.5958,4.7201,4.7287,4.7309,4.7309,4.7309,4.7309,4.7309,4.7309,4.7309,4.7309,4.7309,4.7309,4.7309,4.7309,4.7309,4.7309,4.7309,4.7309,4.7309,4.7309,4.7309,4.7309,0.0,0.0,0.0,0.0,0.0,0.0,0.0,0.0,0.0,0.0,0.0,0.0,0.0,1.0602,1.0602,1.0602,1.0602,1.0602,1.0602,1.0602,1.0602,1.0602,1.0602,1.0602,1.0602,1.0602,1.0602,1.0602,1.0602,1.0602,1.0615,1.0888,1.1029,1.1092,1.2412,1.2993,1.3024,1.3312,1.3734,1.4228,1.4594,1.5058,1.5527,1.5174,1.5192,0.0,0.0,0.0,0.0,1.6447,1.6304,1.5796,1.5493,1.5396,1.5497,1.5974,1.6897,1.8115,1.9506,2.1061,2.2827,2.5066,2.7468,2.9777,3.1525,3.3211,3.4452,3.4653,3.5429,3.6081,3.6081,3.6182,3.6307,3.6307,3.6759,3.7087,3.7087,3.7462,3.7638,3.7437,3.7764,3.8065,3.8266,3.8467,3.8818,3.9371,3.9421,3.9496,3.9697,4.1665,4.3026,4.3504,4.5531,4.6866,4.7309,4.7309,4.7309,4.7309,4.7309,4.7309,4.7309,4.7309,4.7309,4.7309,4.7309,4.7309,4.7309,4.7309,4.7309,4.7309,4.7309,4.7309,4.7309,4.7309,4.7309,4.7309,0.0,0.0,0.0,0.0,0.0,0.0,0.0,0.0,1.0602,1.0602,0.0,0.0,0.0,0.0,1.0602,1.0602,1.0602,1.0602,1.0602,1.0602,1.0602,1.0602,1.0602,1.0602,1.0602,1.0602,1.0602,1.0602,1.0602,1.0602,1.0602,1.0602,1.0602,1.0649,1.1996,1.2612,1.2612,0.0,0.0,1.3859,0.0,1.5258,1.5774,0.0,0.0,0.0,0.0,0.0,0.0,0.0,0.0,1.7243,1.6504,1.5864,1.5541,1.6269,1.6963,1.7788,1.9223,2.0656,2.2341,2.4739,2.6957,2.9152,3.1422,3.3093,3.4324,3.4853,3.5881,3.6658,3.6658,3.7261,3.7713,3.7487,3.7764,3.8015,3.8015,3.8165,3.8216,3.804,3.8341,3.8642,3.8869,3.907,3.9321,3.9672,3.9697,0.0,3.9697,4.2133,4.3882,4.4771,4.641,4.7309,4.7309,4.7309,4.7309,4.7309,4.7309,4.7429,4.7638,4.7638,4.7758,4.7967,4.7967,4.7728,4.7309,4.7309,4.7309,4.7309,4.7309,4.7309,4.7309,4.7309,4.7309,4.7309,0.0,0.0,0.0,0.0,0.0,0.0,0.0,0.0,1.0613,1.06,0.0,0.0,0.0,0.0,0.0,1.0602,1.0602,1.0602,1.0602,1.0602,1.0602,1.0602,1.0602,1.0602,1.0602,1.0602,1.0602,1.0602,1.0602,1.0602,1.0602,1.0602,1.0602,1.0634,1.1422,1.1749,1.1811,0.0,1.2993,1.3224,0.0,1.6147,1.625,0.0,0.0,0.0,1.849,1.8355,0.0,2.0024,0.0,0.0,0.0,1.6781,1.5561,1.6283,1.6982,1.7842,0.0,0.0,0.0,2.4173,0.0,0.0,3.0577,0.0,3.3445,3.5082,3.6334,3.716,3.7185,3.8115,3.8693,3.809,3.804,3.8065,3.8065,3.8542,3.8718,3.8115,3.9019,3.9497,3.8969,3.9371,3.9697,3.9697,3.9697,3.9697,3.9697,4.2133,4.4651,4.7222,4.7309,4.7309,4.7309,4.7309,4.7309,4.7309,4.7339,4.7668,4.8319,4.8319,4.8678,4.9277,4.9277,4.8558,4.7369,4.7369,4.7369,4.7369,4.7339,4.7339,4.7339,4.7309,4.7309,4.7339,0.0,0.0,0.0,0.0,0.0,1.0813,1.0813,1.1015,1.1116,0.0,0.0,0.0,1.0613,1.0602,1.0602,1.0602,1.0602,1.0602,1.0602,1.0602,1.0602,1.0602,1.0602,1.0602,1.0602,1.0602,1.0602,1.0602,1.0602,1.0602,1.0602,1.0602,1.0602,1.0615,1.0839,1.0919,1.0982,1.1795,0.0,0.0,1.5418,1.6098,0.0,0.0,0.0,0.0,0.0,1.9812,2.0483,0.0,2.0625,1.9121,0.0,0.0,1.5984,1.6386,1.6269,1.6446,1.8408,0.0,0.0,0.0,0.0,0.0,0.0,0.0,3.1286,3.3345,3.4625,3.5655,3.6457,3.7512,3.8191,3.804,3.8693,3.922,3.922,3.9371,3.9421,3.9245,3.9496,3.9647,3.9471,3.9597,3.9697,0.0,3.9697,3.9697,3.9697,4.2133,4.4651,4.7222,4.7309,4.7309,4.7309,4.7309,4.7309,4.7309,4.7788,4.8117,4.8319,4.8798,4.9127,4.9277,4.9277,4.9097,4.8738,4.8738,4.8738,4.8708,4.8229,4.8027,4.7967,4.7489,4.7608,4.8027,0.0,0.0,1.0226,0.9463,1.0166,1.0856,1.0856,1.1166,1.1352,0.0,0.0,0.0,1.0801,1.0774,1.072,1.06,1.0602,1.0602,1.0602,1.0602,1.0602,1.0602,1.0602,1.0602,1.0602,1.0602,1.0602,1.0602,1.0602,1.0602,1.0602,1.0602,1.0602,1.0602,1.0602,1.098,1.1623,1.1748,0.0,0.0,1.5456,0.0,0.0,1.8444,1.9651,0.0,0.0,0.0,2.2708,2.3506,2.2129,0.0,0.0,0.0,0.0,1.6289,1.6116,1.614,1.744,1.8363,1.9361,0.0,0.0,0.0,0.0,0.0,0.0,0.0,3.465,3.568,3.6557,3.7436,3.8015,3.8015,3.8768,3.9371,3.9371,3.9546,3.9697,3.9697,3.9697,3.9697,3.9697,3.9697,3.9697,3.9697,4.0185,4.097,4.2035,4.3504,4.5207,4.7244,4.7309,4.7309,4.7309,4.7309,4.7429,4.7728,4.8087,4.8566,4.9105,4.9494,4.9823,5.0092,5.0092,5.0092,5.0092,5.0092,4.9786,4.9247,4.8858,4.8558,4.8259,4.7848,4.7967,4.8319,0.0,0.0,0.9705,0.9104,0.974,1.0341,1.0341,1.0997,1.1486,0.0,1.1415,1.1312,1.1062,1.1035,1.0945,1.0667,1.064,1.0626,1.06,1.0602,1.0602,1.0602,1.0602,1.0602,1.0602,1.0602,1.0602,1.0602,1.0602,1.0602,1.0602,1.0602,1.0602,1.0602,1.0697,1.153,1.2841,1.2351,0.0,1.296,1.5552,1.7732,0.0,0.0,2.1825,2.4396,2.4435,2.4567,2.484,2.584,2.4102,0.0,0.0,0.0,0.0,0.0,1.6397,1.6701,1.6551,1.7913,1.9529,0.0,0.0,0.0,0.0,0.0,0.0,0.0,3.4726,3.5678,3.6356,3.691,3.7287,3.7362,3.799,3.8592,3.8768,3.9271,3.9597,3.9597,3.9647,3.9697,3.9697,3.9697,3.9697,3.9697,4.0895,4.2714,4.5252,4.5389,4.5958,4.7266,4.7309,4.7309,4.7309,4.7369,4.7698,4.8319,4.8446,4.9105,5.0196,5.0278,5.0637,5.1206,5.1206,5.1206,5.1206,5.1206,5.0541,4.9486,4.9426,4.9037,4.8506,4.8438,4.8468,4.8506,0.9824,1.0429,1.0891,1.0337,1.1147,1.1876,1.1876,1.2022,1.2051,1.1828,1.157,1.1392,1.1326,1.1326,1.1206,1.0958,1.0932,1.0825,1.06,1.0602,1.0602,1.0602,1.0602,1.0602,1.0602,1.0602,1.0602,1.0602,1.0602,1.0602,1.0602,1.0602,1.0602,1.0618,1.1266,1.1748,1.212,1.3647,0.0,1.4951,1.6517,0.0,1.9869,2.1256,2.284,2.4372,2.4753,2.5585,2.6303,2.5195,2.4121,2.2871,0.0,0.0,0.0,0.0,0.0,0.0,0.0,0.0,0.0,0.0,0.0,0.0,0.0,2.5059,2.5937,0.0,2.9252,3.0156,3.1637,3.234,3.2817,3.3248,3.4929,3.6635,3.799,3.8693,3.907,3.907,3.9446,3.9697,3.9697,3.9697,3.9697,3.9697,4.0895,4.2714,4.5252,4.5389,4.5958,4.7266,4.7309,4.7309,4.7309,4.7848,4.8147,4.8319,4.9321,4.9979,5.0196,5.0757,5.1086,5.1206,5.1206,5.1206,5.1206,5.1206,5.1056,5.078,5.0219,4.9949,4.977,4.9277,4.9404,4.983,1.0547,1.0588,1.0657,1.07,1.0768,1.0963,1.1484,1.1539,1.1737,1.2286,1.2323,1.218,1.1873,1.1846,1.1673,1.1249,1.1192,1.1089,1.0827,1.0798,1.0747,1.0615,1.0602,1.0602,1.0602,1.0602,1.0602,1.0602,1.0602,1.0602,1.0602,1.0602,1.0602,1.0618,1.1014,1.176,1.2774,0.0,1.5559,1.7632,1.7494,0.0,2.0926,2.2047,2.3817,2.571,2.6175,2.6761,2.7207,2.6328,2.4926,0.0,0.0,2.1893,2.0781,0.0,1.8283,1.8313,0.0,0.0,0.0,1.9774,0.0,0.0,0.0,0.0,2.5778,2.7695,2.8549,2.9377,3.0758,3.121,3.1562,3.2093,3.3825,3.5104,3.5127,3.7311,3.8894,0.0,0.0,0.0,3.9271,3.9296,3.9677,4.0592,4.1838,4.3385,4.5298,4.5981,4.6638,4.7287,4.7309,4.7459,4.7788,4.8117,4.8626,4.9254,4.989,5.0398,5.0727,5.1056,5.1206,5.1206,5.1206,5.1206,5.1206,5.1206,5.1206,5.1176,5.0817,5.0495,5.0136,4.9883,4.992,5.0196,1.0806,1.021,0.9831,1.0423,1.0008,0.9868,1.0741,1.1053,1.1583,1.2741,1.2877,1.27,1.2199,1.1992,1.1658,1.1087,1.1316,1.1325,1.0907,1.1114,1.1079,1.0693,1.068,1.0653,1.0602,1.0602,1.0602,1.0602,1.0602,1.0602,1.0602,1.0602,1.0681,1.0839,1.107,1.215,0.0,0.0,0.0,1.9401,0.0,2.0087,2.2724,2.3092,2.502,2.7559,2.7936,2.7956,2.778,2.7624,2.5884,2.3968,2.482,2.3337,0.0,0.0,0.0,0.0,0.0,0.0,0.0,0.0,0.0,2.2246,0.0,0.0,0.0,0.0,0.0,0.0,0.0,0.0,0.0,0.0,0.0,0.0,0.0,0.0,0.0,0.0,0.0,0.0,3.8567,3.8843,3.9898,4.1993,4.2982,4.405,4.5343,4.6616,4.7309,4.7309,4.7429,4.7758,4.8267,4.8536,4.9172,5.0196,5.0338,5.0697,5.1206,5.1206,5.1206,5.1206,5.1206,5.1206,5.1206,5.1206,5.1206,5.1206,5.1206,5.0877,5.0398,5.0398,5.0398,5.0398,0.9037,0.8834,0.889,0.9389,1.0121,1.0752,1.1093,1.1954,1.2703,1.31,1.2308,1.1666,1.1607,1.0906,1.023,0.9767,0.0,0.0,1.0532,1.1524,1.1797,1.0998,1.0942,1.0838,1.0615,1.0602,1.0602,1.0602,1.0602,1.0602,1.0602,1.0602,1.0982,1.1715,1.2714,0.0,0.0,0.0,1.7578,0.0,2.0245,2.3052,0.0,2.5446,2.696,2.9305,2.9364,2.8894,2.8105,0.0,2.6621,2.5688,0.0,2.4391,2.5289,0.0,0.0,0.0,0.0,0.0,0.0,0.0,2.1648,0.0,0.0,0.0,0.0,0.0,0.0,0.0,0.0,0.0,0.0,0.0,0.0,0.0,0.0,0.0,0.0,0.0,0.0,0.0,0.0,3.8688,4.0805,4.3925,4.3686,4.398,4.5331,4.6616,4.7309,4.7309,4.7878,4.8207,4.8319,4.9411,5.0069,5.0196,5.0817,5.1116,5.1206,5.1206,5.1206,5.1206,5.1206,5.1206,5.1206,5.1206,5.1206,5.1206,5.1206,5.1146,5.1086,5.1086,5.1086,5.1086,0.9858,0.9909,0.9767,1.011,1.0045,1.0228,1.1082,1.236,1.3287,1.342,1.3192,1.2931,1.2746,0.0,0.0,0.0,0.0,1.2916,0.0,0.0,1.2438,1.156,1.1343,1.1102,1.0838,1.0825,1.076,1.0602,1.0602,1.0602,1.0602,1.1076,1.1484,1.187,1.3188,0.0,1.529,0.0,1.8456,0.0,0.0,0.0,0.0,2.6302,2.7266,2.9219,2.95,2.9364,2.9012,0.0,2.7383,0.0,0.0,0.0,0.0,0.0,0.0,0.0,0.0,0.0,0.0,0.0,0.0,0.0,2.3138,0.0,2.317,0.0,0.0,0.0,0.0,0.0,0.0,0.0,0.0,0.0,0.0,0.0,0.0,0.0,0.0,0.0,0.0,0.0,0.0,0.0,4.3806,4.4157,4.5872,4.6823,4.7309,4.7309,4.7938,4.8498,4.8887,4.977,5.0398,5.0787,5.1056,5.1206,5.1206,5.1206,5.1206,5.1206,5.1206,5.1206,5.1206,5.1206,5.1206,5.1206,5.1206,5.1206,5.1206,5.1206,5.1206,5.1206,1.0108,0.9875,0.9275,0.9522,0.9197,0.945,1.1086,1.271,1.374,1.374,1.3741,0.0,1.3415,1.2994,0.0,0.0,1.3713,1.3703,0.0,0.0,1.3293,1.2398,1.1899,0.0,1.1494,1.1236,1.0985,1.0707,1.093,1.0889,1.0618,1.176,1.229,1.2367,1.3866,1.5335,1.6697,0.0,1.9824,2.2577,2.4283,2.623,2.8077,2.7611,2.8179,2.9336,2.9794,2.9872,2.9735,2.95,2.8066,0.0,2.7962,0.0,0.0,0.0,0.0,0.0,2.2617,0.0,0.0,0.0,0.0,0.0,0.0,0.0,0.0,0.0,0.0,0.0,0.0,0.0,0.0,0.0,0.0,0.0,0.0,0.0,0.0,0.0,0.0,0.0,0.0,0.0,0.0,0.0,0.0,4.3992,4.6293,4.717,4.7578,4.7578,4.8207,4.8887,4.9546,5.0159,5.0727,5.1206,5.1206,5.1206,5.1206,5.1206,5.1206,5.1206,5.1206,5.1206,5.1206,5.1206,5.1206,5.1206,5.1206,5.1206,5.1206,5.1206,5.1206,5.1206,0.8691,0.7409,0.6209,0.6407,0.723,0.871,1.1289,1.3043,1.4068,1.4068,0.0,0.0,0.0,0.0,0.0,0.0,0.0,1.3023,1.3031,0.0,1.4509,1.3586,1.2726,1.243,0.0,1.185,1.1259,1.0998,1.1772,1.163,1.0647,1.2617,1.3536,1.3619,1.5222,1.7363,1.9811,2.0635,2.2155,2.4162,2.5716,2.69,2.7936,0.0,3.0498,3.0215,3.0684,0.0,0.0,2.9219,2.8613,0.0,0.0,0.0,0.0,0.0,0.0,0.0,0.0,0.0,0.0,2.4166,0.0,0.0,0.0,0.0,2.3979,0.0,0.0,0.0,0.0,0.0,0.0,0.0,0.0,0.0,0.0,0.0,0.0,0.0,0.0,0.0,0.0,0.0,0.0,0.0,0.0,0.0,4.6235,4.7583,4.8289,4.8289,4.8917,4.9576,5.0166,5.0847,5.1176,5.1206,5.1206,5.1206,5.1206,5.1206,5.1206,5.1206,5.1206,5.1206,5.1206,5.1206,5.1206,5.1206,5.1206,5.1206,5.1206,5.1206,5.1206,5.1206,0.7079,0.7174,0.7426,0.8152,0.9269,1.0704,1.2662,1.362,0.0,0.0,1.3134,0.0,0.0,1.2702,1.3301,0.0,0.0,1.5876,1.5473,1.571,0.0,0.0,0.0,1.322,0.0,1.2446,1.1864,1.1587,1.147,1.1486,1.1693,1.2981,1.39,1.4538,1.6598,1.7845,0.0,0.0,0.0,0.0,0.0,2.7428,2.9031,0.0,0.0,2.9492,3.0527,3.0801,0.0,3.0312,2.9551,2.875,2.9043,2.8262,2.7285,2.7559,2.7833,2.7797,0.0,0.0,2.8324,2.6772,0.0,0.0,0.0,0.0,0.0,0.0,0.0,0.0,0.0,0.0,0.0,0.0,0.0,0.0,0.0,0.0,0.0,0.0,0.0,0.0,0.0,0.0,0.0,0.0,0.0,0.0,0.0,4.8931,4.8947,4.8947,4.9553,4.9979,5.0196,5.0877,5.1206,5.1206,5.1206,5.1206,5.1206,5.1206,5.1206,5.1206,5.1206,5.1206,5.1206,5.1206,5.1206,5.1206,5.1206,5.1206,5.1206,5.1206,5.1206,5.1265,0.6368,0.6896,0.7666,0.8721,1.0372,1.1862,1.2921,0.0,0.0,0.0,1.3626,0.0,1.3813,0.0,1.5279,0.0,1.6838,1.7066,1.6717,1.6752,0.0,1.5641,1.4821,0.0,0.0,0.0,1.2799,1.2505,1.2452,1.2426,1.2486,1.4175,1.508,1.5426,1.7497,1.8816,1.9716,2.2291,2.3902,0.0,0.0,2.7891,0.0,0.0,2.9121,2.9316,0.0,3.1016,3.0898,3.0898,3.0332,2.9726,3.0273,2.9394,2.8281,2.9004,2.9178,2.9007,2.8542,2.9411,0.0,2.8338,2.8813,0.0,2.7069,0.0,0.0,0.0,0.0,0.0,0.0,0.0,0.0,0.0,0.0,0.0,0.0,0.0,0.0,0.0,0.0,0.0,0.0,0.0,0.0,0.0,0.0,0.0,0.0,0.0,4.9613,4.9613,5.0009,5.0315,5.0548,5.0996,5.1206,5.1206,5.1206,5.1206,5.1206,5.1206,5.1206,5.1206,5.1206,5.1206,5.1206,5.1206,5.1206,5.1206,5.1206,5.1355,5.1528,5.1295,5.1355,5.1648,0.6557,0.6685,0.7133,0.829,1.0477,1.2135,1.2212,0.0,1.3335,0.0,1.475,1.5045,1.6872,1.652,1.6638,1.7844,1.7181,1.6728,1.6826,1.7355,0.0,0.0,1.6208,1.6313,1.7233,0.0,0.0,0.0,1.4523,1.4268,1.3062,1.5969,1.6916,1.6251,1.7916,0.0,2.2994,2.3958,2.6348,2.9422,2.8594,2.8281,2.8301,2.8359,2.8914,2.9755,3.1016,3.123,3.0898,3.0898,3.0898,3.0898,3.0898,3.0586,3.0312,3.0762,3.0586,3.0176,2.9774,3.0053,3.021,2.9037,3.0215,0.0,0.0,0.0,2.9603,0.0,0.0,0.0,0.0,0.0,0.0,0.0,0.0,0.0,0.0,0.0,0.0,0.0,0.0,0.0,0.0,0.0,0.0,0.0,0.0,0.0,0.0,0.0,5.009,5.0226,5.0255,5.0578,5.1176,5.1206,5.1206,5.1206,5.1206,5.1206,5.1206,5.1206,5.1206,5.1206,5.1206,5.1206,5.1206,5.1206,5.1206,5.1236,5.1236,5.1678,5.2187,5.1535,5.1738,5.2396,0.7736,0.9407,1.1079,1.2361,1.2316,1.2496,0.0,0.0,0.0,0.0,1.4791,1.4809,1.5216,1.6355,1.7209,1.753,1.8589,0.0,0.0,0.0,0.0,1.8063,1.7448,1.7341,1.7782,1.5815,0.0,1.495,1.4321,1.4185,1.4489,1.5818,1.6665,1.7122,1.8506,1.9639,2.0658,2.2971,2.559,2.8151,2.7936,2.8034,2.8398,0.0,2.9676,2.9735,3.0703,3.0976,3.0898,3.0898,3.0898,3.0898,3.0898,3.082,3.0742,3.0859,3.1035,3.1094,3.0664,3.1142,3.1848,3.2201,3.2942,3.3579,0.0,0.0,0.0,0.0,0.0,0.0,0.0,0.0,0.0,0.0,0.0,0.0,0.0,0.0,0.0,0.0,0.0,0.0,0.0,0.0,0.0,0.0,0.0,0.0,0.0,0.0,0.0,5.0883,5.0936,5.1026,5.1206,5.1206,5.1206,5.1206,5.1206,5.1206,5.1206,5.1206,5.1206,5.1206,5.1206,5.1206,5.1206,5.1206,5.1475,5.1947,5.1947,5.2336,5.2929,5.2725,5.3114,5.3713,0.9041,0.0,0.0,1.3557,0.0,0.0,1.3919,1.4028,0.0,1.4716,1.5141,0.0,1.6414,1.775,1.8626,1.8626,1.9577,0.0,1.9441,0.0,0.0,1.8933,1.8664,1.8637,1.8783,1.7301,0.0,1.5778,0.0,1.5398,1.5278,1.6415,1.7295,1.7952,1.8887,1.9889,2.108,2.4356,2.6627,2.7995,2.8367,2.8777,0.0,2.9726,3.0137,3.0469,3.0781,3.0898,3.0898,3.0898,3.0898,3.0898,3.0898,3.0898,3.0898,3.0898,3.1055,3.123,3.1191,3.1523,3.2028,3.2557,3.3849,3.4944,3.4729,3.5648,3.6284,0.0,3.4776,3.4151,0.0,0.0,0.0,0.0,0.0,0.0,0.0,0.0,0.0,0.0,0.0,0.0,0.0,0.0,0.0,0.0,0.0,0.0,0.0,0.0,0.0,4.8252,4.8788,4.9434,5.0311,5.0054,5.0361,5.1206,5.1206,5.1206,5.1206,5.1206,5.1355,5.1648,5.1648,5.1798,5.2067,5.2067,5.2306,5.2665,5.2965,5.3294,5.3653,5.3977,5.4132,5.4251,0.0,0.0,0.0,0.0,0.0,0.0,0.0,1.3691,0.0,1.5196,0.0,1.7191,1.8882,1.9783,2.0264,2.0264,0.0,2.0134,1.9655,2.0067,2.0107,1.9589,1.9773,1.992,1.992,1.9011,0.0,0.0,0.0,1.7247,1.6083,1.7503,1.8361,1.8715,1.9238,0.0,0.0,2.6504,2.8086,2.8359,2.9246,2.9813,3.0098,2.9931,3.0527,3.1435,3.1094,3.0937,3.0898,3.0898,3.0898,3.0898,3.0898,3.0898,3.0898,3.0898,3.0898,3.0976,3.1328,3.1613,3.1831,3.2048,3.4195,3.5981,3.4883,3.6595,3.8165,3.7235,3.661,3.6034,0.0,0.0,0.0,0.0,0.0,0.0,0.0,0.0,0.0,0.0,0.0,0.0,0.0,0.0,0.0,0.0,0.0,0.0,0.0,0.0,0.0,4.5184,4.5931,4.721,4.9054,0.0,4.9215,5.0817,5.1176,5.1325,5.1325,5.1415,5.1798,5.2336,5.2336,5.2665,5.3198,5.3198,5.3258,5.3408,5.4072,5.4341,5.4401,5.497,5.482,5.4431,0.0,0.0,0.0,0.0,0.0,1.5948,1.5402,1.5074,1.568,1.7894,1.8564,1.9113,1.9874,2.0361,2.0601,2.0601,2.0815,0.0,0.0,0.0,0.0,2.0498,2.0525,2.0552,2.0552,1.9426,1.8961,0.0,0.0,1.8327,1.8399,1.8861,1.9102,1.9199,1.9999,0.0,2.4711,2.5742,0.0,2.8359,2.9246,2.9637,2.9813,3.0801,3.1328,3.1474,3.1426,3.1191,3.0898,3.0898,3.0898,3.0898,3.0898,3.0898,3.0898,3.0898,3.0898,3.0918,3.0976,3.215,3.3633,3.4954,3.6855,3.867,3.9709,4.0355,4.0675,4.0474,4.0374,3.9847,3.8441,0.0,0.0,0.0,0.0,0.0,0.0,0.0,0.0,0.0,0.0,0.0,0.0,0.0,0.0,0.0,0.0,0.0,0.0,0.0,0.0,0.0,4.7459,0.0,0.0,0.0,4.8952,4.8835,5.099,5.2037,5.2037,5.2606,5.2929,5.3019,5.3019,5.3109,5.3198,5.3198,5.3528,5.4102,5.476,5.5029,5.5029,5.5149,5.5119,5.5029,0.0,0.0,0.0,0.0,0.0,0.0,0.0,1.7145,1.7082,1.7824,1.8891,1.9693,1.9943,2.0548,2.0895,2.0895,2.1029,2.1109,2.1109,2.1109,2.1042,2.0909,2.0895,2.0828,2.0712,2.0267,1.9594,1.8712,0.0,1.9089,1.804,1.9108,1.9727,2.0058,2.2032,2.387,0.0,0.0,0.0,2.9687,3.0126,3.0556,3.0986,3.1367,3.166,3.1855,3.1855,3.1749,3.1514,3.1035,3.0898,3.0898,3.0898,3.0898,3.0898,3.0898,3.0898,3.0898,3.0898,3.2111,3.3564,3.4358,3.6359,3.8448,3.9493,4.0343,4.0976,4.1225,4.1528,4.1254,3.9622,3.6859,0.0,0.0,0.0,0.0,0.0,0.0,0.0,0.0,0.0,0.0,0.0,0.0,0.0,0.0,0.0,0.0,0.0,0.0,0.0,0.0,0.0,0.0,0.0,0.0,0.0,4.9316,5.128,5.2366,5.2749,5.3049,5.3408,5.3713,5.3713,5.3922,5.4246,5.4246,5.4431,5.476,5.5059,5.5179,5.5179,5.5179,5.5179,5.5179,0.0,1.6075,0.0,0.0,1.7171,1.7321,1.9185,1.9143,1.8623,1.787,1.912,2.008,2.008,2.0695,2.1109,2.1109,2.1109,2.1109,2.1109,2.1109,2.1109,2.1109,2.1109,2.1002,2.0806,2.1056,2.0352,0.0,0.0,0.0,1.8,1.9586,2.0781,2.1662,0.0,0.0,0.0,0.0,3.0341,3.1289,3.1191,3.1592,3.2179,3.1894,3.2012,3.2335,3.2335,3.2335,3.2218,3.1455,3.1201,3.1201,3.1201,3.1201,3.1152,3.1055,3.1094,3.1133,3.1055,3.2232,3.3604,3.3955,3.6014,3.8176,3.9107,4.0102,4.1028,4.1553,4.2032,4.1858,4.0174,3.8467,0.0,0.0,0.0,0.0,0.0,0.0,0.0,0.0,0.0,0.0,0.0,0.0,0.0,0.0,0.0,0.0,0.0,0.0,0.0,0.0,0.0,4.2578,4.4278,0.0,4.7472,4.9585,5.1496,5.2755,5.3408,5.3408,5.3773,5.4401,5.4102,5.4371,5.4999,5.5119,5.5179,5.5179,5.5179,5.5179,5.5179,5.5179,5.5179,5.5179,0.0,0.0,0.0,0.0,0.0,1.8907,1.9637,2.0372,2.0716,2.0403,2.0708,2.0989,2.0989,2.1056,2.1109,2.1109,2.1109,2.1109,2.1109,2.1109,2.1109,2.1109,2.1109,2.1096,2.1069,2.1395,2.1585,0.0,0.0,2.1465,2.084,2.1424,2.2775,2.4672,0.0,0.0,0.0,3.0215,3.1094,3.2578,3.2237,3.212,3.2237,3.2559,3.2695,3.2734,3.2734,3.2734,3.2656,3.2237,3.2081,3.2081,3.2081,3.2081,3.2003,3.1582,3.1738,3.2003,3.1562,3.3084,3.5206,3.678,3.8292,3.9961,4.2084,4.2304,4.2185,4.2738,4.2889,4.2411,4.0752,4.0275,3.9471,0.0,0.0,0.0,0.0,0.0,0.0,0.0,0.0,0.0,0.0,0.0,0.0,0.0,0.0,0.0,0.0,0.0,0.0,4.2307,0.0,4.1101,4.2002,4.5348,4.7157,4.753,5.1289,5.3443,5.4132,5.4132,5.4461,5.5029,5.3827,5.3653,5.4341,5.494,5.5179,5.5179,5.5179,5.5179,5.5179,5.5179,5.5179,5.5179,1.8303,1.8196,1.8357,1.933,0.0,1.9877,2.0494,2.0882,2.1069,2.0949,2.1042,2.1109,2.1109,2.1109,2.1109,2.1109,2.1109,2.1109,2.1109,2.1109,2.1109,2.1109,2.1109,2.1109,2.1109,2.1435,2.1393,0.0,0.0,0.0,2.1293,2.3261,2.5078,2.6705,2.8015,2.9434,3.0937,3.1504,3.2305,3.3105,3.2472,3.2667,3.3332,3.3203,3.3496,3.3945,3.3945,3.3945,3.3906,3.375,3.3184,3.257,3.257,3.2715,3.2891,3.2715,3.2793,3.2891,3.2684,3.4756,3.71,3.7784,3.9823,4.1879,4.2799,4.2838,4.2738,4.2964,4.3014,4.2813,4.2108,4.1178,4.045,4.0225,0.0,0.0,0.0,0.0,0.0,0.0,0.0,0.0,0.0,0.0,0.0,0.0,0.0,0.0,0.0,0.0,0.0,3.9797,0.0,4.1837,4.1459,4.473,4.6758,4.7533,5.0863,5.2836,5.3506,5.4408,5.473,5.4581,5.4042,5.3952,5.4251,5.491,5.5179,5.5179,5.5179,5.5179,5.5179,5.5179,5.5179,5.5179,1.921,1.9172,1.9359,2.029,2.0317,2.0424,2.1136,2.1243,2.1269,2.1349,2.1363,2.1309,2.1122,2.1109,2.1109,2.1109,2.1109,2.1109,2.1109,2.1109,2.1109,2.1109,2.1109,0.0,2.1109,2.1515,2.1376,2.0717,2.2867,0.0,2.2229,2.4861,2.7012,2.8699,3.0215,3.1172,3.1699,3.2598,3.3223,3.3555,3.3,3.3371,3.4219,3.3926,3.418,3.4707,3.4707,3.4707,3.4707,3.4707,3.4199,3.3535,3.3398,3.3555,3.3769,3.3652,3.3711,3.3769,3.3652,3.5811,3.8235,3.8752,4.0958,4.3144,4.383,4.3869,4.3743,4.3743,4.3589,4.3413,4.3237,4.2258,4.158,4.1884,0.0,0.0,0.0,0.0,0.0,0.0,0.0,0.0,0.0,0.0,0.0,0.0,0.0,0.0,0.0,0.0,0.0,0.0,0.0,0.0,0.0,4.4527,4.6656,4.7717,5.0154,5.1823,5.2728,5.4036,5.4251,5.3653,5.4042,5.4221,5.4251,5.491,5.5179,5.5179,5.5179,5.5179,5.5179,5.5179,5.5179,5.5179,2.0077,1.976,1.9762,2.0895,2.0584,2.0535,2.1448,2.1582,2.1689,2.1937,2.1977,2.175,2.1176,2.1109,2.1109,2.1109,2.1109,2.1109,2.1109,2.1109,2.1109,0.0,0.0,2.1109,2.1109,2.1683,2.1977,2.1964,0.0,0.0,2.4305,2.6121,2.8379,3.0859,3.0879,3.1816,3.3367,3.3386,3.3672,3.4095,3.4095,3.4297,3.4687,3.4687,3.4687,3.4707,3.4707,3.4707,3.4707,3.4707,3.5,3.5293,3.4824,3.4687,3.4609,3.4212,3.4355,3.459,3.4212,3.5961,3.8315,4.0018,4.17,4.3492,4.5764,4.5849,4.5447,4.5447,4.4995,4.4414,4.389,4.3765,4.3237,4.1578,0.0,0.0,0.0,0.0,0.0,0.0,3.8994,3.8417,3.9546,0.0,0.0,0.0,0.0,0.0,0.0,0.0,0.0,4.0399,4.1026,0.0,4.1302,4.4863,4.7052,4.7717,4.909,5.053,5.2038,5.2852,5.2869,5.2306,5.3623,5.4221,5.4251,5.491,5.5179,5.5179,5.5179,5.5179,5.5179,5.5179,5.5179,5.5179,2.1349,2.1283,2.1301,2.1643,2.155,2.1523,2.1836,2.1877,2.1917,2.1977,2.1991,2.1943,2.1724,2.171,2.163,0.0,2.1448,2.1323,0.0,2.1109,2.1203,2.1435,2.1448,2.1542,2.1697,2.2084,2.2285,2.2285,0.0,0.0,2.7439,2.8027,2.985,3.2617,3.2617,3.3086,3.3867,3.3867,3.4121,3.4492,3.4492,3.4766,3.5176,3.5176,3.5351,3.5605,3.5605,3.5605,3.5605,3.5605,3.5703,3.5801,3.5644,3.5605,3.5566,3.5449,3.5488,3.5835,3.6864,3.8645,4.0551,4.2263,4.3955,4.5418,4.613,4.6175,4.605,4.605,4.5598,4.5045,4.4439,4.4066,4.3514,4.261,4.276,0.0,4.2509,0.0,0.0,0.0,3.7313,3.6886,0.0,3.6535,0.0,0.0,0.0,0.0,0.0,0.0,0.0,0.0,4.1555,0.0,4.1934,4.4551,4.6181,4.6772,4.8184,4.9996,5.2012,5.2278,5.2578,5.2905,5.3832,5.4221,5.4251,5.491,5.5179,5.5179,5.5179,5.5179,5.5179,5.5179,5.5179,5.5179,2.1984,2.1991,2.1991,2.1991,2.1991,2.2017,2.2124,2.2151,2.2191,2.2331,2.2345,2.2345,2.2345,2.2345,2.2184,2.1783,2.1743,2.1676,2.1443,2.1443,2.1523,2.1743,2.1743,2.1836,2.201,2.2271,0.0,2.2385,2.4363,2.6872,2.9843,3.0517,3.1948,3.3906,3.3906,3.4043,3.4349,3.4349,3.4551,3.4961,3.4961,3.5234,3.5625,3.5625,3.5801,3.5982,3.5982,3.5982,3.5982,3.5982,3.5982,3.5982,3.5982,3.5982,3.5982,3.5982,3.5982,3.6253,3.7341,3.8894,4.0634,4.2328,4.4065,4.5495,4.615,4.6301,4.6301,4.6301,4.6024,4.5547,4.474,4.4313,4.394,4.3391,4.3288,4.3165,4.2763,0.0,0.0,0.0,0.0,0.0,0.0,3.8116,3.8065,0.0,0.0,0.0,0.0,0.0,0.0,4.0174,4.2735,0.0,4.3441,4.4823,4.5773,4.6331,4.8119,4.9416,5.0369,5.1779,5.2553,5.2816,5.3789,5.4341,5.461,5.5029,5.5179,5.5179,5.5179,5.5179,5.5179,5.5179,5.5179,5.5179,2.2044,2.2044,2.2044,2.2044,2.2044,2.2138,2.2405,2.2411,2.2552,2.2853,2.2893,2.2893,2.2893,2.2893,2.2679,2.2098,2.2031,2.2004,2.1991,2.1991,2.2024,2.2017,2.2031,2.2058,2.2084,2.2365,2.2512,2.2512,2.6262,2.9173,3.1307,3.3112,3.4219,3.4707,3.4707,3.4726,3.4746,3.4746,3.5019,3.543,3.543,3.5664,3.5982,3.5982,3.5982,3.5982,3.5982,3.5982,3.5982,3.5982,3.5982,3.5982,3.5982,3.5982,3.5982,3.5982,3.5982,3.6016,3.6152,3.7341,3.9059,4.0924,4.2643,4.4312,4.5914,4.6301,4.6301,4.6301,4.6301,4.5999,4.4916,4.469,4.4489,4.3991,4.379,4.3338,4.2336,4.2112,4.1431,0.0,0.0,0.0,0.0,4.0901,4.1254,0.0,0.0,0.0,0.0,0.0,3.9998,4.374,4.4364,4.4945,4.5472,4.5497,4.5723,4.6205,4.8329,4.8677,4.7583,5.1196,5.2461,5.1908,5.3466,5.446,5.5053,5.5154,5.5179,5.5179,5.5179,5.5179,5.5179,5.5179,5.5179,5.5179,2.2639,2.2693,2.2693,2.2693,2.2693,2.2719,2.2786,2.2786,2.2813,2.2893,2.2893,2.2893,2.2893,2.2893,2.284,2.2706,2.2445,2.2218,2.2004,2.1991,2.2084,2.2311,2.2572,2.2766,2.3006,2.33,2.3482,2.3482,2.582,2.7931,2.975,3.1668,3.3322,3.4707,3.4707,3.4902,3.5234,3.5234,3.5488,3.5879,3.5879,3.5937,3.5982,3.5982,3.5982,3.5982,3.5982,3.5982,3.5982,3.5982,3.5982,3.5982,3.5982,3.5982,3.5982,3.5982,3.5982,3.6287,3.7608,3.8287,3.9354,4.2359,4.4405,4.5793,4.621,4.6301,4.6301,4.6301,4.6301,4.6225,4.5974,4.5573,4.5246,4.5121,4.3693,4.2487,4.2238,4.1105,4.0124,0.0,3.9572,4.0175,4.1833,4.1858,4.1959,0.0,0.0,0.0,0.0,4.1708,4.221,4.4338,4.497,4.5347,4.5497,4.5497,4.5321,4.502,4.5569,4.6184,4.6947,4.8351,4.9446,5.0342,5.2426,5.3373,5.3597,5.4743,5.5179,5.5179,5.5179,5.5179,5.5179,5.5179,5.5179,5.5179,2.2867,2.2893,2.2893,2.2893,2.2893,2.2893,2.2893,2.2893,2.2893,2.2893,2.2893,2.2893,2.2893,2.2893,2.296,2.306,2.2792,2.2619,2.2605,2.2592,2.2726,2.302,2.3228,2.3388,2.3527,2.3723,2.4216,2.5059,2.7808,2.9696,3.0822,3.2741,3.4232,3.5293,3.5293,3.5449,3.5684,3.5684,3.5801,3.5982,3.5982,3.5982,3.5982,3.5982,3.5982,3.5982,3.5982,3.5982,3.5982,3.5982,3.5982,3.5982,3.5982,3.5982,3.5982,3.5982,3.5982,3.6219,3.7159,3.7408,3.8254,4.1693,4.4436,4.6301,4.6301,4.6301,4.6301,4.6301,4.6301,4.6225,4.5974,4.5698,4.5397,4.5121,4.3693,4.2462,4.2238,4.0979,4.035,4.1103,4.1004,4.1607,4.3517,4.3467,4.3316,4.3316,4.3567,0.0,4.3718,4.3944,4.4342,4.4995,4.5321,4.5623,4.5849,4.5874,4.5573,4.502,4.5952,4.6431,4.6576,4.8296,4.9107,4.9274,5.1123,5.2348,5.3042,5.386,5.459,5.5179,5.5179,5.5179,5.5179,5.5179,5.5179,5.5179,2.2893,2.2893,2.2893,2.2893,2.2893,2.2893,2.2893,2.2893,2.2893,2.2893,2.2893,2.2893,2.2893,2.2934,2.3033,2.3265,2.3126,2.3148,2.338,2.3394,2.3514,2.379,2.3843,2.387,2.387,2.4196,2.5144,2.6743,3.0446,3.2442,3.2836,3.4642,3.5684,3.5982,3.5982,3.5982,3.5982,3.5982,3.5982,3.5982,3.5982,3.5982,3.5982,3.5982,3.5982,3.5982,3.5982,3.5982,3.5982,3.5982,3.5982,3.5982,3.5982,3.5982,3.5982,3.5982,3.5982,3.5982,3.5982,3.6369,3.7508,4.0472,4.3786,4.6301,4.6301,4.6301,4.6301,4.6301,4.6301,4.6175,4.5698,4.5623,4.5372,4.4589,4.3514,4.2587,4.2135,4.1229,4.1254,4.2939,4.2939,4.3567,4.5422,4.5171,4.484,4.484,4.5321,4.5623,4.5623,4.605,4.61,4.5623,4.5623,4.5799,4.6175,4.6175,4.5899,4.5401,4.7102,4.7298,4.6265,4.8775,4.9286,4.8268,4.9734,5.1098,5.2321,5.2562,5.3544,5.487,5.487,5.5002,5.5179,5.5179,5.5179,5.5179,2.2893,2.2893,2.2893,2.2893,2.2893,2.2893,2.2893,2.2893,2.2893,2.2893,2.2893,2.2893,2.2893,2.31,2.3238,2.3292,2.3514,2.3683,2.3736,2.3736,2.3763,2.3803,2.4008,2.4142,2.4142,2.5976,2.7067,2.7341,3.1145,3.3042,3.3149,3.5028,3.5923,3.5982,3.5982,3.5982,3.5982,3.5982,3.5982,3.5982,3.5982,3.5982,3.5982,3.5982,3.5982,3.5982,3.5982,3.5982,3.5982,3.5982,3.5982,3.5982,3.5982,3.5982,3.5982,3.5982,3.5982,3.5982,3.5982,3.8154,4.0505,4.1052,4.3786,4.6301,4.6301,4.6301,4.6301,4.6301,4.6301,4.6276,4.62,4.6175,4.5673,4.4166,4.2582,4.1528,4.1453,4.1302,4.1804,4.3489,4.4844,4.5799,4.615,4.61,4.605,4.605,4.6125,4.6175,4.6175,4.625,4.6276,4.6175,4.6175,4.5999,4.5623,4.5623,4.5321,4.4715,4.5052,4.5355,4.5652,4.6104,4.6417,4.6725,4.8184,4.8965,4.9308,5.0519,5.197,5.3335,5.3335,5.4094,5.5179,5.5179,5.5179,5.5179,2.2893,2.2893,2.2893,2.2893,2.2893,2.2893,2.2893,2.2893,2.2893,2.2893,2.3041,2.3113,2.3113,2.338,2.3634,2.3781,2.3928,2.4075,2.4222,2.4088,2.4075,2.4222,2.4369,2.4436,2.4436,2.7437,2.8521,2.7505,3.2316,3.4192,3.324,3.5123,3.5982,3.5982,3.5982,3.5982,3.5982,3.5982,3.5982,3.5982,3.5982,3.5982,3.5982,3.5982,3.5982,3.5982,3.5982,3.5982,3.5982,3.5982,3.5982,3.5982,3.5982,3.5982,3.5982,3.5982,3.5982,3.6219,3.7159,3.9256,4.1437,4.2328,4.4436,4.6301,4.6301,4.6301,4.6301,4.6301,4.6301,4.6301,4.6301,4.6301,4.5748,4.4066,4.3162,4.2532,4.2258,4.2233,4.2836,4.4518,4.5397,4.5974,4.6276,4.6301,4.6301,4.6301,4.6301,4.6301,4.6301,4.6301,4.6301,4.6301,4.6301,4.6175,4.5924,4.5924,4.5799,4.5518,4.5518,4.5673,4.5924,4.5924,4.6075,4.6331,4.6998,4.7769,4.856,4.9224,5.038,5.1835,5.2697,5.3413,5.4094,5.4926,5.5179,5.5179,2.2893,2.2893,2.2893,2.2893,2.2893,2.2893,2.2893,2.2893,2.292,2.3,2.318,2.3319,2.342,2.3701,2.3968,2.4182,2.4262,2.4396,2.4586,2.4422,2.4359,2.4586,2.4599,2.4599,2.4599,2.7909,2.8936,2.7505,3.2787,3.4624,3.324,3.5123,3.5982,3.5982,3.5982,3.5982,3.5982,3.5982,3.5982,3.5982,3.5982,3.5982,3.5982,3.5982,3.5982,3.5982,3.5982,3.5982,3.5982,3.5982,3.5982,3.5982,3.5982,3.5982,3.5982,3.5982,3.5982,3.6369,3.8121,3.9856,4.1597,4.3271,4.5013,4.6301,4.6301,4.6301,4.6301,4.6301,4.6301,4.6301,4.6301,4.6301,4.5748,4.4066,4.379,4.3664,4.324,4.319,4.3818,4.5472,4.5673,4.5849,4.6276,4.6301,4.6301,4.6301,4.6301,4.6301,4.6301,4.6301,4.6301,4.6301,4.6301,4.6301,4.6301,4.6301,4.6301,4.6301,4.6301,4.6301,4.6301,4.6301,4.6301,4.6301,4.6301,4.6964,4.7977,4.7977,4.8851,5.0296,5.1482,5.2375,5.3121,5.4278,5.5015,5.5418,2.2893,2.2893,2.2893,2.2893,2.2893,2.2893,2.2893,2.2893,2.3,2.326,2.3278,2.3434,2.375,2.3995,2.4182,2.4195,2.4412,2.4572,2.4599,2.4572,2.4572,2.4599,2.4599,2.4599,2.4599,2.6648,2.765,2.7505,3.1474,3.3344,3.324,3.5123,3.5982,3.5982,3.5982,3.5982,3.5982,3.5982,3.5982,3.5982,3.5982,3.5982,3.5982,3.5982,3.5982,3.5982,3.5982,3.5982,3.5982,3.5982,3.5982,3.5982,3.5982,3.5982,3.5982,3.5982,3.5982,3.6369,3.8121,3.9856,4.1597,4.3271,4.5013,4.6301,4.6301,4.6301,4.6301,4.6301,4.6301,4.6301,4.6301,4.6301,4.5748,4.4066,4.379,4.379,4.374,4.374,4.4367,4.605,4.625,4.6276,4.6301,4.6301,4.6301,4.6301,4.6301,4.6301,4.6301,4.6301,4.6301,4.6301,4.6301,4.6301,4.6301,4.6301,4.6301,4.6301,4.6301,4.6301,4.6301,4.6301,4.6301,4.6301,4.6301,4.6361,4.6451,4.6451,4.7353,4.8676,4.8791,5.0518,5.3016,5.3121,5.4423,5.6132,2.2893,2.2893,2.2893,2.2893,2.2893,2.296,2.3113,2.3153,2.326,2.3567,2.3754,2.3915,2.4022,2.4302,2.4439,2.4439,2.4532,2.4599,2.4599,2.4599,2.4599,2.4599,2.4599,2.4599,2.4599,2.6502,2.6888,2.5712,3.0751,3.2595,3.1456,3.4555,3.5982,3.5982,3.5982,3.5982,3.5982,3.5982,3.5982,3.5982,3.5982,3.5982,3.5982,3.5982,3.5982,3.5982,3.5982,3.5982,3.5982,3.5982,3.5982,3.5982,3.5982,3.5982,3.5982,3.5982,3.5982,3.6369,3.8121,3.9856,4.1597,4.3271,4.5013,4.6301,4.6301,4.6301,4.6301,4.6301,4.6301,4.6301,4.6301,4.6301,4.5748,4.4066,4.4669,4.4995,4.394,4.4694,4.5598,4.6225,4.6301,4.6301,4.6301,4.6301,4.6301,4.6301,4.6301,4.6301,4.6301,4.6301,4.6301,4.6301,4.6301,4.6301,4.6301,4.6301,4.6301,4.6301,4.6301,4.6301,4.6301,4.6301,4.6301,4.6301,4.6301,4.6301,4.6301,4.6301,4.6606,4.7349,4.9595,5.1181,5.2484,5.4696,5.608,5.6761,2.2893,2.2974,2.3041,2.3041,2.3121,2.3255,2.3434,2.3474,2.3567,2.3861,2.4075,2.4235,2.4329,2.4479,2.4599,2.4599,2.4599,2.4599,2.4599,2.4599,2.4599,2.4599,2.4599,2.4599,2.4599,2.5932,2.5932,2.4599,2.9757,3.1597,3.038,3.4192,3.5982,3.5982,3.5982,3.5982,3.5982,3.5982,3.5982,3.5982,3.5982,3.5982,3.5982,3.5982,3.5982,3.5982,3.5982,3.5982,3.5982,3.5982,3.5982,3.5982,3.5982,3.5982,3.5982,3.5982,3.5982,3.6253,3.7475,3.9453,4.1597,4.3271,4.5013,4.6301,4.6301,4.6301,4.6301,4.6301,4.6301,4.6301,4.6301,4.6301,4.5924,4.4769,4.5547,4.5899,4.4744,4.5573,4.6301,4.6301,4.6301,4.6301,4.6301,4.6301,4.6301,4.6301,4.6301,4.6301,4.6301,4.6301,4.6301,4.6301,4.6301,4.6301,4.6301,4.6301,4.6301,4.6301,4.6301,4.6301,4.6301,4.6301,4.6301,4.6301,4.6301,4.6301,4.6331,4.6815,4.71,4.7577,5.0551,5.21,5.2994,5.5477,5.6846,5.7423,2.2907,2.3113,2.3292,2.3292,2.3581,2.3803,2.3803,2.3803,2.391,2.4168,2.4209,2.4315,2.4572,2.4599,2.4599,2.4599,2.4599,2.4599,2.4599,2.4599,2.4599,2.4599,2.4599,2.4599,2.4599,2.4599,2.4599,2.4599,2.8398,3.0274,3.038,3.4192,3.5982,3.5982,3.5982,3.5982,3.5982,3.5982,3.5982,3.5982,3.5982,3.5982,3.5982,3.5982,3.5982,3.5982,3.5982,3.5982,3.5982,3.5982,3.5982,3.5982,3.5982,3.5982,3.5982,3.5982,3.5982,3.5982,3.5982,3.8552,4.1597,4.3271,4.5013,4.6301,4.6301,4.6301,4.6301,4.6301,4.6301,4.6301,4.6301,4.6301,4.6301,4.6301,4.6301,4.6301,4.6301,4.6301,4.6301,4.6301,4.6301,4.6301,4.6301,4.6301,4.6301,4.6301,4.6301,4.6301,4.6301,4.6301,4.6301,4.6301,4.6301,4.6301,4.6301,4.6301,4.6301,4.6301,4.6301,4.6301,4.6301,4.6301,4.6301,4.6301,4.6301,4.6301,4.6421,4.7889,4.8904,4.964,5.1142,5.3022,5.4918,5.4918,5.6282,5.8115,2.3536,2.3616,2.3634,2.3634,2.375,2.387,2.4048,2.4075,2.4182,2.4439,2.4466,2.4506,2.4586,2.4599,2.4599,2.4599,2.4599,2.4599,2.4599,2.4599,2.4599,2.4599,2.4599,2.4599,2.4599,2.4599,2.4599,2.4599,2.7106,2.9008,3.0345,3.2874,3.4746,3.5982,3.5982,3.5982,3.5982,3.5982,3.5982,3.5982,3.5982,3.5982,3.5982,3.5982,3.5982,3.5982,3.5982,3.5982,3.5982,3.5982,3.5982,3.5982,3.5982,3.5982,3.5982,3.5982,3.5982,3.5982,3.5982,3.8552,4.1309,4.182,4.4127,4.6301,4.6301,4.6301,4.6301,4.6301,4.6301,4.6301,4.6301,4.6301,4.6301,4.6301,4.6301,4.6301,4.6301,4.6301,4.6301,4.6301,4.6301,4.6301,4.6301,4.6301,4.6301,4.6301,4.6301,4.6301,4.6301,4.6301,4.6301,4.6301,4.6301,4.6301,4.6301,4.6301,4.6301,4.6301,4.6301,4.6301,4.6301,4.6301,4.6301,4.6301,4.6301,4.6904,4.786,4.83,4.9484,5.1254,5.319,5.4618,5.5776,5.729,5.827,5.88,2.3803,2.3897,2.3977,2.3977,2.4035,2.4168,2.4342,2.4369,2.4436,2.4572,2.4599,2.4599,2.4599,2.4599,2.4599,2.4599,2.4599,2.4599,2.4599,2.4599,2.4599,2.4599,2.4599,2.4599,2.4599,2.4599,2.4599,2.4599,2.6539,2.8449,3.0345,3.2281,3.4192,3.5982,3.5982,3.5982,3.5982,3.5982,3.5982,3.5982,3.5982,3.5982,3.5982,3.5982,3.5982,3.5982,3.5982,3.5982,3.5982,3.5982,3.5982,3.5982,3.5982,3.5982,3.5982,3.5982,3.5982,3.5982,3.5982,3.8021,4.0343,4.102,4.3786,4.6301,4.6301,4.6301,4.6301,4.6301,4.6301,4.6301,4.6301,4.6301,4.6301,4.6301,4.6301,4.6301,4.6301,4.6301,4.6301,4.6301,4.6301,4.6301,4.6301,4.6301,4.6301,4.6301,4.6301,4.6301,4.6301,4.6301,4.6301,4.6301,4.6301,4.6301,4.6301,4.6301,4.6301,4.6301,4.6301,4.6301,4.6301,4.6301,4.6301,4.6301,4.6301,4.6815,4.774,4.9174,5.0667,5.2378,5.5116,5.6577,5.7331,5.8622,5.9099,5.9099,2.3884,2.4062,2.4249,2.4249,2.4426,2.4599,2.4599,2.4599,2.4599,2.4599,2.4599,2.4599,2.4599,2.4599,2.4599,2.4599,2.4599,2.4599,2.4599,2.4599,2.4599,2.4599,2.4599,2.4599,2.4599,2.4599,2.4599,2.4599,2.6357,2.8269,3.0345,3.2088,3.4054,3.5982,3.5982,3.5982,3.5982,3.5982,3.5982,3.5982,3.5982,3.5982,3.5982,3.5982,3.5982,3.5982,3.5982,3.5982,3.5982,3.5982,3.5982,3.5982,3.5982,3.5982,3.5982,3.5982,3.5982,3.5982,3.5982,3.7374,3.9223,4.0795,4.3786,4.6301,4.6301,4.6301,4.6301,4.6301,4.6301,4.6301,4.6301,4.6301,4.6301,4.6301,4.6301,4.6301,4.6301,4.6301,4.6301,4.6301,4.6301,4.6301,4.6301,4.6301,4.6301,4.6301,4.6301,4.6301,4.6301,4.6301,4.6301,4.6301,4.6301,4.6301,4.6301,4.6301,4.6301,4.6301,4.6301,4.6301,4.6301,4.6301,4.6301,4.6301,4.6301,4.6361,4.6776,5.0187,5.2125,5.3246,5.665,5.8471,5.9099,5.9099,5.9099,5.9099,2.4412,2.4466,2.4506,2.4506,2.4559,2.4599,2.4599,2.4599,2.4599,2.4599,2.4599,2.4599,2.4599,2.4599,2.4599,2.4599,2.4599,2.4599,2.4599,2.4599,2.4599,2.4599,2.4599,2.4599,2.4599,2.4599,2.4599,2.4599,2.5028,2.6983,3.031,3.0734,3.2735,3.5982,3.5982,3.5982,3.5982,3.5982,3.5982,3.5982,3.5982,3.5982,3.5982,3.5982,3.5982,3.5982,3.5982,3.5982,3.5982,3.5982,3.5982,3.5982,3.5982,3.5982,3.5982,3.5982,3.5982,3.5982,3.5982,3.8287,4.0731,4.1117,4.3786,4.6301,4.6301,4.6301,4.6301,4.6301,4.6301,4.6301,4.6301,4.6301,4.6301,4.6301,4.6301,4.6301,4.6301,4.6301,4.6301,4.6301,4.6301,4.6301,4.6301,4.6301,4.6301,4.6301,4.6301,4.6301,4.6301,4.6301,4.6301,4.6301,4.6301,4.6301,4.6301,4.6301,4.6301,4.6301,4.6301,4.6301,4.6301,4.6301,4.6301,4.6301,4.6301,4.6938,4.8181,5.0124,5.2295,5.4615,5.6554,5.8052,5.9099,5.9099,5.9099,5.9099,2.4599,2.4599,2.4599,2.4599,2.4599,2.4599,2.4599,2.4599,2.4599,2.4599,2.4599,2.4599,2.4599,2.4599,2.4599,2.4599,2.4599,2.4599,2.4599,2.4599,2.4599,2.4599,2.4599,2.4599,2.4599,2.4783,2.4783,2.4599,2.4599,2.667,3.0645,3.0645,3.2791,3.6621,3.6621,3.6621,3.6621,3.6621,3.6621,3.6621,3.6621,3.6621,3.6601,3.6406,3.6328,3.6309,3.6094,3.5982,3.5982,3.5982,3.5982,3.5982,3.5982,3.5982,3.5982,3.5982,3.5982,3.5982,3.5982,3.7921,4.0148,4.0988,4.3169,4.5281,4.612,4.6301,4.6301,4.6301,4.6301,4.6301,4.6301,4.6301,4.6301,4.6301,4.6301,4.6301,4.6301,4.6301,4.6301,4.6301,4.6301,4.6301,4.6301,4.6301,4.6301,4.6301,4.6301,4.6301,4.6301,4.6301,4.6301,4.6301,4.6301,4.6301,4.6301,4.6301,4.6301,4.6301,4.6301,4.6301,4.6301,4.6301,4.6301,4.6301,4.6301,4.6725,4.7648,5.0146,5.2045,5.3635,5.6126,5.7723,5.8623,5.8623,5.883,5.9099,2.4599,2.4599,2.4599,2.4599,2.4599,2.4599,2.4599,2.4599,2.4599,2.4599,2.4599,2.4599,2.4599,2.4599,2.4599,2.4599,2.4599,2.4599,2.4599,2.4599,2.4599,2.4599,2.4653,2.4679,2.4679,2.4997,2.501,2.4679,2.4719,2.6923,3.1062,3.1062,3.3303,3.7305,3.7305,3.7305,3.7305,3.7305,3.7305,3.7305,3.7305,3.7305,3.7266,3.6949,3.6812,3.6773,3.6367,3.6191,3.6113,3.6035,3.5982,3.5982,3.5982,3.5982,3.5982,3.5982,3.5982,3.5982,3.5982,3.7475,3.9366,4.0827,4.2675,4.4528,4.5969,4.6301,4.6301,4.6301,4.6301,4.6301,4.6301,4.6301,4.6301,4.6301,4.6301,4.6301,4.6301,4.6301,4.6301,4.6301,4.6301,4.6301,4.6301,4.6301,4.6301,4.6301,4.6301,4.6301,4.6301,4.6301,4.6301,4.6301,4.6301,4.6301,4.6301,4.6301,4.6301,4.6301,4.6301,4.6301,4.6301,4.6301,4.6301,4.6301,4.6301,4.6301,4.6566,5.0076,5.1598,5.2072,5.5568,5.7363,5.7935,5.8055,5.8444,5.8949,2.4599,2.4599,2.4599,2.4599,2.4599,2.4599,2.4599,2.4599,2.4599,2.4599,2.4599,2.4599,2.4599,2.4599,2.4599,2.4599,2.4599,2.4599,2.4599,2.4599,2.4599,2.4599,2.489,2.5024,2.5024,2.5304,2.5304,2.5024,2.5264,2.7436,3.1353,3.1353,3.3478,3.7305,3.7305,3.7305,3.7305,3.7305,3.7305,3.7305,3.7305,3.7305,3.7285,3.7226,3.7207,3.7207,3.7148,3.6894,3.6523,3.6152,3.5982,3.5982,3.5982,3.5982,3.5982,3.5982,3.5982,3.5982,3.5982,3.8387,4.0892,4.1149,4.3575,4.6029,4.624,4.6301,4.6301,4.6301,4.6301,4.6301,4.6301,4.6301,4.6301,4.6301,4.6301,4.6301,4.6301,4.6301,4.6301,4.6301,4.6301,4.6301,4.6301,4.6301,4.6301,4.6301,4.6301,4.6301,4.6301,4.6301,4.6301,4.6301,4.6301,4.6301,4.6301,4.6301,4.6301,4.6301,4.6301,4.6301,4.6301,4.6301,4.6301,4.6301,4.6301,4.6301,4.6541,4.9589,5.1183,5.1989,5.5099,5.6701,5.7304,5.7876,5.8145,5.8324,2.4599,2.4599,2.4599,2.4599,2.4599,2.4599,2.4599,2.4599,2.4599,2.4599,2.4599,2.4599,2.4599,2.4599,2.4599,2.4599,2.4599,2.4599,2.4599,2.4796,2.489,2.489,2.517,2.5317,2.5317,2.5611,2.5743,2.561,2.5531,2.7084,3.0072,3.123,3.3366,3.6342,3.7521,3.8008,3.8008,3.8008,3.8008,3.8008,3.8008,3.8008,3.7988,3.7734,3.7656,3.7617,3.7383,3.7187,3.6992,3.6797,3.6738,3.6699,3.6465,3.6387,3.6328,3.6094,3.5982,3.5982,3.5982,3.8552,4.1213,4.1213,4.3786,4.6301,4.6301,4.6301,4.6301,4.6301,4.6301,4.6301,4.6301,4.6301,4.6301,4.6301,4.6301,4.6301,4.6301,4.6301,4.6301,4.6301,4.6301,4.6301,4.6301,4.6301,4.6301,4.6301,4.6301,4.6301,4.6301,4.6301,4.6301,4.6301,4.6301,4.6301,4.6301,4.6301,4.6301,4.6301,4.6301,4.6301,4.6301,4.6301,4.6301,4.6301,4.6301,4.6785,4.7684,4.982,5.1375,5.2639,5.4824,5.6042,5.6671,5.7304,5.7543,5.7633]},{"header":{"parameterUnit":"m.s-1","parameterCategory":1,"la1":30.6,"la2":28.766,"lo1":-90.7593,"lo2":-88.6598,"dx":0.0162,"dy":0.0183,"nx":116,"ny":114,"refTime":"2023-01-06T06:00:00:Z","depth":0,"parameterNumber":3,"parameterNumberName":"V-component_of_WINDS"},"data":[0.0,0.0,0.0,0.0,0.0,0.0,0.0,0.0,0.0,0.0,0.0,0.0,0.0,0.0,0.0,0.0,0.0,0.0,0.0,0.0,0.0,0.0,0.0,0.0,0.0,0.0,0.0,0.0,0.0,0.0,0.0,0.0,0.0,0.0,0.0,0.0,0.0,0.0,0.0,0.0,0.0,0.0,0.0,0.0,0.0,0.0,0.0,0.0,0.0,0.0,0.0,0.0,0.0,0.0,0.0,0.0,0.0,0.0,0.0,0.0,0.0,0.0,0.0,0.0,0.0,0.0,0.0,0.0,0.0,0.0,0.0,0.0,0.0,0.0,0.0,0.0,0.0,0.0,0.0,0.0,0.0,0.0,0.0,0.0,0.0,0.0,0.0,0.0,0.0,0.0,0.0,0.0,0.0,0.0,0.0,0.0,0.0,0.0,0.0,0.0,0.0,0.0,0.0,0.0,0.0,0.0,0.0,0.0,0.0,0.0,0.0,0.0,0.0,0.0,0.0,0.0,0.0,0.0,0.0,0.0,0.0,0.0,0.0,0.0,0.0,0.0,0.0,0.0,0.0,0.0,0.0,0.0,0.0,0.0,0.0,0.0,0.0,0.0,0.0,0.0,0.0,0.0,0.0,0.0,0.0,0.0,0.0,0.0,0.0,0.0,0.0,0.0,0.0,0.0,0.0,0.0,0.0,0.0,0.0,0.0,0.0,0.0,0.0,0.0,0.0,0.0,0.0,0.0,0.0,0.0,0.0,0.0,0.0,0.0,0.0,0.0,0.0,0.0,0.0,0.0,0.0,0.0,0.0,0.0,0.0,0.0,0.0,0.0,0.0,0.0,0.0,0.0,0.0,0.0,0.0,0.0,0.0,0.0,0.0,0.0,0.0,0.0,0.0,0.0,0.0,0.0,0.0,0.0,0.0,0.0,0.0,0.0,0.0,0.0,0.0,0.0,0.0,0.0,0.0,0.0,0.0,0.0,0.0,0.0,0.0,0.0,0.0,0.0,0.0,0.0,0.0,0.0,0.0,0.0,0.0,0.0,0.0,0.0,0.0,0.0,0.0,0.0,0.0,0.0,0.0,0.0,0.0,0.0,0.0,0.0,0.0,0.0,0.0,0.0,0.0,0.0,0.0,0.0,0.0,0.0,0.0,0.0,0.0,0.0,0.0,0.0,0.0,0.0,0.0,0.0,0.0,0.0,0.0,0.0,0.0,0.0,0.0,0.0,0.0,0.0,0.0,0.0,0.0,0.0,0.0,0.0,0.0,0.0,0.0,0.0,0.0,0.0,0.0,0.0,0.0,0.0,0.0,0.0,0.0,0.0,0.0,0.0,0.0,0.0,0.0,0.0,0.0,0.0,0.0,0.0,0.0,0.0,0.0,0.0,0.0,0.0,0.0,0.0,0.0,0.0,0.0,0.0,0.0,0.0,0.0,0.0,0.0,0.0,0.0,0.0,0.0,0.0,0.0,0.0,0.0,0.0,0.0,0.0,0.0,0.0,0.0,0.0,0.0,0.0,0.0,0.0,0.0,0.0,0.0,0.0,0.0,0.0,0.0,0.0,0.0,0.0,0.0,0.0,0.0,0.0,0.0,0.0,0.0,0.0,0.0,0.0,0.0,0.0,0.0,0.0,0.0,0.0,0.0,0.0,0.0,0.0,0.0,0.0,0.0,0.0,0.0,0.0,0.0,0.0,0.0,0.0,0.0,0.0,0.0,0.0,0.0,0.0,0.0,0.0,0.0,0.0,0.0,0.0,0.0,0.0,0.0,0.0,0.0,0.0,0.0,0.0,0.0,0.0,0.0,0.0,0.0,0.0,0.0,0.0,0.0,0.0,0.0,0.0,0.0,0.0,0.0,0.0,0.0,0.0,0.0,0.0,0.0,0.0,0.0,0.0,0.0,0.0,0.0,0.0,0.0,0.0,0.0,0.0,0.0,0.0,0.0,0.0,0.0,0.0,0.0,0.0,0.0,0.0,0.0,0.0,0.0,0.0,0.0,0.0,0.0,0.0,0.0,0.0,0.0,0.0,0.0,0.0,0.0,0.0,0.0,0.0,0.0,0.0,0.0,0.0,0.0,0.0,0.0,0.0,0.0,0.0,0.0,0.0,0.0,0.0,0.0,0.0,0.0,0.0,0.0,0.0,0.0,0.0,0.0,0.0,0.0,0.0,0.0,0.0,0.0,0.0,0.0,0.0,0.0,0.0,0.0,0.0,0.0,0.0,0.0,0.0,0.0,0.0,0.0,0.0,0.0,0.0,0.0,0.0,0.0,0.0,0.0,0.0,0.0,0.0,0.0,0.0,0.0,0.0,0.0,0.0,0.0,0.0,0.0,0.0,0.0,0.0,0.0,0.0,0.0,0.0,0.0,0.0,0.0,0.0,0.0,0.0,0.0,0.0,0.0,0.0,0.0,0.0,0.0,0.0,0.0,0.0,0.0,0.0,0.0,0.0,0.0,0.0,0.0,0.0,0.0,0.0,0.0,0.0,0.0,0.0,0.0,0.0,0.0,0.0,0.0,0.0,0.0,0.0,0.0,0.0,0.0,0.0,0.0,0.0,0.0,0.0,0.0,0.0,0.0,0.0,0.0,0.0,0.0,0.0,0.0,0.0,0.0,0.0,0.0,0.0,0.0,0.0,0.0,0.0,0.0,0.0,0.0,0.0,0.0,0.0,0.0,0.0,0.0,0.0,0.0,0.0,0.0,0.0,0.0,0.0,0.0,0.0,0.0,0.0,0.0,0.0,0.0,0.0,0.0,0.0,0.0,0.0,0.0,0.0,0.0,0.0,0.0,0.0,0.0,0.0,0.0,0.0,0.0,0.0,0.0,0.0,0.0,0.0,0.0,0.0,0.0,0.0,0.0,0.0,0.0,0.0,0.0,0.0,0.0,0.0,0.0,0.0,0.0,0.0,0.0,0.0,0.0,0.0,0.0,0.0,0.0,0.0,0.0,0.0,0.0,0.0,0.0,0.0,0.0,0.0,0.0,0.0,0.0,0.0,0.0,0.0,0.0,0.0,0.0,0.0,0.0,0.0,0.0,0.0,0.0,0.0,0.0,0.0,0.0,0.0,0.0,0.0,0.0,0.0,0.0,0.0,0.0,0.0,0.0,0.0,0.0,0.0,0.0,0.0,0.0,0.0,0.0,0.0,0.0,0.0,0.0,0.0,0.0,0.0,0.0,0.0,0.0,0.0,0.0,0.0,0.0,0.0,0.0,0.0,0.0,0.0,0.0,0.0,0.0,0.0,0.0,0.0,0.0,0.0,0.0,0.0,0.0,0.0,0.0,0.0,0.0,0.0,0.0,0.0,0.0,0.0,0.0,0.0,0.0,0.0,0.0,0.0,0.0,0.0,0.0,0.0,0.0,0.0,0.0,0.0,0.0,0.0,0.0,0.0,0.0,0.0,0.0,0.0,0.0,0.0,0.0,0.0,0.0,0.0,0.0,0.0,0.0,0.0,0.0,0.0,0.0,0.0,0.0,0.0,0.0,0.0,0.0,0.0,0.0,0.0,0.0,0.0,0.0,0.0,0.0,0.0,0.0,0.0,0.0,0.0,0.0,0.0,0.0,0.0,0.0,0.0,0.0,0.0,0.0,0.0,0.0,0.0,0.0,0.0,0.0,0.0,0.0,0.0,0.0,0.0,0.0,0.0,0.0,0.0,0.0,0.0,0.0,0.0,0.0,0.0,0.0,0.0,0.0,0.0,0.0,0.0,0.0,0.0,0.0,0.0,0.0,0.0,0.0,0.0,0.0,0.0,0.0,0.0,0.0,0.0,0.0,0.0,0.0,0.0,0.0,0.0,0.0,0.0,0.0,0.0,0.0,0.0,0.0,0.0,0.0,0.0,0.0,0.0,0.0,0.0,0.0,0.0,0.0,0.0,0.0,0.0,0.0,0.0,0.0,0.0,0.0,0.0,0.0,0.0,0.0,0.0,0.0,0.0,0.0,0.0,0.0,0.0,0.0,0.0,0.0,0.0,0.0,0.0,0.0,0.0,0.0,0.0,0.0,0.0,0.0,0.0,0.0,0.0,0.0,0.0,0.0,0.0,0.0,0.0,0.0,0.0,0.0,0.0,0.0,0.0,0.0,0.0,0.0,0.0,0.0,0.0,0.0,0.0,0.0,0.0,0.0,0.0,0.0,0.0,0.0,0.0,0.0,0.0,0.0,0.0,0.0,0.0,0.0,0.0,0.0,0.0,0.0,0.0,0.0,0.0,0.0,0.0,0.0,0.0,0.0,0.0,0.0,0.0,0.0,0.0,0.0,0.0,0.0,0.0,0.0,0.0,0.0,0.0,0.0,0.0,0.0,0.0,0.0,0.0,0.0,0.0,0.0,0.0,0.0,0.0,0.0,0.0,0.0,0.0,0.0,0.0,0.0,0.0,0.0,0.0,0.0,0.0,0.0,0.0,0.0,0.0,0.0,0.0,0.0,0.0,0.0,0.0,0.0,0.0,0.0,0.0,0.0,0.0,0.0,0.0,0.0,0.0,0.0,0.0,0.0,0.0,0.0,0.0,0.0,0.0,0.0,0.0,0.0,0.0,0.0,0.0,0.0,0.0,0.0,0.0,0.0,0.0,0.0,0.0,0.0,0.0,0.0,0.0,0.0,0.0,0.0,0.0,0.0,0.0,0.0,0.0,0.0,0.0,0.0,0.0,0.0,0.0,0.0,0.0,0.0,0.0,0.0,0.0,0.0,0.0,0.0,0.0,0.0,0.0,0.0,0.0,0.0,0.0,0.0,0.0,0.0,0.0,0.0,0.0,0.0,0.0,0.0,0.0,0.0,0.0,0.0,0.0,0.0,0.0,0.0,0.0,0.0,0.0,0.0,0.0,0.0,0.0,0.0,0.0,0.0,0.0,0.0,0.0,0.0,0.0,0.0,0.0,0.0,0.0,0.0,0.0,0.0,0.0,0.0,0.0,0.0,0.0,0.0,0.0,0.0,0.0,0.0,0.0,0.0,0.0,0.0,0.0,0.0,0.0,0.0,0.0,0.0,0.0,0.0,0.0,0.0,0.0,0.0,0.0,0.0,0.0,0.0,0.0,0.0,0.0,0.0,0.0,0.0,0.0,0.0,0.0,0.0,0.0,0.0,0.0,0.0,0.0,0.0,0.0,0.0,0.0,0.0,0.0,0.0,0.0,0.0,0.0,0.0,0.0,0.0,0.0,0.0,0.0,0.0,0.0,0.0,0.0,0.0,0.0,0.0,0.0,0.0,0.0,0.0,0.0,0.0,0.0,0.0,0.0,0.0,0.0,0.0,0.0,0.0,0.0,0.0,0.0,0.0,0.0,0.0,0.0,0.0,0.0,0.0,0.0,0.0,0.0,0.0,0.0,0.0,0.0,0.0,0.0,0.0,0.0,0.0,0.0,0.0,0.0,0.0,0.0,0.0,0.0,0.0,0.0,0.0,0.0,0.0,0.0,0.0,0.0,0.0,0.0,0.0,0.0,0.0,0.0,0.0,0.0,0.0,0.0,0.0,0.0,0.0,0.0,0.0,0.0,0.0,0.0,0.0,0.0,0.0,0.0,0.0,0.0,0.0,0.0,0.0,0.0,0.0,0.0,0.0,0.0,0.0,0.0,0.0,0.0,0.0,0.0,0.0,0.0,0.0,0.0,0.0,0.0,0.0,0.0,0.0,0.0,0.0,0.0,0.0,0.0,0.0,0.0,0.0,0.0,0.0,0.0,0.0,0.0,0.0,0.0,0.0,0.0,0.0,0.0,0.0,0.0,0.0,0.0,0.0,0.0,0.0,0.0,0.0,0.0,0.0,0.0,0.0,0.0,0.0,0.0,0.0,0.0,0.0,0.0,0.0,0.0,0.0,0.0,0.0,0.0,0.0,0.0,0.0,0.0,0.0,0.0,0.0,0.0,0.0,0.0,0.0,0.0,0.0,0.0,0.0,0.0,0.0,0.0,0.0,0.0,0.0,0.0,0.0,0.0,0.0,0.0,0.0,0.0,0.0,0.0,0.0,0.0,0.0,0.0,0.0,0.0,0.0,0.0,0.0,0.0,0.0,0.0,0.0,0.0,0.0,0.0,0.0,0.0,0.0,0.0,0.0,0.0,0.0,0.0,0.0,0.0,1.4617,1.2571,0.0,0.0,0.0,0.0,0.0,0.0,0.0,0.0,0.0,0.0,0.0,0.0,0.0,0.0,0.0,0.0,0.0,0.0,0.0,0.0,0.0,0.0,0.0,0.0,0.0,0.0,0.0,0.0,0.0,0.0,0.0,0.0,0.0,0.0,0.0,0.0,1.2168,1.2168,1.3652,1.485,1.5792,1.5358,1.4097,1.2185,0.0,0.0,0.0,0.0,0.0,0.0,0.0,0.0,0.0,0.0,0.0,0.0,0.0,0.0,0.0,0.0,0.0,0.0,0.0,0.0,0.0,0.0,0.0,0.0,0.0,0.0,0.0,0.0,0.0,0.0,0.0,0.0,0.0,0.0,0.0,0.0,0.0,0.0,0.0,0.0,0.0,0.0,0.0,0.0,0.0,0.0,0.0,0.0,0.0,0.0,0.0,0.0,0.0,0.0,0.0,0.0,0.0,0.0,0.0,0.0,0.0,0.0,0.0,0.0,0.0,0.0,0.0,0.0,0.0,0.0,1.6205,1.4267,0.0,0.0,0.0,0.0,0.0,0.0,0.0,0.0,0.0,0.0,0.0,0.0,0.0,0.0,0.0,0.0,0.0,0.0,0.0,0.0,0.0,0.0,0.0,1.295,1.377,1.4457,1.449,1.4203,0.0,0.0,0.0,0.0,0.0,0.0,1.2299,1.2883,1.335,1.3642,1.5918,1.8127,2.0247,1.9663,1.7299,1.359,1.3483,0.0,0.0,0.0,0.0,0.0,0.0,0.0,0.0,0.0,0.0,0.0,0.0,0.0,0.0,0.0,0.0,0.0,0.0,0.0,0.0,0.0,0.0,0.0,0.0,0.0,0.0,0.0,0.0,0.0,0.0,0.0,0.0,0.0,0.0,0.0,0.0,0.0,0.0,0.0,0.0,0.0,0.0,0.0,0.0,0.0,0.0,0.0,0.0,0.0,0.0,0.0,0.0,0.0,0.0,0.0,0.0,0.0,0.0,0.0,0.0,0.0,0.0,0.0,2.027,2.0446,2.0446,2.0577,2.0618,2.0511,1.8515,1.6971,1.5811,1.4936,0.0,0.0,0.0,0.0,0.0,0.0,0.0,0.0,0.0,0.0,0.0,0.0,0.0,0.0,0.0,0.0,0.0,0.0,0.0,0.0,0.0,1.3833,1.4383,1.4493,1.449,1.4457,1.4347,0.0,0.0,0.0,0.0,1.3875,1.3151,1.372,1.4728,1.6117,1.8416,2.0145,2.1283,2.1027,2.0296,1.9136,1.86,1.7126,1.5003,0.0,0.0,0.0,0.0,0.0,0.0,0.0,0.0,0.0,0.0,0.0,0.0,0.0,0.0,0.0,0.0,0.0,0.0,0.0,0.0,0.0,0.0,0.0,0.0,0.0,0.0,0.0,0.0,0.0,0.0,0.0,0.0,0.0,0.0,0.0,0.0,0.0,0.0,0.0,0.0,0.0,2.1769,2.0658,0.0,0.0,0.0,0.0,0.0,0.0,0.0,0.0,0.0,0.0,0.0,0.0,0.0,2.2531,2.1269,2.1925,2.1674,2.0514,2.2484,2.3421,2.3455,2.4032,2.4311,2.4183,2.2168,0.0,1.7696,1.5984,0.0,0.0,0.0,0.0,0.0,0.0,0.0,0.0,0.0,0.0,0.0,0.0,0.0,0.0,0.0,0.0,0.0,0.0,0.0,0.0,0.0,1.4829,1.5845,1.5845,1.6662,1.6808,1.5918,1.5845,0.0,0.0,1.431,1.4349,1.3985,1.5123,1.7176,2.0184,2.1666,2.3507,2.5696,2.5403,2.5595,2.619,2.5715,2.2553,1.759,1.6747,0.0,0.0,0.0,0.0,0.0,0.0,0.0,0.0,0.0,0.0,0.0,0.0,0.0,0.0,0.0,0.0,0.0,0.0,0.0,0.0,0.0,0.0,0.0,0.0,0.0,0.0,0.0,0.0,0.0,0.0,0.0,0.0,0.0,0.0,0.0,0.0,0.0,0.0,0.0,2.1077,2.1718,2.0391,2.0964,2.0955,0.0,0.0,0.0,0.0,0.0,0.0,0.0,0.0,0.0,2.2736,2.4196,2.4545,2.371,2.4651,2.4687,2.3931,2.4936,2.5418,2.541,2.5704,2.5529,2.4904,2.3471,2.189,2.0183,1.8351,1.7305,1.68,0.0,0.0,0.0,0.0,1.4807,1.4568,0.0,0.0,0.0,0.0,0.0,0.0,0.0,0.0,0.0,0.0,0.0,0.0,1.4211,1.6184,1.7523,1.7584,1.8701,1.8704,1.7078,1.6967,1.6245,1.4567,1.449,1.449,1.449,1.6688,1.981,2.3923,2.4919,2.6864,2.961,2.9301,2.9801,3.0877,3.0585,2.6835,2.064,1.9485,1.8241,1.6824,0.0,0.0,0.0,0.0,0.0,0.0,0.0,0.0,0.0,0.0,0.0,0.0,0.0,0.0,0.0,0.0,0.0,0.0,0.0,0.0,0.0,0.0,0.0,0.0,0.0,0.0,0.0,0.0,0.0,0.0,0.0,0.0,0.0,0.0,0.0,0.0,0.0,2.1923,2.2536,2.0685,2.2143,2.2894,0.0,0.0,0.0,0.0,0.0,0.0,2.3859,2.507,2.5579,2.5201,2.6468,2.6848,2.6183,2.7006,2.7118,2.6499,2.6499,2.6499,2.6499,2.6499,2.6094,2.5335,2.4307,2.3471,2.2589,2.0254,1.8906,1.8281,1.7771,1.7221,1.6711,1.6412,1.63,1.63,0.0,0.0,0.0,0.0,0.0,0.0,0.0,0.0,0.0,0.0,0.0,1.5857,1.6652,1.8207,1.9258,1.9467,1.9558,1.8896,1.7284,1.7175,1.6381,1.4575,1.449,1.449,1.449,1.8306,2.2309,2.6424,2.7996,2.9616,3.128,3.1268,3.1127,3.0891,3.0877,2.8521,2.4532,2.4429,2.2074,1.8247,1.66,0.0,0.0,0.0,0.0,0.0,0.0,0.0,0.0,0.0,0.0,0.0,0.0,0.0,0.0,0.0,0.0,0.0,0.0,0.0,0.0,0.0,0.0,0.0,0.0,0.0,0.0,0.0,0.0,0.0,0.0,0.0,0.0,0.0,0.0,0.0,0.0,0.0,0.0,2.2936,2.5259,0.0,0.0,0.0,0.0,2.7282,2.6809,2.6453,2.6431,2.7679,2.8405,2.8362,3.0215,3.0454,2.8817,2.8872,2.8076,2.6499,2.6499,2.6499,2.6499,2.6499,2.6482,2.6379,2.537,2.4909,2.4565,2.0837,1.9258,1.9141,1.8301,1.7935,1.7901,1.7898,1.7881,1.7881,0.0,0.0,0.0,1.1077,1.0457,1.024,1.0558,1.1271,1.211,1.2963,1.5142,1.6758,1.7194,1.9525,2.1104,2.134,2.2322,2.2253,2.0583,1.9473,1.809,1.6309,1.5186,1.5811,1.8309,2.2345,2.5648,2.8143,2.9769,3.1091,3.2185,3.2185,3.2384,3.2746,3.2509,3.1143,2.8918,2.7225,2.5305,2.321,2.0422,1.8445,0.0,0.0,0.0,0.0,0.0,0.0,0.0,0.0,0.0,0.0,0.0,0.0,0.0,0.0,0.0,0.0,0.0,0.0,0.0,0.0,0.0,0.0,0.0,0.0,0.0,0.0,0.0,0.0,0.0,0.0,0.0,0.0,0.0,0.0,0.0,0.0,0.0,2.5997,2.802,0.0,2.7432,2.7772,2.8349,2.8887,2.9082,2.9159,2.9159,2.9997,3.0464,3.0464,3.1152,3.0955,2.9844,2.9286,2.8411,2.728,2.6748,2.6499,2.6499,2.6499,2.6146,2.5511,2.5158,2.4276,2.2947,2.1588,2.1036,2.1015,2.0706,2.0219,1.9667,1.9667,1.9667,1.9667,0.0,0.0,0.0,1.0643,1.0062,1.0007,1.0954,1.1786,1.2838,1.4301,1.6535,1.8275,1.8985,2.1368,2.3019,2.3202,2.4223,2.4036,2.2133,2.0947,1.9417,1.7377,1.6677,1.8303,2.246,2.5207,2.7781,3.0198,3.1274,3.2228,3.2993,3.2993,3.3286,3.3793,3.3394,3.2673,3.1658,2.9706,2.8109,2.6634,2.3915,2.1551,1.947,0.0,0.0,0.0,0.0,0.0,0.0,0.0,0.0,0.0,0.0,0.0,0.0,0.0,0.0,0.0,0.0,0.0,0.0,0.0,0.0,0.0,0.0,0.0,0.0,0.0,0.0,0.0,0.0,0.0,0.0,0.0,0.0,0.0,0.0,0.0,2.8012,2.771,2.9748,3.0718,2.9457,2.9868,3.0408,3.0914,3.1162,3.1272,3.1272,3.1439,3.1511,3.1511,3.1511,3.0955,2.9859,2.9286,2.8427,2.7297,2.6748,2.6499,2.6499,2.6499,2.6129,2.5511,2.5511,2.4559,2.3028,2.3028,2.2598,2.1981,2.164,2.1145,2.0605,2.0605,2.0605,2.0605,0.0,0.0,1.0639,0.9845,0.97,1.0007,1.099,1.1788,1.3261,1.5872,1.8329,2.0419,2.208,2.3798,2.484,2.4944,2.4994,2.4022,2.1658,2.1431,2.0232,1.7575,1.8949,2.1922,2.6502,2.6717,2.8662,3.2583,3.2619,3.3029,3.3807,3.3807,3.3807,3.3793,3.3343,3.2929,3.245,3.1977,3.0416,2.8176,2.6836,2.4859,2.2465,0.0,0.0,0.0,0.0,0.0,0.0,0.0,0.0,0.0,0.0,0.0,0.0,0.0,0.0,0.0,0.0,0.0,0.0,0.0,0.0,0.0,0.0,0.0,0.0,0.0,0.0,0.0,0.0,0.0,0.0,0.0,0.0,0.0,2.4603,2.8688,3.0762,2.8158,3.061,3.2045,3.0861,3.1221,3.2126,3.3534,3.3029,3.2643,3.2643,3.1924,3.1511,3.1511,3.1511,3.0733,2.9097,2.9034,2.8168,2.6585,2.6533,2.6499,2.6499,2.6499,2.6499,2.6499,2.6499,2.5938,2.4998,2.4981,2.38,2.1924,2.0992,2.0625,2.0605,2.0605,2.0605,2.0605,1.2262,1.1448,1.0639,0.9845,0.97,1.0192,1.1732,1.2159,1.3421,1.6608,1.8499,2.0063,2.1365,2.3498,2.4698,2.4359,2.4873,2.4686,2.3441,2.2168,2.0762,1.9121,2.2126,2.4693,2.657,2.8888,3.0907,3.2583,3.3176,3.3587,3.3807,3.3807,3.3807,3.378,3.3037,3.2606,3.2468,3.1694,3.0988,3.0276,2.8985,2.7462,2.5839,0.0,0.0,0.0,0.0,0.0,0.0,0.0,0.0,0.0,0.0,0.0,0.0,0.0,0.0,0.0,0.0,0.0,0.0,0.0,0.0,0.0,0.0,0.0,0.0,0.0,0.0,0.0,0.0,0.0,0.0,0.0,0.0,2.9801,2.9689,3.1111,3.2452,3.3317,3.4197,3.4599,3.4267,3.4359,3.4606,3.5007,3.3991,3.3326,3.3326,3.2174,3.1511,3.1511,3.1511,3.1278,3.0822,2.9613,2.8764,2.8298,2.7078,2.6499,2.6499,2.6499,2.6499,2.6499,2.6499,2.5938,2.4945,2.4199,2.3176,2.1981,2.1716,2.1202,2.0605,2.0605,2.0605,2.0605,1.2189,1.1196,1.0241,0.9772,0.999,1.0664,1.2101,1.2597,1.4158,1.7877,1.9085,2.0277,2.1983,2.375,2.4577,2.4037,2.439,2.4367,2.3584,2.2482,2.2284,2.3138,2.5296,2.7322,2.9066,3.0944,3.2302,3.3103,3.3587,3.3807,3.3807,3.3807,3.3807,3.378,3.3098,3.2699,3.2468,3.2122,3.1837,3.1586,3.0835,2.9429,2.7618,2.6578,2.5015,2.3374,2.3065,2.2329,2.1393,2.0617,0.0,0.0,0.0,0.0,0.0,0.0,0.0,0.0,0.0,0.0,0.0,0.0,0.0,0.0,0.0,0.0,0.0,0.0,0.0,0.0,0.0,0.0,0.0,0.0,3.0006,3.2278,3.3182,3.3555,3.4047,3.5068,3.5168,3.5063,3.4804,3.4781,3.4781,3.4781,3.3789,3.3169,3.3169,3.2118,3.1511,3.1511,3.1511,3.1161,3.045,2.9489,2.8652,2.795,2.696,2.6499,2.6499,2.6499,2.6499,2.6499,2.6499,2.5687,2.433,2.3745,2.2694,2.1413,0.0,0.0,0.0,0.0,2.0605,2.0605,1.2226,1.0943,0.9845,0.9845,1.0423,1.12,1.2153,1.2973,1.4985,1.918,1.9756,2.0672,2.3188,2.4168,2.4358,2.3674,2.3633,2.3408,2.2916,2.29,2.4429,2.7855,2.8153,2.9605,3.2552,3.2583,3.2993,3.3807,3.3807,3.3807,3.3807,3.3807,3.3807,3.3787,3.3306,3.2897,3.252,3.2812,3.2676,3.2293,3.2395,3.0935,2.8671,2.7987,2.6651,2.5087,2.4472,2.3802,2.3133,2.2977,0.0,0.0,0.0,0.0,0.0,0.0,0.0,0.0,0.0,0.0,0.0,0.0,0.0,0.0,0.0,0.0,0.0,0.0,0.0,0.0,0.0,0.0,0.0,0.0,3.1318,3.3366,3.534,3.56,3.5373,3.4783,3.4712,3.4496,3.389,3.384,3.384,3.384,3.3116,3.2707,3.2707,0.0,0.0,0.0,0.0,3.0792,2.9301,2.9097,2.8249,2.6782,2.6602,2.6499,2.6499,2.6499,2.6499,2.6499,2.6499,2.5417,2.3672,2.3562,2.2357,2.0605,2.0605,2.0605,2.0605,2.0605,2.0605,2.0605,1.3078,1.1785,1.0675,1.0675,1.0783,1.1161,1.2009,1.2826,1.4791,1.8873,1.9394,2.0374,2.2998,2.3451,2.3326,2.264,2.26,2.2798,2.3322,2.5006,2.6572,2.7956,2.9134,3.0644,3.2552,3.2583,3.2993,3.3807,3.3807,3.3807,3.3807,3.3807,3.3807,3.378,3.2999,3.2565,3.2495,3.2448,3.2384,3.2361,3.296,3.2502,3.1439,3.0731,2.9912,2.9151,2.903,2.7944,2.6399,2.529,2.4182,2.3011,2.1734,2.0567,0.0,0.0,0.0,0.0,0.0,0.0,0.0,0.0,0.0,0.0,0.0,0.0,0.0,0.0,0.0,0.0,0.0,0.0,0.0,3.0608,3.3168,3.5103,3.5532,3.56,3.5554,3.5419,3.5407,3.535,3.5236,3.5224,3.5224,3.5224,3.4103,3.3404,3.3404,3.2171,3.1511,3.1511,3.1511,3.1336,3.1014,2.9675,2.8844,2.8492,2.7145,0.0,2.6499,2.6499,2.6499,2.6499,2.6499,2.5809,2.4654,2.3836,2.2357,2.0605,2.0605,2.0605,2.0605,2.0605,2.0605,2.0664,1.3915,1.2588,1.1485,1.1485,1.1817,1.2226,1.2635,1.3367,1.4903,1.7726,1.8093,1.8754,2.0469,2.1059,2.1046,2.0392,2.1526,2.2787,2.3888,2.5721,2.7672,2.9625,3.041,3.1531,3.3176,3.3213,3.3396,3.3807,3.3807,3.3807,3.3807,3.3807,3.3675,3.3487,3.3045,3.2582,3.2179,3.29,3.3059,3.2916,3.366,3.3491,3.2757,3.2046,3.1547,3.1245,3.0867,2.9761,2.8354,2.7682,2.6845,2.5837,2.4527,2.3631,2.2905,0.0,0.0,0.0,0.0,0.0,0.0,0.0,0.0,0.0,0.0,0.0,0.0,0.0,0.0,2.6517,0.0,0.0,3.1297,3.2168,3.4157,3.56,3.56,3.56,3.56,3.56,3.56,3.578,3.6163,3.584,3.5618,3.5654,3.4665,3.3774,3.314,3.2412,3.1839,3.1511,3.1511,3.1307,3.0896,2.9628,2.878,2.833,2.7078,2.6499,2.6499,2.6499,2.6499,2.6499,2.6499,2.5634,2.4126,2.2657,2.1594,2.0898,2.0898,2.0781,2.0605,2.084,2.0898,2.0957,1.4447,1.3361,1.2446,1.2363,1.2858,1.3301,1.3301,1.3985,1.5077,1.6688,1.6905,1.7279,1.824,1.8761,1.8804,1.8146,2.0749,2.2929,2.4039,2.5935,2.8255,3.1029,3.117,3.1904,3.355,3.3733,3.3773,3.3668,3.3668,3.3634,3.3557,3.3557,3.3357,3.306,3.2975,3.2516,3.1884,3.3189,3.3624,3.3446,3.4201,3.4134,3.3525,3.2791,3.2327,3.2022,3.1403,3.0247,2.9055,2.9444,2.891,2.7977,2.7266,2.6884,2.6272,2.4217,2.3956,0.0,0.0,0.0,0.0,0.0,0.0,0.0,0.0,0.0,2.7661,2.8677,2.9294,2.9796,3.0234,3.1662,3.2916,3.3326,3.463,3.56,3.56,3.5735,3.5847,3.5847,3.57,3.5923,3.6686,3.608,3.5633,3.5664,3.4962,3.4046,3.3022,3.2667,3.2243,3.172,3.157,3.119,3.0524,2.9504,2.8652,2.795,2.696,2.6499,2.6499,2.6499,2.6499,2.6482,2.6094,2.4933,2.3216,2.144,2.0957,2.1347,2.1347,2.1133,2.0879,2.123,2.1347,2.1405,1.4241,1.3932,1.36,1.3214,1.3227,1.3301,1.3301,1.3985,1.5077,1.6688,1.6905,1.7462,1.8981,1.861,1.792,1.7132,2.0645,2.2996,2.3153,2.5987,2.8476,3.0246,3.032,3.1084,3.2699,3.3433,3.3613,3.3284,3.3284,3.3052,3.2666,3.2666,3.2606,3.2541,3.2188,3.1941,3.1832,3.229,3.2842,3.3446,3.4201,3.4449,3.4313,3.3558,3.2476,3.1302,3.1224,2.9646,2.7899,2.9618,2.8661,2.6983,2.8586,2.8254,2.6973,2.5436,2.4491,2.3546,2.1553,2.2964,0.0,2.6185,2.7518,2.8779,0.0,0.0,2.992,3.0736,3.0919,3.0996,3.1079,3.23,3.3326,3.3379,3.463,3.56,3.56,3.6231,3.666,3.666,3.6028,3.5902,3.6632,3.6024,3.5614,3.5614,3.4924,3.4434,3.4311,3.3137,3.2452,3.2392,3.1809,3.1467,3.1365,2.9782,2.8955,2.8844,2.7246,2.6499,2.6499,2.6499,2.6499,2.6413,2.4612,2.3456,2.2685,2.159,2.1426,2.1816,2.1816,2.1777,2.1759,2.1817,2.1816,2.1875,1.4024,1.3959,1.3849,1.3674,1.3667,1.3667,1.3667,1.3919,1.439,1.5087,1.5159,1.5418,1.6088,1.5953,1.5899,1.6012,1.9673,2.2149,2.262,2.5515,2.7912,2.9503,2.9163,2.9841,3.1873,3.2501,3.2813,3.2803,3.306,3.2968,3.2483,3.2483,3.2341,3.2083,3.1923,3.1712,3.149,3.2079,3.2723,3.3423,3.3728,3.3863,3.3795,3.3028,3.2114,3.1099,3.0219,2.8996,0.0,2.8736,2.8317,2.7728,2.9394,2.8958,2.7594,2.6402,2.5874,2.582,2.6712,2.7126,0.0,0.0,3.0431,3.1099,3.1867,3.2026,3.2364,3.3514,3.3751,3.3751,3.3751,3.4258,3.4698,0.0,3.5205,3.56,3.56,3.6299,3.6953,3.7393,3.7099,3.7199,3.7962,3.6944,3.6262,3.6304,3.5531,3.4744,3.397,3.3758,3.3305,3.2512,3.2243,3.1899,3.1511,2.9828,2.9002,2.8987,2.7313,2.6499,2.6499,2.6499,2.6675,2.6854,2.4802,2.3977,2.3916,2.2292,2.1855,2.2246,2.2246,2.2402,2.2557,2.2344,2.2246,2.2305,1.3827,1.3787,1.375,1.375,1.375,1.3787,1.3892,1.3906,1.3906,1.3906,1.3906,1.3906,1.3906,1.4028,1.4363,1.4922,1.8196,2.071,2.1903,2.4201,2.6399,2.8379,2.7733,2.8337,3.0409,3.1001,3.1428,3.169,3.203,3.1994,3.154,3.154,3.1359,3.1012,3.0859,3.0742,3.0606,3.0831,3.1543,3.2445,3.2163,3.2131,3.2192,3.1731,3.0915,2.9979,2.9268,2.8384,2.7561,2.7666,2.7363,2.7222,2.882,2.8584,2.7555,2.6649,2.6309,2.683,2.9522,0.0,0.0,3.2046,3.2892,3.3366,3.3886,3.4021,3.4326,3.5363,3.56,3.56,3.56,3.56,3.56,3.56,3.56,3.5667,3.5915,3.6603,3.7393,3.8125,3.8355,3.8653,3.9238,3.772,3.6607,3.6447,3.5858,3.507,3.4113,3.4338,3.3979,3.2811,3.2602,3.208,3.1175,2.9721,2.8876,2.862,2.7334,2.6725,2.6725,2.6859,2.6994,2.702,2.5522,2.4985,2.5088,2.3288,2.2768,2.3104,2.2783,2.2849,2.3062,2.2771,2.2654,2.2713,1.3617,1.3497,1.3434,1.3434,1.3434,1.3536,1.3852,1.3906,1.3906,1.3906,1.3906,1.3906,1.3906,1.3913,1.3917,1.3952,1.6241,1.8636,2.0813,2.183,2.3715,2.6734,2.6093,2.6433,2.806,2.8891,2.9422,2.9692,2.97,2.9506,2.9123,2.9123,2.9114,2.9044,2.8529,2.861,2.8989,2.7993,2.8569,3.0123,2.9062,2.8958,2.9428,2.9556,2.8613,2.7368,2.8575,2.7769,2.6221,2.6614,2.5539,2.434,2.6219,2.6776,2.6607,2.5837,2.5127,2.5059,2.7283,0.0,3.0606,3.2804,3.4427,3.5509,3.5532,3.5532,3.5532,3.56,3.56,3.56,3.56,3.56,3.56,3.56,3.56,3.5881,3.6648,3.7381,3.8159,3.8882,3.9614,4.0054,0.0,3.7969,3.6322,3.5589,3.5506,3.5489,3.5459,3.4847,3.4188,3.3484,3.2856,3.1797,3.0344,2.9442,2.8572,2.7736,2.742,2.7286,2.7286,2.7821,2.7527,2.6603,2.6547,2.6244,2.5679,2.4587,2.4367,2.4617,2.3499,2.3081,2.3101,2.3081,2.3081,2.3081,1.3483,1.3425,1.3413,1.3413,1.3413,1.3425,1.3534,1.3557,1.3557,1.3557,1.3557,0.0,0.0,0.0,0.0,0.0,1.5858,1.753,1.8278,2.0782,2.273,2.377,2.4494,2.5355,2.6389,2.6991,2.7647,2.8425,2.8721,2.8913,2.901,2.901,2.8811,2.8443,2.8281,2.8092,2.7915,2.754,2.8023,2.8962,2.81,2.8156,2.8722,2.8119,2.7581,2.7009,0.0,2.5578,2.5076,2.5171,2.4827,2.4572,2.6184,2.6031,2.5185,2.494,2.5744,2.719,2.9422,3.1147,3.2702,3.4427,3.5228,3.56,3.56,3.56,3.56,3.56,3.4833,3.4157,3.4157,3.4157,3.4157,3.4157,3.4968,3.5881,3.6694,3.7415,3.8159,3.8916,3.9188,0.0,0.0,0.0,0.0,3.704,3.61,3.5699,3.6118,3.5955,3.5535,3.4861,3.4622,3.3839,3.2448,3.095,3.0042,2.9726,2.8461,2.7821,2.7846,2.8021,2.8113,2.81,2.7368,2.676,2.6196,2.5059,2.4216,2.3627,2.3256,2.3101,2.3101,2.3101,2.3101,2.3101,1.3413,1.3413,1.3413,1.3413,1.3413,0.0,0.0,0.0,0.0,0.0,0.0,0.0,0.0,0.0,0.0,0.0,0.0,1.6061,1.684,1.8789,2.0392,2.1434,2.2124,2.2984,2.4019,2.431,2.492,2.5821,2.6397,2.691,2.7385,2.7647,2.7734,2.7668,2.7297,2.7023,2.6856,2.6302,2.6545,2.7217,2.6145,2.6103,2.6585,2.5825,2.5402,0.0,2.4282,2.3858,2.3722,2.3722,2.3722,2.3891,2.4831,2.4838,2.4651,2.5447,2.6894,2.8779,3.1292,3.2679,3.3751,3.5228,3.56,3.56,3.56,3.56,3.56,3.56,3.4427,3.3413,3.3413,3.2973,3.2601,3.2601,3.3413,3.4562,3.6129,3.6761,3.7652,3.922,3.9603,3.9399,0.0,0.0,0.0,3.7402,3.6616,3.6357,3.6806,3.6613,3.6194,3.5519,3.528,3.4305,3.2537,3.138,3.0569,3.0094,2.8933,2.8499,2.8699,2.8699,2.89,2.917,2.8469,2.802,2.7585,2.6438,2.5336,2.4253,2.3865,2.3474,2.3101,2.3101,2.3101,2.3101,1.3413,1.3413,1.3413,0.0,0.0,0.0,0.0,0.0,0.0,0.0,0.0,0.0,0.0,0.0,0.0,0.0,0.0,0.0,1.6389,1.5977,1.6875,1.9664,1.9243,1.9627,2.1055,2.1123,2.1488,2.2252,2.2936,2.3654,2.4406,2.5101,2.5787,2.643,2.5463,2.5319,2.5666,2.4153,2.4092,2.4888,2.3285,2.293,2.3277,2.2839,2.2407,2.2092,2.2722,2.2679,2.2313,2.2313,2.2347,2.2422,2.2557,2.3579,2.5151,2.7283,2.8552,2.9856,3.2645,3.3457,3.3852,3.5239,3.56,3.56,3.56,3.56,3.5566,3.5498,3.4326,3.3277,0.0,0.0,3.1258,3.1228,3.1383,3.2544,3.5363,3.5814,3.6896,0.0,0.0,0.0,0.0,0.0,0.0,3.6717,0.0,3.7387,3.7387,3.6866,3.6237,3.5579,3.4937,3.344,3.0992,3.0891,3.0183,2.8957,2.8957,2.9233,2.9804,2.9804,2.9804,2.9804,2.9804,2.976,2.9624,2.8545,2.7461,2.64,2.5252,2.4125,2.3169,2.3123,2.3123,2.314,0.0,0.0,0.0,0.0,0.0,0.0,0.0,0.0,0.0,0.0,0.0,0.0,0.0,0.0,0.0,0.0,0.0,0.0,1.4188,1.561,1.6519,1.6706,1.8662,1.9648,1.9498,2.002,2.0697,2.1488,2.1664,2.2131,2.2868,2.3064,2.3179,2.319,2.2934,2.2794,2.2769,2.2365,2.2345,2.2563,2.2124,2.2034,2.2122,2.2179,2.2107,2.2057,2.236,2.2389,2.2313,2.2313,2.3038,2.4229,2.5871,2.7063,2.8062,2.9185,3.0818,3.2442,3.322,3.419,3.5137,3.5509,3.56,3.56,3.56,3.56,3.5295,3.419,3.278,3.1294,0.0,0.0,0.0,3.1495,3.4107,0.0,3.7956,3.8611,0.0,4.0764,0.0,4.0136,3.9929,3.9213,0.0,0.0,3.7315,3.7387,3.7387,3.7255,3.6896,3.6237,3.6074,3.5099,3.3186,3.1799,3.0566,2.9578,2.9578,2.9654,2.9804,2.9804,2.9804,2.9804,2.9804,2.9326,2.8505,2.8227,2.7461,2.64,2.5252,2.4617,2.4253,2.3408,2.3318,2.3633,0.0,0.0,0.0,0.0,0.0,0.0,0.0,0.0,0.0,0.0,0.0,0.0,0.0,0.0,0.0,0.0,0.0,0.0,0.0,1.4565,1.5199,1.5117,1.7005,1.8025,1.7941,1.8668,1.9326,1.9917,1.9949,2.0411,2.1286,2.1452,2.1583,2.1649,2.1575,2.1572,2.1601,2.1352,2.1425,0.0,0.0,2.1372,2.1498,2.1334,2.1484,2.1843,2.196,2.2555,2.341,2.4375,0.0,2.6218,2.7807,2.8856,2.9736,3.1157,0.0,3.3548,3.419,3.4957,3.56,3.56,3.56,3.543,3.4788,3.463,3.4224,3.2747,3.1258,0.0,2.8777,3.008,0.0,0.0,0.0,0.0,3.8261,3.887,3.9636,0.0,4.0986,0.0,3.9835,3.9546,3.8966,0.0,3.7853,3.7704,3.7434,3.7165,3.6836,3.6523,3.6207,3.5221,3.3411,3.1499,3.0305,2.9804,2.9804,2.9804,2.9804,2.9804,2.9804,2.9804,2.9804,2.9145,2.8084,2.8084,2.7177,2.5734,2.5609,2.538,2.5124,2.4994,2.5264,2.5705,0.0,0.0,0.0,0.0,0.0,0.0,0.0,0.0,0.0,1.368,1.3511,1.3413,0.0,0.0,0.0,0.0,0.0,0.0,0.0,0.0,1.3676,1.4339,1.5155,1.5905,1.6524,1.7354,1.7953,1.822,1.8289,1.8765,1.9637,1.9991,2.0363,2.0683,2.0567,2.069,2.0976,2.0572,2.0795,2.1343,2.0852,2.0898,2.1215,0.0,2.0935,2.163,2.1789,2.3058,2.4982,2.7224,2.8027,2.8297,2.9373,3.0185,3.1079,3.3108,3.3683,3.3987,3.5239,3.56,3.56,3.56,3.56,3.5194,3.3751,3.3413,3.2949,3.1268,0.0,2.8924,2.8657,2.9428,3.0147,3.0258,0.0,3.4731,3.7787,3.8176,3.8907,4.0918,4.1653,4.1397,3.9889,4.0214,3.9885,3.8372,3.829,3.7973,3.7315,3.6776,3.6413,3.616,3.5479,3.4257,3.2415,3.0684,2.9804,2.9804,2.9804,2.9804,2.9804,2.9804,2.9804,2.9804,2.9804,2.9248,2.8327,2.8327,2.7241,2.5654,2.649,2.6549,2.626,2.712,2.7755,2.8204,0.0,0.0,0.0,0.0,0.0,0.0,0.0,0.0,0.0,0.0,1.4154,1.3413,0.0,0.0,0.0,0.0,0.0,0.0,0.0,0.0,0.0,1.3578,1.4889,1.5668,1.5803,1.7112,1.7822,1.7888,1.7906,1.7854,1.7775,1.7837,1.7895,1.7968,1.7938,1.81,1.8378,1.8856,1.9347,1.9826,2.021,2.0629,2.107,2.1284,0.0,0.0,2.2724,2.4101,2.5744,2.8019,2.9194,3.0166,3.2713,3.3637,3.3931,3.4934,3.5239,3.5261,3.5532,3.56,3.56,3.56,3.56,3.5194,3.3751,3.3413,0.0,0.0,2.9179,2.8486,2.6824,2.8474,3.0345,3.1133,3.3492,3.6253,3.9288,3.9627,4.0163,0.0,4.1373,4.0841,4.0538,3.9982,0.0,0.0,3.7584,3.7315,3.6686,3.6553,3.5891,3.4499,3.3572,3.2558,3.1444,3.0343,2.9804,2.9804,2.9804,2.9804,2.9804,2.9804,2.9804,2.9804,2.9804,2.9682,2.9527,2.9527,2.9559,2.9528,2.877,2.8727,2.8986,2.8259,2.8272,2.8678,0.0,0.0,0.0,0.0,0.0,0.0,0.0,1.5083,1.5189,1.5561,1.4991,1.4556,1.4556,1.4556,1.4556,0.0,0.0,0.0,0.0,0.0,0.0,1.4303,1.5492,1.5998,1.5665,1.7054,1.7813,1.7814,0.0,1.7542,1.7559,1.7189,1.6958,1.6797,1.6797,1.6929,1.7234,1.7908,1.8499,1.9101,1.9732,2.0389,2.1015,0.0,0.0,0.0,0.0,2.4906,2.6387,2.7875,2.9634,3.164,3.3806,3.4776,3.5137,3.5509,3.56,3.56,3.56,3.56,3.56,3.56,3.56,3.5002,3.278,0.0,0.0,0.0,2.7791,2.7518,2.6552,2.8171,0.0,3.028,3.2772,3.5415,3.7608,3.8752,0.0,4.0781,4.0789,4.0519,0.0,3.9317,3.8482,3.7477,3.7105,3.6656,3.5998,3.5968,3.5376,3.4041,3.3087,3.2146,3.1204,3.0273,2.9804,2.9804,2.9804,2.9804,2.9804,2.9804,2.9955,3.0231,3.0231,3.006,2.978,2.978,2.96,2.93,2.9338,2.9735,3.0209,3.0231,3.0565,3.1043,0.0,0.0,0.0,0.0,0.0,0.0,0.0,1.5837,1.5938,1.6277,1.6311,1.6378,1.6542,1.5967,1.56,0.0,0.0,0.0,0.0,0.0,0.0,0.0,0.0,0.0,0.0,0.0,0.0,0.0,1.7804,0.0,0.0,0.0,0.0,0.0,1.6694,1.6729,1.6749,1.7571,1.8323,0.0,0.0,2.049,0.0,0.0,0.0,0.0,0.0,2.5481,2.6623,2.7697,2.9634,3.1853,3.3332,3.4404,3.5137,3.5137,3.5137,3.5205,3.5498,3.56,3.56,3.56,3.56,3.4833,3.1867,3.12,0.0,0.0,2.67,2.6666,2.6573,0.0,2.8777,0.0,3.0989,3.3319,3.5387,3.6848,3.8174,0.0,3.9796,0.0,3.9044,3.8482,0.0,3.7255,3.6776,3.6207,3.5549,3.531,3.4739,3.3739,3.2788,3.1901,3.1078,3.0336,3.003,3.0131,3.0131,3.0131,3.0131,3.0131,3.0357,3.0783,3.0783,3.0519,3.0118,3.0118,2.9685,2.9072,2.9971,3.0646,3.1237,3.2095,3.2692,3.309,0.0,0.0,0.0,0.0,0.0,0.0,0.0,1.6592,1.7066,1.8409,1.8612,1.8837,1.9535,1.7214,1.56,0.0,0.0,0.0,0.0,0.0,0.0,0.0,0.0,0.0,0.0,0.0,0.0,1.8338,0.0,0.0,0.0,0.0,0.0,0.0,0.0,1.7654,1.6771,1.8057,0.0,0.0,0.0,0.0,0.0,0.0,0.0,0.0,0.0,2.5601,2.604,0.0,0.0,2.9551,3.1031,3.2476,3.3582,3.3582,0.0,0.0,3.5239,3.56,3.56,3.56,3.56,3.4833,3.1867,0.0,3.0345,2.7309,2.67,2.6581,2.6131,2.6526,0.0,0.0,2.8204,3.0151,3.4323,3.4378,3.5185,3.8414,0.0,0.0,3.7584,3.7507,3.7255,3.6643,3.6523,3.6207,3.5549,3.4627,3.3705,3.2753,3.1829,3.1119,3.0646,3.0572,3.0783,3.1235,3.1235,3.1235,3.1235,3.1235,3.126,3.1311,3.1311,3.1295,3.1263,3.1263,3.1477,3.1821,3.1951,3.2343,3.2886,3.2972,3.3065,3.309,0.0,0.0,0.0,0.0,0.0,0.0,1.7253,1.7732,1.8245,1.8815,1.9276,1.9676,1.9974,1.896,1.8256,1.8256,0.0,0.0,0.0,0.0,0.0,0.0,0.0,0.0,0.0,0.0,1.8349,1.8268,1.8787,0.0,0.0,0.0,0.0,0.0,0.0,0.0,1.8152,1.9077,0.0,0.0,0.0,0.0,0.0,0.0,0.0,0.0,0.0,0.0,2.6387,0.0,0.0,0.0,2.8595,2.9542,0.0,0.0,3.3413,3.3717,3.5205,3.56,3.56,3.56,3.4923,3.3751,3.1664,0.0,2.9271,2.7139,2.67,2.6641,2.647,2.6095,2.5868,2.6046,2.6714,2.7988,3.0172,3.1532,3.3257,3.5869,3.6228,0.0,0.0,0.0,3.6746,3.6523,3.6836,3.6926,3.6656,3.6259,3.5322,3.3725,3.3954,3.3119,3.1105,3.1721,3.1823,3.1406,3.1406,3.1406,3.1406,3.1406,3.1562,3.1888,3.1888,3.2089,3.2411,3.2411,3.2562,3.2742,3.2742,3.2889,3.309,3.309,3.309,3.309,0.0,0.0,0.0,0.0,0.0,1.7258,1.8025,1.8572,1.9052,1.9525,2.0027,2.0454,2.065,2.0684,2.0684,2.0684,1.9778,0.0,0.0,0.0,0.0,0.0,0.0,0.0,0.0,0.0,1.8857,1.8555,1.9037,1.9466,0.0,0.0,0.0,0.0,0.0,0.0,0.0,0.0,0.0,0.0,0.0,0.0,0.0,0.0,0.0,0.0,0.0,0.0,0.0,0.0,0.0,2.813,2.7038,2.7444,2.8831,3.136,3.2408,3.3074,3.4562,3.5273,3.56,3.56,3.4495,3.3017,0.0,0.0,2.857,2.7004,2.6598,2.6428,2.6289,2.5682,2.5105,2.4782,2.5597,2.6567,2.746,2.9355,3.1375,0.0,0.0,3.4905,3.6387,3.6686,3.6776,3.6776,3.7345,3.7704,3.7704,3.7866,3.6874,3.4472,3.4557,3.368,3.1658,3.2406,3.2463,3.1909,3.1909,3.1909,3.1909,3.1909,3.2089,3.2466,3.2466,3.2713,3.309,3.309,3.309,3.309,3.309,3.309,3.309,3.309,3.309,3.309,0.0,0.0,0.0,0.0,0.0,0.0,1.8781,1.8916,1.9458,2.0994,2.119,2.1461,2.2219,2.2279,2.2279,2.2279,2.0853,0.0,0.0,0.0,0.0,0.0,0.0,0.0,0.0,0.0,1.9378,1.9378,1.9997,2.0526,2.0999,2.0999,2.04,1.9426,0.0,0.0,0.0,0.0,0.0,0.0,0.0,0.0,0.0,0.0,0.0,0.0,0.0,0.0,0.0,0.0,0.0,0.0,0.0,2.67,2.7038,2.8604,3.0083,3.1529,3.3007,3.4495,3.56,3.56,3.4495,3.3017,0.0,0.0,2.857,2.7004,2.6315,2.5852,2.5316,2.5211,2.4861,2.3784,2.4628,2.5922,2.739,2.8201,2.9342,0.0,0.0,3.2333,3.4338,3.6267,3.7404,3.7404,3.8003,3.8409,3.8409,3.9002,3.7857,3.4519,3.2475,3.1703,3.219,3.2215,3.2512,3.309,3.309,3.309,3.309,3.309,3.309,3.309,3.309,3.309,3.309,3.309,3.309,3.309,3.309,3.309,3.309,3.309,3.309,3.309,0.0,0.0,0.0,0.0,0.0,0.0,0.0,1.9796,2.0649,2.1129,2.1657,2.2057,2.2286,2.2313,2.2313,2.2313,2.138,0.0,0.0,0.0,0.0,0.0,0.0,0.0,0.0,1.9943,2.0298,2.0298,2.0933,2.1461,2.1878,2.1878,2.1649,2.1192,2.1365,0.0,0.0,0.0,0.0,0.0,0.0,0.0,0.0,0.0,0.0,0.0,0.0,0.0,0.0,0.0,0.0,0.0,0.0,0.0,0.0,2.7275,2.8493,3.0016,3.1505,3.2239,3.2577,3.2577,3.1461,3.0253,2.9788,0.0,2.7275,2.6801,2.634,2.5943,2.5788,2.5154,2.4687,2.4808,2.523,2.5873,0.0,0.0,0.0,3.1944,3.4187,3.5772,0.0,0.0,3.8093,3.8093,3.8721,3.9062,3.9062,3.8576,3.781,3.6741,3.6104,3.518,3.3913,3.3918,3.3646,3.309,3.309,3.309,3.309,3.309,3.309,3.309,3.309,3.309,3.309,3.309,3.309,3.309,3.309,3.309,3.309,3.309,3.3341,3.3668,0.0,0.0,0.0,0.0,0.0,0.0,0.0,2.0581,2.1292,2.159,2.2016,2.2313,2.2313,2.2313,2.2313,2.2313,2.1887,0.0,0.0,0.0,0.0,0.0,0.0,0.0,2.0318,2.0706,2.0967,2.1086,2.1485,2.1813,2.2064,2.2064,2.2021,2.1891,2.2056,2.1932,0.0,0.0,0.0,0.0,0.0,0.0,2.6082,0.0,0.0,0.0,0.0,0.0,0.0,0.0,0.0,0.0,0.0,0.0,0.0,0.0,2.7376,2.8468,2.9948,3.0794,3.12,3.12,3.0083,2.901,2.901,2.7659,2.6496,2.6666,2.5991,2.5449,2.5677,2.5032,2.4609,2.5016,2.5594,2.6303,0.0,0.0,0.0,3.2647,0.0,0.0,0.0,3.8093,3.8781,3.8781,3.8931,3.9002,3.9002,3.7821,3.7113,3.7113,3.6795,3.5802,3.4121,3.41,3.3742,3.309,3.309,3.309,3.309,3.309,3.309,3.309,3.309,3.309,0.0,3.309,3.309,3.3115,3.3316,3.3416,3.3442,3.3621,3.3922,3.4198,0.0,0.0,0.0,0.0,0.0,0.0,0.0,2.1224,2.1522,2.2219,2.2313,2.2313,2.2313,2.2347,2.2388,2.2388,0.0,0.0,0.0,0.0,0.0,0.0,0.0,0.0,2.1383,2.1382,2.1512,2.1754,2.1814,2.1854,2.1854,2.1854,2.1824,2.1784,2.2231,2.2465,2.2636,0.0,0.0,0.0,2.642,2.67,0.0,0.0,0.0,0.0,0.0,0.0,0.0,0.0,0.0,0.0,0.0,0.0,0.0,0.0,0.0,0.0,0.0,2.9847,3.0886,3.0886,2.9847,2.8831,2.8804,2.7378,0.0,2.653,2.5445,2.4602,2.512,2.4883,2.4634,2.4724,2.5794,2.7093,0.0,3.0013,0.0,0.0,3.5489,0.0,3.6583,3.8285,3.9361,3.9272,3.8721,3.838,3.8332,3.6904,3.6074,3.6003,3.5131,3.4178,3.3092,3.3057,3.304,3.304,3.309,3.309,3.309,3.309,3.3115,3.3165,3.3165,3.319,3.3215,3.3215,3.3215,3.3266,3.3746,3.3947,3.4022,3.4502,3.4728,3.4753,0.0,0.0,0.0,0.0,0.0,0.0,0.0,0.0,0.0,0.0,2.2313,2.2313,2.2313,2.2801,2.3139,0.0,0.0,0.0,0.0,0.0,0.0,0.0,0.0,0.0,2.2164,2.23,2.2395,2.2463,2.2932,2.3161,2.3161,2.3161,2.2902,2.2473,2.2566,2.3064,2.3811,2.4209,0.0,0.0,2.6632,2.67,0.0,0.0,0.0,0.0,2.67,2.67,0.0,0.0,0.0,0.0,0.0,0.0,0.0,0.0,2.67,2.6767,2.7139,0.0,2.7749,2.7749,2.7512,2.7155,0.0,2.6609,2.6341,2.5691,2.5269,2.5078,2.5321,2.4931,2.4933,2.5974,2.6393,2.7423,2.9744,3.2946,0.0,3.6387,3.7823,3.8332,3.7285,3.8524,3.8973,3.7956,3.8212,3.8182,3.7674,3.7275,3.6734,3.5942,3.4975,3.4012,3.3018,3.2627,3.2416,3.2416,3.2889,3.309,3.309,3.309,3.3316,3.3696,3.3696,3.3947,3.4301,3.4301,3.4301,3.4327,3.4452,3.4502,3.4527,3.4653,3.4954,3.5307,0.0,0.0,0.0,0.0,0.0,0.0,0.0,0.0,0.0,0.0,0.0,2.2313,2.2313,2.297,0.0,0.0,0.0,0.0,0.0,0.0,0.0,0.0,0.0,2.3395,2.3232,2.3085,2.3305,2.3863,2.3696,2.3719,2.3974,2.3709,2.343,2.3133,2.3631,2.4398,2.5359,2.5359,2.5879,2.67,2.67,0.0,0.0,0.0,0.0,0.0,2.67,2.67,0.0,2.67,2.67,2.67,0.0,0.0,0.0,0.0,2.67,2.67,2.67,2.67,2.67,2.67,2.67,2.6641,2.6392,2.6166,2.5982,2.5901,2.538,2.5113,2.5665,2.5872,2.6084,2.6543,2.7624,0.0,0.0,0.0,3.5925,3.6866,3.7644,3.7883,3.7447,3.8045,3.8165,3.7447,3.7464,3.7494,3.7387,3.6682,3.5962,3.5214,3.4266,3.3626,3.3311,3.2577,3.234,3.2616,3.2939,3.309,3.3115,3.3366,3.3621,3.3922,3.4173,3.4427,3.4703,3.4703,3.4703,3.4728,3.4979,3.5079,3.5104,3.5378,3.5655,3.5906,0.0,0.0,0.0,0.0,0.0,0.0,0.0,0.0,0.0,0.0,0.0,0.0,0.0,0.0,0.0,0.0,0.0,0.0,0.0,0.0,0.0,0.0,2.4274,2.4317,2.4471,2.3948,2.4174,2.5202,2.4287,2.4069,2.4511,2.4079,2.3847,2.389,2.4802,2.5718,2.6598,2.6598,2.6641,2.67,2.67,0.0,0.0,0.0,0.0,0.0,0.0,0.0,0.0,2.67,2.67,2.67,2.67,0.0,0.0,0.0,0.0,0.0,2.67,2.6869,2.7004,2.6767,2.67,2.6683,2.6615,2.6008,2.5658,2.6368,2.5627,2.5191,2.6199,2.6926,2.7306,0.0,0.0,0.0,3.3396,3.4398,3.5326,3.6374,3.6583,3.6806,3.7225,3.7434,3.7524,3.7417,3.7015,3.6956,3.7375,3.6089,3.5196,3.4873,3.3799,3.3435,3.3946,3.2792,3.2466,3.2964,3.3065,3.309,3.3115,3.3571,3.3822,3.3922,3.4452,3.4753,3.4828,3.4904,3.4954,3.5004,3.5456,3.5656,3.5707,3.6205,3.6405,3.6405,0.0,0.0,0.0,0.0,0.0,0.0,0.0,0.0,0.0,0.0,0.0,0.0,0.0,0.0,0.0,0.0,0.0,0.0,0.0,0.0,0.0,2.6278,2.5878,2.5697,2.5724,2.5193,2.4997,2.5202,2.5037,2.5008,2.5086,2.4998,2.4959,2.4969,2.5134,2.5533,2.6095,2.6095,2.6357,2.67,2.67,0.0,0.0,0.0,0.0,0.0,0.0,0.0,0.0,2.67,2.67,2.67,2.67,0.0,0.0,0.0,0.0,0.0,2.67,2.7647,2.8333,2.7038,2.67,2.6607,2.6184,2.6376,2.6442,2.5735,2.5869,2.6374,2.7167,2.6987,2.7249,0.0,0.0,3.3352,0.0,0.0,3.6836,3.6553,0.0,3.7105,3.6673,3.7631,3.8003,3.7434,3.7823,3.7883,3.7434,3.7178,3.701,3.6943,3.5159,3.4473,3.5065,3.3157,3.2265,3.234,3.2864,3.309,3.309,3.319,3.3467,3.3922,3.4452,3.4954,3.5408,3.5931,3.613,3.6155,3.623,3.6256,3.6256,3.638,3.6405,3.6405,0.0,0.0,0.0,0.0,0.0,0.0,0.0,0.0,0.0,0.0,0.0,0.0,0.0,0.0,0.0,0.0,0.0,0.0,0.0,0.0,2.67,2.67,2.6504,2.6392,2.6392,2.5897,2.5746,2.5999,2.5477,2.5345,2.5617,2.5335,2.5354,2.5617,2.5617,2.5915,2.6392,2.6392,2.6513,2.67,0.0,0.0,0.0,0.0,0.0,0.0,0.0,0.0,0.0,0.0,2.67,2.67,2.67,0.0,0.0,0.0,0.0,0.0,2.67,2.7207,2.7791,2.7927,2.8256,2.8498,2.8254,2.8215,2.8053,2.7567,2.7523,2.7646,2.7888,2.8685,3.0073,3.2408,0.0,3.3335,3.4338,3.4967,3.5459,0.0,3.6207,3.652,3.6956,3.7524,3.7734,3.7417,3.7704,3.7883,3.7943,3.7376,3.6986,3.6745,3.5325,3.4406,3.4117,3.3148,3.2692,3.2692,3.2964,3.309,3.3115,3.3416,3.3671,3.3922,3.4452,3.5004,3.5508,3.5782,3.613,3.6405,3.6405,3.6405,3.6405,3.6405,3.6405,3.6405,0.0,0.0,0.0,0.0,0.0,0.0,0.0,0.0,0.0,0.0,0.0,0.0,0.0,0.0,0.0,0.0,0.0,0.0,0.0,2.67,2.67,2.67,2.67,2.67,2.67,2.6366,2.6357,2.67,2.5919,2.5746,2.6148,2.5737,2.5764,2.6148,2.6148,2.6341,2.67,2.67,2.67,2.67,0.0,0.0,0.0,0.0,0.0,0.0,0.0,0.0,0.0,0.0,0.0,0.0,0.0,0.0,0.0,2.67,2.67,2.67,2.67,2.6978,2.7565,2.8703,2.9262,2.9693,3.0243,2.9932,2.957,2.9704,2.9614,2.9466,2.9125,3.0537,0.0,3.4544,3.3794,3.3425,3.4787,3.4518,3.4651,3.5818,3.5938,3.6387,3.7524,3.7644,3.7704,3.7866,3.7866,3.8075,3.8601,3.7856,3.7277,3.6954,3.5722,3.465,3.3827,3.3322,3.309,3.309,3.309,3.309,3.3115,3.3542,3.3696,3.3746,3.4299,3.4828,3.5307,3.5458,3.5857,3.6405,3.6405,3.6405,3.6405,3.6405,3.6405,3.643,0.0,0.0,0.0,0.0,0.0,0.0,0.0,0.0,0.0,0.0,0.0,0.0,0.0,0.0,0.0,0.0,0.0,0.0,0.0,2.67,2.67,2.67,2.67,2.67,2.67,2.6666,2.6666,2.67,2.6632,2.6615,2.6649,2.6615,2.6615,2.6649,2.6649,2.6666,2.67,2.67,2.67,2.67,2.67,0.0,0.0,0.0,0.0,0.0,0.0,0.0,0.0,0.0,0.0,0.0,0.0,0.0,2.67,2.67,2.67,2.67,2.67,2.7836,2.9039,2.8992,2.8484,2.85,3.0649,3.0646,3.0419,3.1099,3.1864,3.216,3.1426,3.1853,3.2419,3.2688,3.3651,3.4817,3.6164,0.0,3.6537,3.7195,3.7255,3.7554,3.8242,3.835,3.8571,3.9212,3.9272,3.9272,3.9331,3.9259,3.9205,3.9162,3.7175,3.6053,3.5994,3.4053,3.309,3.309,3.309,3.309,3.309,3.314,3.3165,3.319,3.3721,3.4274,3.4803,3.5282,3.5857,3.6405,3.6405,3.6405,3.6405,3.6405,3.6405,3.648,0.0,0.0,0.0,0.0,0.0,0.0,0.0,0.0,0.0,0.0,0.0,0.0,0.0,0.0,0.0,0.0,0.0,0.0,0.0,2.67,2.67,2.67,2.67,2.67,2.67,2.67,2.67,2.67,2.67,2.67,2.67,2.67,2.67,2.67,2.67,2.67,2.67,2.67,2.67,2.67,2.67,2.67,0.0,0.0,0.0,0.0,0.0,0.0,0.0,0.0,2.67,2.67,2.67,2.67,2.67,2.67,2.6504,2.644,2.7189,2.797,2.8863,3.007,3.0151,3.0378,3.2161,3.2471,3.2416,3.2715,3.3791,3.4472,3.3673,0.0,3.3815,3.4329,3.5179,3.5925,3.6434,3.6806,3.7315,3.7943,3.8033,3.8272,3.896,3.9002,3.914,3.9391,3.9391,3.9391,3.9391,3.8778,3.8416,3.8416,3.6358,3.5258,3.5258,3.3827,3.309,3.309,3.309,3.309,3.309,3.309,3.309,3.3115,3.3316,3.3897,3.4728,3.4929,3.5554,3.6405,3.6405,3.6582,3.6909,3.6909,3.711,3.7412,0.0,0.0,0.0,0.0,0.0,0.0,0.0,0.0,0.0,0.0,0.0,0.0,0.0,0.0,0.0,0.0,0.0,0.0,2.6708,2.67,2.67,2.67,2.67,2.67,2.67,2.67,2.67,2.67,2.67,2.67,2.67,2.67,2.67,2.67,2.67,2.67,2.67,2.67,2.67,2.67,2.67,2.67,0.0,0.0,0.0,0.0,0.0,0.0,0.0,0.0,2.67,2.67,2.67,2.67,2.67,2.67,2.6479,2.6438,2.7508,2.7994,2.8664,3.0701,3.1244,3.1815,3.3676,3.3985,3.4101,3.482,3.5417,3.5752,3.5489,0.0,0.0,0.0,3.6253,3.6853,3.7062,3.7464,3.7973,3.8631,3.8721,3.8901,3.9361,3.9391,3.9391,3.9391,3.9391,3.9391,3.9391,3.8397,3.7805,3.7805,3.5789,3.4718,3.4718,3.3641,3.319,3.3366,3.3366,3.3266,3.309,3.309,3.309,3.309,3.309,3.3596,3.4477,3.4803,3.573,3.6909,3.6909,3.7135,3.7437,3.7437,3.7688,3.804,0.0,0.0,0.0,0.0,0.0,0.0,0.0,0.0,2.8981,2.8981,2.8981,0.0,0.0,0.0,0.0,0.0,0.0,0.0,2.6733,2.67,2.67,2.67,2.67,2.67,2.67,2.67,2.67,2.67,2.67,2.67,2.67,2.67,2.67,2.67,2.67,2.67,2.67,2.67,2.67,2.67,2.67,2.67,2.67,0.0,0.0,0.0,0.0,0.0,0.0,0.0,2.67,2.67,2.6691,2.6691,2.67,2.6691,2.6691,2.686,2.7621,2.7957,2.8629,3.0691,3.1418,3.2326,3.5025,3.507,3.5171,3.7425,3.6743,3.5934,3.6662,3.609,0.0,3.5519,3.6596,3.7644,3.8302,3.8409,3.8661,3.9331,3.9391,3.9391,3.9391,3.9391,3.9391,3.9391,3.9391,3.9391,3.9391,3.8397,3.7824,3.7824,3.5809,3.4718,3.4718,3.3666,3.3391,3.3897,3.3897,3.3621,3.3115,3.3115,3.3115,3.3115,3.3115,3.3442,3.4022,3.5082,3.651,3.8015,3.8015,3.8015,3.8015,3.8015,3.8015,3.809,0.0,0.0,0.0,0.0,0.0,0.0,0.0,0.0,2.8981,2.8981,2.8981,0.0,0.0,0.0,0.0,0.0,0.0,0.0,2.7131,2.6874,2.67,2.67,2.67,2.67,2.67,2.67,2.67,2.67,2.67,2.67,2.67,2.67,2.67,2.67,2.67,2.67,2.67,2.67,2.67,2.67,2.67,2.67,2.67,0.0,0.0,0.0,0.0,0.0,0.0,0.0,0.0,0.0,2.6298,2.6444,2.6641,2.6289,2.6558,2.722,2.8336,2.955,3.0839,3.2352,3.3581,3.491,3.6792,3.6273,3.5857,3.7498,3.7407,3.6965,3.6714,3.6775,0.0,3.6267,3.7255,3.8153,3.8362,3.8811,3.9182,3.9391,3.9391,3.9391,3.9391,3.9391,3.9391,3.9391,3.9391,3.9391,3.9391,3.909,3.9132,3.9624,3.7512,3.6627,3.7078,3.5184,3.4324,3.4452,3.4452,3.4377,3.4248,3.4628,3.4803,3.4803,3.5251,3.5728,3.6281,3.6985,3.7538,3.8015,3.8015,3.8266,3.8642,3.8642,3.8868,3.922,0.0,0.0,0.0,0.0,0.0,0.0,2.8981,2.8981,2.8981,2.8981,2.8981,2.8981,0.0,0.0,0.0,2.8402,2.8002,2.7609,2.7326,2.7075,2.6882,2.6708,2.67,2.67,2.67,2.67,2.67,2.67,2.67,2.67,2.67,2.67,2.67,2.67,2.67,2.67,2.67,2.67,2.67,2.67,2.67,2.67,2.67,0.0,0.0,0.0,0.0,0.0,0.0,0.0,0.0,0.0,2.6383,2.6479,2.6641,2.6341,2.6787,2.7751,2.9434,3.0622,3.1911,3.4204,3.5419,3.6567,3.8367,3.8334,3.8181,3.8999,3.8794,3.8372,3.7979,3.7849,3.7674,3.7315,3.8123,3.8811,3.8811,3.9152,3.9391,3.9391,3.9391,3.9391,3.9391,3.9391,3.9391,3.9391,3.966,3.978,3.978,3.9639,3.9522,3.945,3.7775,3.683,3.6754,3.5391,3.4951,3.5378,3.5378,3.5604,3.5983,3.5658,3.5631,3.5881,3.6232,3.6833,3.7538,3.7864,3.8266,3.8668,3.8668,3.8894,3.922,3.922,3.9421,3.9697,0.0,0.0,0.0,0.0,0.0,0.0,2.8981,2.8981,2.8981,2.8981,2.8981,2.8981,0.0,0.0,0.0,2.8496,2.8408,2.8118,2.7429,2.735,2.7139,2.6775,2.6758,2.6775,2.6816,2.6783,2.6758,2.6758,2.6716,2.67,2.67,2.67,2.67,2.67,2.67,2.67,2.67,2.67,2.67,2.67,2.67,2.67,2.67,2.67,0.0,0.0,0.0,0.0,0.0,0.0,0.0,0.0,2.6649,2.6666,2.6683,2.6598,2.7298,2.8558,3.0567,3.1407,3.2554,3.6039,3.7066,3.7745,3.972,4.0836,4.1308,4.1022,4.0402,3.9828,3.9766,3.9078,3.8482,3.8482,3.902,3.9391,3.9391,3.9391,3.9391,3.9391,3.9391,3.9421,3.9481,3.9481,3.9511,3.9571,4.0157,4.0487,4.0487,4.0032,3.9296,3.8263,3.7133,3.6091,3.5085,3.4997,3.5479,3.6556,3.6556,3.7085,3.804,3.651,3.6157,3.6683,3.6684,3.7262,3.8165,3.8165,3.8768,3.9697,3.9697,3.9697,3.9697,3.9697,3.9697,3.9697,0.0,0.0,0.0,0.0,0.0,0.0,2.8981,2.8981,2.8981,2.8981,2.8981,2.8981,2.8981,2.8981,0.0,2.8893,2.8577,2.8324,2.8179,2.7616,2.7264,2.7178,2.717,2.7326,2.7644,2.7342,2.717,2.717,2.6832,2.67,2.67,2.67,2.67,2.67,2.67,2.67,2.67,2.67,2.67,2.67,2.67,2.67,2.67,2.67,2.67,0.0,0.0,0.0,0.0,0.0,0.0,0.0,2.6254,2.6418,2.6522,2.5755,2.7855,3.047,3.0549,3.3023,3.5938,3.7313,3.8971,4.0387,4.0853,4.1977,4.2234,3.9758,3.9455,3.9482,3.8845,3.8986,3.9182,3.9182,3.9302,3.9391,3.9391,3.9391,3.9391,3.9391,3.9391,3.9601,4.0127,4.0187,4.0397,4.0924,4.1104,4.1194,4.1194,4.0188,3.9785,4.002,3.8027,3.7299,3.7988,3.7131,3.6985,3.7663,3.7663,3.8015,3.8693,3.8341,3.8492,3.8994,3.8994,3.912,3.932,3.932,3.9471,3.9697,3.9697,3.9697,3.9697,3.9697,3.9697,3.9697,0.0,0.0,0.0,0.0,0.0,0.0,0.0,0.0,2.9427,2.9054,2.8981,2.8981,2.8981,2.8981,0.0,0.0,2.8797,2.8596,2.8402,2.8043,2.7755,2.7607,2.7599,2.7695,2.7897,2.7517,2.7311,2.7311,2.6915,2.67,2.67,2.67,2.67,2.67,2.67,2.67,2.67,2.67,2.67,2.67,2.67,2.67,2.67,2.67,2.67,2.67,2.67,0.0,0.0,0.0,0.0,0.0,0.0,0.0,2.6607,2.6062,2.7918,3.0408,3.1549,3.3983,3.6671,3.851,4.0087,4.1305,4.1644,4.1983,4.1844,4.0547,4.0542,4.0497,3.9667,3.9443,3.9391,3.9391,3.9391,3.9391,3.9391,3.966,3.9888,3.9888,4.0157,4.0487,4.0846,4.0894,4.1014,4.1373,4.1703,4.1901,4.1901,4.1873,4.1773,4.155,4.0084,3.9318,3.9374,3.8192,3.7864,3.8417,3.8417,3.8743,3.9296,3.9296,3.9446,3.9697,3.9697,3.9697,3.9697,3.9697,3.9697,3.9697,3.9697,3.9697,3.9697,3.9697,3.9697,3.9697,0.0,0.0,0.0,0.0,0.0,0.0,0.0,0.0,0.0,2.9097,2.8981,2.8981,2.8981,2.8981,2.8981,0.0,0.0,0.0,2.8534,2.8421,2.8265,2.801,2.7996,2.8024,2.8086,2.7689,2.7482,2.7482,2.7099,2.6923,2.6889,2.6775,2.6741,2.6808,2.6733,2.6741,2.6808,2.6733,2.6741,2.6808,2.6733,2.67,2.67,2.67,2.67,2.67,2.67,2.67,2.67,2.67,0.0,0.0,0.0,0.0,2.6683,2.6607,2.7831,2.9708,3.2068,3.4331,3.6678,3.9411,4.0741,4.1479,4.1964,4.1552,4.1215,4.1693,4.1674,4.1345,4.0605,3.9884,3.9391,3.9391,3.9511,3.9571,3.9571,4.0157,4.0576,4.0576,4.1074,4.1463,4.1553,4.1583,4.1673,4.1882,4.2421,4.28,4.287,4.3707,4.3654,4.2467,4.177,4.0839,3.9745,3.8682,3.8442,3.9044,3.9044,3.9271,3.9697,3.9697,3.9697,3.9697,3.9697,3.9697,3.9697,3.9697,3.9697,3.9697,3.9697,3.9697,3.9697,3.9697,3.9697,3.9697,0.0,0.0,0.0,0.0,0.0,0.0,0.0,0.0,0.0,0.0,2.8981,2.8981,2.8981,2.8981,2.8981,2.8981,2.8981,2.8964,2.8923,0.0,0.0,2.8324,2.8324,2.8502,2.8852,2.8464,2.8252,2.8252,2.7897,2.7746,2.7732,2.7019,2.6907,2.721,2.6874,2.6881,2.7202,2.6866,2.6881,2.7194,2.6849,2.67,2.67,2.67,2.67,2.67,2.67,2.67,2.67,2.67,2.67,0.0,0.0,0.0,2.6624,2.6192,2.7949,2.995,3.0,3.3827,3.8148,3.9716,4.1097,4.1904,4.1314,4.1541,4.1676,4.1014,4.0257,3.9702,3.9607,3.9481,3.9391,3.9391,3.9888,4.0277,4.0277,4.0816,4.1283,4.1283,4.1343,4.1613,4.2201,4.2261,4.272,4.3838,4.4018,4.4317,4.4885,4.4128,4.3111,4.1864,4.0734,3.9775,3.9019,3.8869,3.9044,3.9597,3.9597,3.9622,3.9697,3.9697,3.9697,3.9697,3.9697,3.9697,3.9697,3.9697,3.9697,3.9697,3.9697,3.9697,3.9697,3.9697,3.9697,3.9697,0.0,0.0,0.0,0.0,0.0,0.0,0.0,0.0,0.0,0.0,0.0,2.8981,2.8981,2.8981,2.8981,2.8981,2.8981,2.8981,2.8981,2.8821,2.8743,2.8743,2.8743,2.8809,2.9018,2.8596,2.8389,2.8389,2.8079,2.8003,2.8152,2.7616,2.7357,2.7295,2.7115,2.7003,2.6954,2.7011,2.7003,2.6938,2.6775,2.7632,2.8861,2.7317,2.7674,2.8861,2.7275,2.67,2.67,2.67,2.67,2.67,2.67,0.0,0.0,0.0,2.7548,2.9421,3.2164,3.5458,3.8499,4.0193,4.1664,4.2419,4.1188,4.139,4.1616,4.0837,4.0312,3.984,3.9481,3.972,3.996,3.996,4.0516,4.0954,4.0954,4.1523,4.1961,4.1961,4.2252,4.2731,4.3389,4.3449,4.3838,4.4796,4.4855,4.4975,4.5274,4.4492,4.3792,4.3228,4.1693,4.0713,4.0432,3.9702,3.9472,3.9697,3.9697,3.9697,3.9697,3.9697,3.9697,3.9697,3.9697,3.9697,3.9697,3.9697,3.9697,3.9697,3.9697,3.9697,3.9697,3.9697,3.9697,3.9697,0.0,0.0,0.0,0.0,0.0,0.0,0.0,0.0,0.0,0.0,0.0,2.8981,2.8981,0.0,0.0,0.0,2.8981,2.8981,2.8981,2.8981,2.8981,2.8981,2.8981,2.8981,2.8981,2.8719,2.8552,2.8552,2.8301,2.8315,2.8546,2.8208,2.7855,2.7572,2.7475,2.7295,2.7011,2.7217,2.7123,2.6908,2.7538,2.9032,3.0688,2.8561,2.9254,3.0945,2.7827,2.6885,2.7104,2.6809,2.67,2.67,2.67,2.67,0.0,0.0,0.0,2.8357,3.2826,3.51,3.6849,3.9294,4.0833,4.1586,4.096,4.1098,4.1295,4.0962,4.091,4.0775,4.0247,4.0427,4.0636,4.0636,4.1224,4.1643,4.1643,4.2361,4.281,4.2661,4.3329,4.3938,4.4267,4.4446,4.4825,4.5514,4.5544,4.5633,4.5783,4.5084,4.4518,4.4174,4.2521,4.1444,4.1119,4.016,3.9697,3.9697,3.9697,3.9697,3.9697,3.9697,3.9697,3.9697,3.9697,3.9697,3.9697,3.9697,3.9697,3.9697,3.9697,3.9697,3.9697,3.9697,3.9697,3.9697,0.0,0.0,0.0,0.0,0.0,0.0,0.0,0.0,0.0,0.0,0.0,2.8981,2.8981,2.8981,2.8981,2.8981,2.8981,2.8981,2.8981,2.8981,2.8981,2.8981,2.8981,0.0,2.8981,2.8969,2.8964,2.8964,2.8946,2.8946,2.8952,2.8559,2.8357,2.8324,2.8024,2.7862,2.7819,2.7464,2.7295,2.7461,2.9758,3.0766,3.0896,3.0731,3.1473,3.2099,2.8115,2.7441,2.8233,2.7096,2.67,2.67,2.67,2.67,2.67,0.0,0.0,0.0,2.9166,3.0489,3.2107,3.6044,3.7495,3.8448,4.0209,0.0,4.0621,4.1239,4.1861,4.2291,4.2261,4.1733,4.1343,4.1343,4.1912,4.2351,4.2351,4.3439,4.3967,4.3339,4.4386,4.4975,4.4356,4.4885,4.5544,4.6211,4.6241,4.654,4.716,4.6011,4.4806,4.3567,4.2277,4.1019,3.9826,3.9723,3.9697,3.9697,3.9697,3.9697,3.9697,3.9697,3.9697,3.9697,3.9697,3.9697,3.9697,3.9697,3.9697,3.9697,3.9697,3.9697,3.9697,3.9697,3.9697,3.9697,0.0,0.0,0.0,0.0,0.0,0.0,0.0,0.0,0.0,0.0,0.0,0.0,0.0,2.8981,2.8981,2.8981,2.8981,2.8981,2.8981,2.8981,2.8981,2.8981,2.8981,2.8981,2.8981,2.8981,2.8981,2.8981,2.8981,2.8981,2.9018,2.8833,2.8779,2.8755,2.8168,2.7904,2.789,2.7754,2.7547,2.7515,3.0215,3.22,3.3489,3.2448,3.4071,0.0,0.0,0.0,0.0,2.9292,2.8205,2.7325,2.6869,2.67,2.6641,2.6357,2.6427,2.6983,2.8447,3.0078,3.1891,3.4224,3.6576,3.8501,3.9061,4.0154,4.1104,4.1343,4.2222,4.3,4.3,4.312,4.3269,4.3269,4.3808,4.4247,4.4247,4.4646,4.4855,4.4616,4.5005,4.5364,4.5553,4.5792,4.6211,4.6869,4.6929,4.707,4.7309,4.532,4.3975,4.3504,4.1493,4.016,3.9697,3.9697,3.9697,3.9697,3.9697,3.9697,3.9697,3.9697,3.9697,3.9697,3.9697,3.9697,3.9697,3.9697,3.9697,3.9697,3.9697,3.9697,3.9697,3.9697,3.9697,3.9697,0.0,0.0,0.0,0.0,0.0,0.0,0.0,0.0,2.8981,2.8981,0.0,0.0,0.0,0.0,2.8981,2.8981,2.8981,2.8981,2.8981,2.8981,2.8981,2.8981,2.8981,2.8981,2.8981,2.8981,2.8981,2.8981,2.8981,2.8981,2.8981,2.8981,2.8981,2.8964,2.8347,2.8079,2.8079,0.0,0.0,2.7834,0.0,3.387,3.4966,0.0,0.0,0.0,0.0,0.0,0.0,0.0,0.0,2.9828,2.8586,2.7512,2.6615,2.6131,2.6152,2.6497,2.7264,2.8496,3.0021,3.1879,3.431,3.6608,3.7781,3.9439,4.0905,4.1583,4.2761,4.3638,4.3638,4.4356,4.4895,4.4676,4.5005,4.5304,4.5304,4.5484,4.5544,4.5334,4.5693,4.6052,4.6271,4.651,4.6809,4.7279,4.7309,0.0,4.7309,4.4886,4.3122,4.2255,4.0567,3.9697,3.9697,3.9697,3.9697,3.9697,3.9697,3.9798,3.9973,3.9973,4.0074,4.0249,4.0249,4.0049,3.9697,3.9697,3.9697,3.9697,3.9697,3.9697,3.9697,3.9697,3.9697,3.9697,0.0,0.0,0.0,0.0,0.0,0.0,0.0,0.0,2.906,2.9023,0.0,0.0,0.0,0.0,0.0,2.8981,2.8981,2.8981,2.8981,2.8981,2.8981,2.8981,2.8981,2.8981,2.8981,2.8981,2.8981,2.8981,2.8981,2.8981,2.8981,2.8981,2.8981,2.8969,2.8584,2.8408,2.8383,0.0,2.7904,2.84,0.0,3.574,3.5049,0.0,0.0,0.0,3.401,3.3327,0.0,3.5347,0.0,0.0,0.0,2.9102,2.6649,2.6122,2.5626,2.5275,0.0,0.0,0.0,2.8873,0.0,0.0,3.64,0.0,3.9858,4.1901,4.3349,4.4237,4.4267,4.5373,4.6061,4.5394,4.5334,4.5364,4.5364,4.5933,4.6091,4.5424,4.6501,4.7018,4.639,4.692,4.7309,4.7309,4.7309,4.7309,4.7309,4.4886,4.2325,3.98,3.9697,3.9697,3.9697,3.9697,3.9697,3.9697,3.9722,3.9998,4.0499,4.0499,4.08,4.1302,4.1302,4.07,3.9747,3.9747,3.9747,3.9747,3.9722,3.9722,3.9722,3.9697,3.9697,3.9722,0.0,0.0,0.0,0.0,0.0,3.0855,3.0855,3.0784,3.054,0.0,0.0,0.0,2.906,2.8981,2.8981,2.8981,2.8981,2.8981,2.8981,2.8981,2.8981,2.8981,2.8981,2.8981,2.8981,2.8981,2.8981,2.8981,2.8981,2.8981,2.8981,2.8981,2.8981,2.9018,2.8893,2.8821,2.8797,2.8432,0.0,0.0,3.4227,3.6532,0.0,0.0,0.0,0.0,0.0,3.9094,3.888,0.0,3.5678,3.3119,0.0,0.0,2.7306,2.6287,2.6131,2.6066,2.4962,0.0,0.0,0.0,0.0,0.0,0.0,0.0,3.7285,3.9738,4.1265,4.2491,4.3399,4.4655,4.5514,4.5334,4.6112,4.6741,4.6741,4.692,4.6929,4.677,4.707,4.7249,4.704,4.7189,4.7309,0.0,4.7309,4.7309,4.7309,4.4886,4.2325,3.98,3.9697,3.9697,3.9697,3.9697,3.9697,3.9697,4.0099,4.0375,4.0499,4.0901,4.1177,4.1302,4.1302,4.1152,4.0851,4.0851,4.0851,4.0826,4.0424,4.03,4.0249,3.9848,3.9948,4.03,0.0,0.0,3.0561,3.1133,3.1403,3.1585,3.1585,3.1477,3.1244,0.0,0.0,0.0,2.9574,2.95,2.9354,2.9023,2.8981,2.8981,2.8981,2.8981,2.8981,2.8981,2.8981,2.8981,2.8981,2.8981,2.8981,2.8981,2.8981,2.8981,2.8981,2.8981,2.8981,2.8981,2.8981,2.884,2.8544,2.8451,0.0,0.0,3.4766,0.0,0.0,4.1303,4.3245,0.0,0.0,0.0,4.1498,4.1231,3.8328,0.0,0.0,0.0,0.0,2.6943,2.6591,2.621,2.5316,2.5478,2.5957,0.0,0.0,0.0,0.0,0.0,0.0,0.0,4.1294,4.2521,4.3519,4.4566,4.5304,4.5304,4.6202,4.6869,4.6869,4.713,4.7309,4.7309,4.7309,4.7309,4.7309,4.7309,4.7309,4.7309,4.6792,4.6054,4.4978,4.3504,4.1789,3.9774,3.9697,3.9697,3.9697,3.9697,3.9798,4.0049,4.035,4.0752,4.1204,4.153,4.1806,4.2032,4.2032,4.2032,4.2032,4.2032,4.1729,4.1277,4.0951,4.07,4.0449,4.0149,4.0249,4.0499,0.0,0.0,3.1017,3.2012,3.211,3.2004,3.2004,3.1825,3.1611,0.0,3.147,3.1133,3.0393,3.032,3.002,2.9207,2.9133,2.9097,2.9023,2.8981,2.8981,2.8981,2.8981,2.8981,2.8981,2.8981,2.8981,2.8981,2.8981,2.8981,2.8981,2.8981,2.8981,2.8981,2.8946,2.8582,2.7975,2.828,0.0,3.0485,3.5449,3.7071,0.0,0.0,4.3242,4.2792,4.286,4.2874,4.3078,4.4756,4.1745,0.0,0.0,0.0,0.0,0.0,2.7289,2.6598,2.6138,2.5702,2.5537,0.0,0.0,0.0,0.0,0.0,0.0,0.0,4.1384,4.2472,4.328,4.3988,4.4436,4.4526,4.5274,4.5942,4.6151,4.6749,4.7189,4.7189,4.7249,4.7309,4.7309,4.7309,4.7309,4.7309,4.6121,4.4279,4.1739,4.1591,4.1019,3.9749,3.9697,3.9697,3.9697,3.9747,4.0023,4.0499,4.0651,4.1204,4.2213,4.2235,4.2537,4.3014,4.3014,4.3014,4.3014,4.3014,4.2409,4.1478,4.1428,4.1102,4.0701,4.06,4.0625,4.0701,3.0405,3.0946,3.1573,3.2661,3.3136,3.3421,3.3421,3.3369,3.3109,3.2442,3.1788,3.1354,3.117,3.117,3.084,3.0057,2.9983,2.969,2.9023,2.8981,2.8981,2.8981,2.8981,2.8981,2.8981,2.8981,2.8981,2.8981,2.8981,2.8981,2.8981,2.8981,2.8981,2.8975,2.8645,2.8451,2.8295,2.8373,0.0,3.3238,3.6087,0.0,3.889,4.4565,4.6315,4.5837,4.6431,4.6335,4.5616,4.3639,4.1779,3.9614,0.0,0.0,0.0,0.0,0.0,0.0,0.0,0.0,0.0,0.0,0.0,0.0,0.0,2.9864,3.0911,0.0,3.4861,3.5938,3.7704,3.8542,3.911,3.9667,4.1673,4.3708,4.5274,4.6061,4.651,4.651,4.6958,4.7309,4.7309,4.7309,4.7309,4.7309,4.6121,4.4279,4.1739,4.1591,4.1019,3.9749,3.9697,3.9697,3.9697,4.0149,4.04,4.0499,4.1431,4.1984,4.2213,4.2637,4.2914,4.3014,4.3014,4.3014,4.3014,4.3014,4.2889,4.261,4.2185,4.1959,4.1808,4.1302,4.1455,4.1858,3.0741,3.1305,3.2023,3.3365,3.3959,3.4183,3.4012,3.3993,3.3967,3.3814,3.38,3.352,3.2675,3.2602,3.2125,3.0907,3.0803,3.0467,2.9647,2.9616,2.9427,2.9018,2.8981,2.8981,2.8981,2.8981,2.8981,2.8981,2.8981,2.8981,2.8981,2.8981,2.8981,2.8975,2.8785,2.87,2.8691,0.0,3.0827,3.4418,3.7357,0.0,4.107,4.6222,4.7574,4.6802,4.7526,4.7603,4.7124,4.5602,4.3118,0.0,0.0,3.7968,3.6039,0.0,3.1708,3.16,0.0,0.0,0.0,2.7061,0.0,0.0,0.0,0.0,3.0687,3.3006,3.4023,3.5011,3.6656,3.7195,3.7614,3.829,4.0355,4.1882,4.1863,4.4416,4.63,0.0,0.0,0.0,4.6749,4.6779,4.6661,4.6388,4.5161,4.3622,4.169,4.0994,4.0364,3.9723,3.9697,3.9823,4.0099,4.0375,4.0802,4.1329,4.1909,4.2336,4.2612,4.2889,4.3014,4.3014,4.3014,4.3014,4.3014,4.3014,4.3014,4.2989,4.2688,4.2464,4.2162,4.1856,4.1934,4.2213,3.1272,3.1717,3.2409,3.4025,3.4475,3.4556,3.4458,3.4401,3.4556,3.5186,3.5926,3.5864,3.4509,3.4705,3.4283,3.2662,3.2748,3.2373,3.1071,3.0956,3.0387,2.928,2.9244,2.917,2.8981,2.8981,2.8981,2.8981,2.8981,2.8981,2.8981,2.8981,2.8952,2.8893,2.9558,2.9469,0.0,0.0,0.0,3.5826,0.0,4.1356,4.3306,4.7279,4.832,4.7733,4.8326,4.836,4.8056,4.7785,4.4776,4.1461,4.3044,4.0472,0.0,0.0,0.0,0.0,0.0,0.0,0.0,0.0,0.0,2.6512,0.0,0.0,0.0,0.0,0.0,0.0,0.0,0.0,0.0,0.0,0.0,0.0,0.0,0.0,0.0,0.0,0.0,0.0,4.5912,4.5832,4.5646,4.523,4.3691,4.2445,4.164,4.0389,3.9697,3.9697,3.9798,4.0074,4.0501,4.0727,4.1306,4.2213,4.2286,4.2587,4.3014,4.3014,4.3014,4.3014,4.3014,4.3014,4.3014,4.3014,4.3014,4.3014,4.3014,4.2738,4.2336,4.2336,4.2336,4.2336,3.1909,3.2128,3.2679,3.4365,3.4442,3.4496,3.5249,3.509,3.52,3.6053,3.6455,3.6583,3.6397,3.7956,3.8346,3.6691,0.0,0.0,3.4114,3.3586,3.2412,3.0167,3.0063,2.9726,2.9018,2.8981,2.8981,2.8981,2.8981,2.8981,2.8981,2.8981,2.8797,2.8591,3.1517,0.0,0.0,0.0,3.6495,0.0,4.1279,4.3354,0.0,4.7921,4.959,5.0694,5.0795,4.9984,4.868,0.0,4.6109,4.4437,0.0,4.23,4.3856,0.0,0.0,0.0,0.0,0.0,0.0,0.0,2.7003,0.0,0.0,0.0,0.0,0.0,0.0,0.0,0.0,0.0,0.0,0.0,0.0,0.0,0.0,0.0,0.0,0.0,0.0,0.0,0.0,4.4213,4.4094,4.4407,4.1866,4.0699,4.1538,4.0389,3.9697,3.9697,4.0174,4.045,4.0499,4.1507,4.206,4.2213,4.2688,4.2939,4.3014,4.3014,4.3014,4.3014,4.3014,4.3014,4.3014,4.3014,4.3014,4.3014,4.3014,4.2964,4.2914,4.2914,4.2914,4.2914,3.1747,3.2222,3.304,3.4201,3.4464,3.4736,3.5416,3.6024,3.6567,3.6934,3.7514,3.7687,3.7214,0.0,0.0,0.0,0.0,3.8187,0.0,0.0,3.4174,3.1708,3.1164,3.0503,2.9726,2.969,2.9464,2.8981,2.8981,2.8981,2.8981,2.8761,2.8559,2.857,3.2336,0.0,3.1744,0.0,3.837,0.0,0.0,0.0,0.0,4.9014,4.9958,5.0608,5.1032,5.0795,5.0186,0.0,4.7428,0.0,0.0,0.0,0.0,0.0,0.0,0.0,0.0,0.0,0.0,0.0,0.0,0.0,2.8006,0.0,2.7675,0.0,0.0,0.0,0.0,0.0,0.0,0.0,0.0,0.0,0.0,0.0,0.0,0.0,0.0,0.0,0.0,0.0,0.0,0.0,4.157,4.0507,4.1988,4.0568,3.9697,3.9697,4.0224,4.065,4.0976,4.1808,4.2336,4.2663,4.2889,4.3014,4.3014,4.3014,4.3014,4.3014,4.3014,4.3014,4.3014,4.3014,4.3014,4.3014,4.3014,4.3014,4.3014,4.3014,4.3014,4.3014,3.2119,3.2681,3.3587,3.441,3.47,3.5037,3.5701,3.6978,3.7815,3.7815,3.8604,0.0,3.8346,3.9479,0.0,0.0,4.1134,4.0807,0.0,0.0,3.6523,3.4064,3.2749,0.0,3.1525,3.087,3.013,2.9317,2.9234,2.9125,2.8975,2.87,2.8562,2.8741,3.2816,3.4392,3.4187,0.0,4.0311,4.3427,4.3305,4.5432,4.8877,5.0392,5.0837,5.0811,5.1539,5.1674,5.1438,5.1032,4.8612,0.0,4.8492,0.0,0.0,0.0,0.0,0.0,3.589,0.0,0.0,0.0,0.0,0.0,0.0,0.0,0.0,0.0,0.0,0.0,0.0,0.0,0.0,0.0,0.0,0.0,0.0,0.0,0.0,0.0,0.0,0.0,0.0,0.0,0.0,0.0,0.0,4.0223,4.2281,4.0824,3.9923,3.9923,4.045,4.0976,4.1528,4.2135,4.2612,4.3014,4.3014,4.3014,4.3014,4.3014,4.3014,4.3014,4.3014,4.3014,4.3014,4.3014,4.3014,4.3014,4.3014,4.3014,4.3014,4.3014,4.3014,4.3014,3.3379,3.3767,3.4445,3.5322,3.5242,3.5429,3.6497,3.7814,3.8652,3.8652,0.0,0.0,0.0,0.0,0.0,0.0,0.0,4.7059,4.1805,0.0,3.9863,3.7456,3.5025,3.4094,0.0,3.2559,3.0987,3.0167,2.979,2.9384,2.9006,2.8974,2.8987,2.9164,3.3114,3.473,3.475,3.9065,4.3074,4.6477,4.586,4.6534,4.8326,0.0,5.2891,5.2334,5.3145,0.0,0.0,5.0608,4.956,0.0,0.0,0.0,0.0,0.0,0.0,0.0,0.0,0.0,0.0,3.251,0.0,0.0,0.0,0.0,2.8577,0.0,0.0,0.0,0.0,0.0,0.0,0.0,0.0,0.0,0.0,0.0,0.0,0.0,0.0,0.0,0.0,0.0,0.0,0.0,0.0,0.0,4.2228,4.1182,4.0474,4.0474,4.1001,4.1553,4.2187,4.2713,4.2989,4.3014,4.3014,4.3014,4.3014,4.3014,4.3014,4.3014,4.3014,4.3014,4.3014,4.3014,4.3014,4.3014,4.3014,4.3014,4.3014,4.3014,4.3014,4.3014,3.4795,3.4775,3.4842,3.4961,3.5206,3.5777,3.7036,3.8066,0.0,0.0,4.1814,0.0,0.0,4.6094,4.7063,0.0,0.0,4.7536,4.462,4.3832,0.0,0.0,0.0,3.6384,0.0,3.4254,3.2596,3.1782,3.0576,2.9776,2.9401,2.9112,2.8858,2.8805,3.3844,3.6843,0.0,0.0,0.0,0.0,0.0,4.7447,5.022,0.0,0.0,5.1082,5.2875,5.3348,0.0,5.2503,5.1183,4.9796,5.0304,4.8951,4.7259,4.7733,4.7075,4.5639,0.0,0.0,4.346,3.6848,0.0,0.0,0.0,0.0,0.0,0.0,0.0,0.0,0.0,0.0,0.0,0.0,0.0,0.0,0.0,0.0,0.0,0.0,0.0,0.0,0.0,0.0,0.0,0.0,0.0,0.0,0.0,4.1469,4.1026,4.1026,4.158,4.1984,4.2213,4.2738,4.3014,4.3014,4.3014,4.3014,4.3014,4.3014,4.3014,4.3014,4.3014,4.3014,4.3014,4.3014,4.3014,4.3014,4.3014,4.3014,4.3014,4.3014,4.3014,4.3065,3.5885,3.5787,3.559,3.5306,3.5874,3.6643,3.7525,0.0,0.0,0.0,4.3297,0.0,4.6915,0.0,4.8551,0.0,4.9603,4.8698,4.6085,4.5948,0.0,4.2902,4.0789,0.0,0.0,0.0,3.5165,3.4357,3.2124,3.0706,3.0006,2.9593,2.9318,2.9358,3.3344,3.6928,4.0146,4.2651,4.5732,0.0,0.0,4.8308,0.0,0.0,5.0439,5.0777,0.0,5.3721,5.3518,5.3518,5.2536,5.1488,5.2435,5.0913,4.8984,5.0236,4.9411,4.792,4.7151,4.7994,0.0,4.162,4.1245,0.0,3.4569,0.0,0.0,0.0,0.0,0.0,0.0,0.0,0.0,0.0,0.0,0.0,0.0,0.0,0.0,0.0,0.0,0.0,0.0,0.0,0.0,0.0,0.0,0.0,0.0,0.0,4.163,4.163,4.2009,4.2313,4.2462,4.2838,4.3014,4.3014,4.3014,4.3014,4.3014,4.3014,4.3014,4.3014,4.3014,4.3014,4.3014,4.3014,4.3014,4.3014,4.3014,4.314,4.3237,4.309,4.314,4.3338,3.6605,3.674,3.6696,3.6452,3.7226,3.791,3.8008,0.0,4.0888,0.0,4.4164,4.5877,4.7316,4.9915,5.111,4.9956,5.163,5.0916,4.6544,4.7682,0.0,0.0,4.4607,4.4819,4.7186,0.0,0.0,0.0,3.4319,3.2045,3.0865,3.0352,3.0283,3.0645,3.1827,0.0,4.0129,4.1602,4.5635,5.0897,4.9526,4.8984,4.9018,4.912,5.0017,5.1472,5.3721,5.4093,5.3518,5.3518,5.3518,5.3518,5.3518,5.2976,5.2503,5.3281,5.2976,5.2266,5.1505,5.039,4.8878,4.6526,4.417,0.0,0.0,0.0,3.528,0.0,0.0,0.0,0.0,0.0,0.0,0.0,0.0,0.0,0.0,0.0,0.0,0.0,0.0,0.0,0.0,0.0,0.0,0.0,0.0,0.0,0.0,0.0,4.2217,4.2238,4.2263,4.2487,4.2989,4.3014,4.3014,4.3014,4.3014,4.3014,4.3014,4.3014,4.3014,4.3014,4.3014,4.3014,4.3014,4.3014,4.3014,4.3039,4.3039,4.3363,4.379,4.3291,4.3413,4.3966,3.7292,3.747,3.7703,3.8042,3.7975,3.8245,0.0,0.0,0.0,0.0,4.6821,4.8533,5.2203,5.3493,5.3963,5.3654,5.4371,0.0,0.0,0.0,0.0,4.9627,4.7939,4.7645,4.894,4.3379,0.0,4.1075,3.567,3.2722,3.2117,3.1003,3.0377,3.0302,3.2256,3.5384,3.9317,4.0861,4.4268,4.8698,4.8326,4.8496,4.9187,0.0,5.1336,5.1438,5.3179,5.3653,5.3518,5.3518,5.3518,5.3518,5.3518,5.3382,5.3247,5.345,5.3754,5.3856,5.3112,5.3467,5.3004,4.8765,4.7652,4.6484,0.0,0.0,0.0,0.0,0.0,0.0,0.0,0.0,0.0,0.0,0.0,0.0,0.0,0.0,0.0,0.0,0.0,0.0,0.0,0.0,0.0,0.0,0.0,0.0,0.0,0.0,0.0,4.2791,4.2788,4.2864,4.3014,4.3014,4.3014,4.3014,4.3014,4.3014,4.3014,4.3014,4.3014,4.3014,4.3014,4.3014,4.3014,4.3014,4.324,4.3589,4.3589,4.3915,4.4364,4.4242,4.4568,4.507,3.7841,0.0,0.0,3.9867,0.0,0.0,4.16,4.1399,0.0,4.7213,4.8389,0.0,5.3066,5.4527,5.5266,5.5266,5.5475,0.0,5.3324,0.0,0.0,5.193,5.1279,5.1206,5.1693,4.7535,0.0,4.3351,0.0,3.5048,3.3045,3.1574,3.0922,3.1133,3.2713,3.5468,3.9181,4.2994,4.6061,4.8428,4.907,4.9781,0.0,5.1488,5.2198,5.2773,5.3315,5.3518,5.3518,5.3518,5.3518,5.3518,5.3518,5.3518,5.3518,5.3518,5.3788,5.4093,5.4025,5.46,5.4577,5.1788,5.0719,4.9445,4.5827,4.4317,4.3289,0.0,4.1444,4.0745,0.0,0.0,0.0,0.0,0.0,0.0,0.0,0.0,0.0,0.0,0.0,0.0,0.0,0.0,0.0,0.0,0.0,0.0,0.0,0.0,0.0,4.3494,4.3069,4.3162,4.3879,4.2562,4.2258,4.3014,4.3014,4.3014,4.3014,4.3014,4.314,4.3338,4.3338,4.3463,4.3689,4.3689,4.389,4.4192,4.4443,4.4719,4.502,4.5242,4.5422,4.5522,0.0,0.0,0.0,0.0,0.0,0.0,0.0,4.4177,0.0,4.7922,0.0,5.1009,5.2322,5.4447,5.5768,5.5768,0.0,5.5317,5.3911,5.5133,5.5244,5.3728,5.4326,5.473,5.473,5.2234,0.0,0.0,0.0,3.7901,3.4005,3.2279,3.1843,3.2496,3.3322,0.0,0.0,4.5906,4.8646,4.912,5.0592,5.1573,5.2131,5.1776,5.2875,5.4516,5.3856,5.3585,5.3518,5.3518,5.3518,5.3518,5.3518,5.3518,5.3518,5.3518,5.3518,5.3653,5.4262,5.4413,5.4376,5.4203,5.2782,5.0912,4.8961,4.7103,4.5484,4.4326,4.3678,4.3039,0.0,0.0,0.0,0.0,0.0,0.0,0.0,0.0,0.0,0.0,0.0,0.0,0.0,0.0,0.0,0.0,0.0,0.0,0.0,0.0,0.0,4.4305,4.3587,4.3592,4.4411,0.0,4.1618,4.2688,4.2989,4.3115,4.3115,4.319,4.3463,4.3915,4.3915,4.4192,4.4589,4.4589,4.464,4.4765,4.5372,4.5598,4.5648,4.6125,4.5999,4.5673,0.0,0.0,0.0,0.0,0.0,4.6398,4.8758,4.8451,4.871,5.0974,5.2063,5.3235,5.4788,5.5941,5.6602,5.6602,5.7189,0.0,0.0,0.0,0.0,5.6223,5.6297,5.637,5.637,5.3371,5.0545,0.0,0.0,3.908,3.5869,3.3939,3.3085,3.3254,3.4596,0.0,4.2746,4.4587,0.0,4.912,5.0592,5.1269,5.1573,5.3348,5.4262,5.4583,5.4431,5.4025,5.3518,5.3518,5.3518,5.3518,5.3518,5.3518,5.3518,5.3518,5.3518,5.3551,5.3653,5.3506,5.3049,5.2188,5.149,5.0682,4.9422,4.8846,4.8528,4.8289,4.8169,4.754,4.5762,0.0,0.0,0.0,0.0,0.0,0.0,0.0,0.0,0.0,0.0,0.0,0.0,0.0,0.0,0.0,0.0,0.0,0.0,0.0,0.0,0.0,4.5831,0.0,0.0,0.0,4.3119,4.0978,4.2785,4.3664,4.3664,4.4141,4.4364,4.4439,4.4439,4.4514,4.4589,4.4589,4.4865,4.5397,4.5949,4.6175,4.6175,4.6276,4.625,4.6175,0.0,0.0,0.0,0.0,0.0,0.0,0.0,5.267,5.3265,5.2981,5.3439,5.4106,5.4887,5.6455,5.7409,5.7409,5.7776,5.7997,5.7997,5.7997,5.7813,5.7446,5.7409,5.7226,5.6811,5.5684,5.2935,4.8508,0.0,4.1526,3.6835,3.4874,3.4167,3.4698,3.8113,4.1292,0.0,0.0,0.0,5.142,5.2114,5.2858,5.3602,5.4329,5.4837,5.5175,5.5175,5.4921,5.4515,5.3754,5.3518,5.3518,5.3518,5.3518,5.3518,5.3518,5.3518,5.3518,5.3518,5.2982,5.2306,5.1787,5.0739,4.9769,4.9594,4.9159,4.8887,4.9239,4.9546,4.9164,4.7168,4.3878,0.0,0.0,0.0,0.0,0.0,0.0,0.0,0.0,0.0,0.0,0.0,0.0,0.0,0.0,0.0,0.0,0.0,0.0,0.0,0.0,0.0,0.0,0.0,0.0,0.0,4.3296,4.3652,4.394,4.4213,4.4464,4.4765,4.507,4.507,4.5246,4.5468,4.5468,4.5673,4.5949,4.62,4.6301,4.6301,4.6301,4.6301,4.6301,0.0,4.424,0.0,0.0,5.0315,5.1954,5.3251,5.5792,5.679,5.4694,5.4849,5.517,5.517,5.6859,5.7997,5.7997,5.7997,5.7997,5.7997,5.7997,5.7997,5.7997,5.7997,5.7703,5.7068,5.785,5.5445,0.0,0.0,0.0,3.8327,3.6215,3.5949,3.7425,0.0,0.0,0.0,0.0,5.2486,5.4194,5.4025,5.4651,5.5665,5.5243,5.5446,5.5936,5.5936,5.5936,5.5733,5.4414,5.3974,5.3974,5.3974,5.3974,5.3957,5.3788,5.3856,5.3923,5.3788,5.3182,5.2558,5.2286,5.0841,4.9584,4.9999,4.9356,4.8895,4.9576,5.0092,4.983,4.7878,4.5792,0.0,0.0,0.0,0.0,0.0,0.0,0.0,0.0,0.0,0.0,0.0,0.0,0.0,0.0,0.0,0.0,0.0,0.0,0.0,0.0,0.0,4.7236,4.7586,0.0,4.4171,4.5337,4.4421,4.4267,4.4765,4.4765,4.5121,4.5648,4.5397,4.5623,4.615,4.625,4.6301,4.6301,4.6301,4.6301,4.6301,4.6301,4.6301,4.6301,0.0,0.0,0.0,0.0,0.0,5.2479,5.4043,5.6353,5.7599,5.6632,5.7186,5.7666,5.7666,5.785,5.7997,5.7997,5.7997,5.7997,5.7997,5.7997,5.7997,5.7997,5.7997,5.796,5.7886,5.8682,5.7446,0.0,0.0,4.6495,4.1856,3.895,3.9398,4.2679,0.0,0.0,0.0,5.2334,5.3856,5.6427,5.5767,5.5564,5.5767,5.6393,5.663,5.6697,5.6697,5.6697,5.6562,5.5767,5.5496,5.5496,5.5496,5.5496,5.5361,5.4702,5.4972,5.5361,5.4668,5.4722,5.4733,5.364,5.2523,5.1611,5.1166,5.0527,5.0219,5.0877,5.1056,5.0488,4.8566,4.7997,4.704,0.0,0.0,0.0,0.0,0.0,0.0,0.0,0.0,0.0,0.0,0.0,0.0,0.0,0.0,0.0,0.0,0.0,0.0,4.6322,0.0,4.6304,4.2463,4.5249,4.5638,4.3648,4.4242,4.4844,4.5422,4.5422,4.5698,4.6175,4.5116,4.502,4.5598,4.61,4.6301,4.6301,4.6301,4.6301,4.6301,4.6301,4.6301,4.6301,5.0288,4.9994,5.0435,5.3198,0.0,5.4704,5.6308,5.7373,5.7886,5.7556,5.7813,5.7997,5.7997,5.7997,5.7997,5.7997,5.7997,5.7997,5.7997,5.7997,5.7997,5.7997,5.7997,5.7997,5.7997,5.8792,5.7892,0.0,0.0,0.0,4.4894,4.2842,4.3436,4.6196,4.8462,5.098,5.3585,5.4566,5.5953,5.734,5.6172,5.6511,5.766,5.7509,5.8017,5.8795,5.8795,5.8795,5.8727,5.8457,5.7476,5.6341,5.6341,5.6664,5.6968,5.6664,5.6799,5.6968,5.6681,5.5757,5.4746,5.4276,5.2847,5.1486,5.1233,5.0996,5.0877,5.1146,5.1206,5.0966,5.0182,4.9075,4.8207,4.7886,0.0,0.0,0.0,0.0,0.0,0.0,0.0,0.0,0.0,0.0,0.0,0.0,0.0,0.0,0.0,0.0,0.0,4.563,0.0,4.8823,4.6298,4.8072,4.8844,4.8529,4.7121,4.6746,4.7286,4.6366,4.5924,4.5799,4.5347,4.5271,4.5522,4.6075,4.6301,4.6301,4.6301,4.6301,4.6301,4.6301,4.6301,4.6301,5.2868,5.2674,5.3188,5.5842,5.5915,5.6209,5.807,5.8364,5.8437,5.8657,5.8694,5.8547,5.8033,5.7997,5.7997,5.7997,5.7997,5.7997,5.7997,5.7997,5.7997,5.7997,5.7997,0.0,5.7997,5.9013,5.8731,5.7017,5.4117,0.0,4.8637,4.6329,4.6786,4.9645,5.2334,5.3991,5.4905,5.6461,5.7543,5.8118,5.7085,5.7728,5.9268,5.8761,5.9201,6.0114,6.0114,6.0114,6.0114,6.0114,5.9235,5.8084,5.7848,5.8118,5.849,5.8287,5.8389,5.849,5.8287,5.7171,5.5958,5.5601,5.4046,5.2571,5.2408,5.2223,5.2073,5.2073,5.1947,5.1738,5.1528,5.0361,4.9553,4.986,0.0,0.0,0.0,0.0,0.0,0.0,0.0,0.0,0.0,0.0,0.0,0.0,0.0,0.0,0.0,0.0,0.0,0.0,0.0,0.0,0.0,5.0053,5.0972,5.196,4.9502,4.8326,4.821,4.656,4.5522,4.502,4.5347,4.5497,4.5522,4.6075,4.6301,4.6301,4.6301,4.6301,4.6301,4.6301,4.6301,4.6301,5.5254,5.4289,5.4205,5.7409,5.665,5.6418,5.8829,5.9196,5.949,6.0272,6.0382,5.9758,5.818,5.7997,5.7997,5.7997,5.7997,5.7997,5.7997,5.7997,5.7997,0.0,0.0,5.7997,5.7997,5.9575,6.0382,6.0346,0.0,0.0,5.3487,4.8933,4.9154,5.345,5.3484,5.5108,5.7866,5.79,5.8321,5.8979,5.8979,5.9404,6.008,6.008,6.008,6.0114,6.0114,6.0114,6.0114,6.0114,6.0622,6.1129,6.0317,6.008,5.9945,5.9182,5.9505,5.9911,5.9182,5.919,5.9142,5.7956,5.6806,5.5793,5.527,5.464,5.4162,5.4162,5.3623,5.2989,5.2306,5.2157,5.1528,4.9606,0.0,0.0,0.0,0.0,0.0,0.0,4.6522,4.5783,4.713,0.0,0.0,0.0,0.0,0.0,0.0,0.0,0.0,4.8199,4.8947,0.0,4.9277,5.0486,5.1405,5.196,5.0557,4.9117,4.7632,4.554,4.4313,4.389,4.4995,4.5497,4.5522,4.6075,4.6301,4.6301,4.6301,4.6301,4.6301,4.6301,4.6301,4.6301,5.8657,5.8474,5.8425,5.9465,5.9208,5.9134,5.9893,6.0003,6.0114,6.0382,6.0419,6.0187,5.9685,5.9648,5.9428,0.0,5.8829,5.8584,0.0,5.7997,5.8253,5.8792,5.8829,5.9086,5.9612,6.0676,6.1227,6.1227,0.0,0.0,5.5109,5.3625,5.4199,5.6494,5.6494,5.7306,5.866,5.866,5.9099,5.9742,5.9742,6.0216,6.0926,6.0926,6.1231,6.167,6.167,6.167,6.167,6.167,6.1839,6.2009,6.1738,6.167,6.1603,6.14,6.1467,6.1447,6.0378,5.958,5.8727,5.7507,5.6324,5.5404,5.522,5.5029,5.488,5.488,5.4341,5.3683,5.3019,5.2516,5.1858,5.078,5.096,0.0,5.0661,0.0,0.0,0.0,4.4517,4.4008,0.0,4.3589,0.0,0.0,0.0,0.0,0.0,0.0,0.0,0.0,4.9523,0.0,4.992,5.2105,5.3537,5.4162,5.2699,5.0489,4.7661,4.702,4.5856,4.4392,4.5171,4.5497,4.5522,4.6075,4.6301,4.6301,4.6301,4.6301,4.6301,4.6301,4.6301,4.6301,6.0297,6.0419,6.0419,6.0419,6.0419,6.0493,6.0786,6.086,6.097,6.1251,6.1288,6.1288,6.1288,6.1288,6.0848,5.9747,5.9636,5.9453,5.8914,5.8914,5.9134,5.9636,5.9636,5.9893,6.037,6.119,0.0,6.1606,5.9924,5.8541,5.748,5.7169,5.7636,5.8727,5.8727,5.8964,5.9419,5.9419,5.9844,6.0554,6.0554,6.1028,6.1704,6.1704,6.2009,6.24,6.24,6.24,6.24,6.24,6.24,6.24,6.24,6.24,6.24,6.24,6.24,6.2243,6.146,6.0395,5.9192,5.7993,5.6783,5.5745,5.5305,5.5179,5.5179,5.5179,5.485,5.4281,5.3378,5.2869,5.2366,5.1654,5.1588,5.1385,5.0907,0.0,0.0,0.0,0.0,0.0,0.0,4.5475,4.5415,0.0,0.0,0.0,0.0,0.0,0.0,4.7878,5.093,0.0,5.1714,5.3359,5.4551,5.5154,5.2917,5.0948,4.9282,4.7395,4.624,4.5761,4.5586,4.5598,4.5824,4.6175,4.6301,4.6301,4.6301,4.6301,4.6301,4.6301,4.6301,4.6301,6.0566,6.0566,6.0566,6.0566,6.0566,6.0823,6.1557,6.1679,6.1961,6.2683,6.2793,6.2793,6.2793,6.2793,6.2205,6.0713,6.0529,6.0456,6.0419,6.0419,6.0407,6.0493,6.0529,6.0603,6.0676,6.1447,6.1851,6.1851,6.1035,6.0567,6.0461,5.9581,5.9494,6.0114,6.0114,6.0148,6.0182,6.0182,6.0655,6.1366,6.1366,6.1772,6.24,6.24,6.24,6.24,6.24,6.24,6.24,6.24,6.24,6.24,6.24,6.24,6.24,6.24,6.24,6.2381,6.2302,6.146,6.0289,5.8992,5.7761,5.659,5.5451,5.5179,5.5179,5.5179,5.5179,5.482,5.3588,5.3318,5.3079,5.2426,5.2187,5.1648,5.0398,5.0076,4.9321,0.0,0.0,0.0,0.0,4.8798,4.9164,0.0,0.0,0.0,0.0,0.0,4.7668,5.2127,5.2929,5.3563,5.4192,5.4221,5.4491,5.5004,5.1713,5.0793,5.1871,4.7221,4.6108,4.7774,4.6324,4.6002,4.6451,4.6331,4.6301,4.6301,4.6301,4.6301,4.6301,4.6301,4.6301,4.6301,6.2095,6.2242,6.2242,6.2242,6.2242,6.2316,6.2499,6.2499,6.2572,6.2793,6.2793,6.2793,6.2793,6.2793,6.2646,6.2279,6.1667,6.1043,6.0456,6.0419,6.0676,6.13,6.1912,6.2548,6.3209,6.4016,6.4407,6.4407,6.3506,6.2735,6.211,6.1242,6.0581,6.0114,6.0114,6.0452,6.1028,6.1028,6.1467,6.2144,6.2144,6.2245,6.24,6.24,6.24,6.24,6.24,6.24,6.24,6.24,6.24,6.24,6.24,6.24,6.24,6.24,6.24,6.2223,6.1296,6.0828,6.0097,5.7969,5.6517,5.5551,5.5255,5.5179,5.5179,5.5179,5.5179,5.5089,5.479,5.4311,5.3922,5.3773,5.2013,5.0578,5.0226,4.8933,4.7818,0.0,4.716,4.7826,4.98,4.983,4.9949,0.0,0.0,0.0,0.0,4.965,5.0249,5.2899,5.3593,5.4042,5.4221,5.4221,5.4012,5.3653,5.2827,5.2029,5.1289,5.0564,4.9934,4.931,4.825,4.7847,4.7889,4.6755,4.6301,4.6301,4.6301,4.6301,4.6301,4.6301,4.6301,4.6301,6.2719,6.2793,6.2793,6.2793,6.2793,6.2793,6.2793,6.2793,6.2793,6.2793,6.2793,6.2793,6.2793,6.2793,6.2976,6.3356,6.2622,6.2144,6.2108,6.2071,6.2438,6.3246,6.371,6.415,6.464,6.5068,6.5094,6.4649,6.3387,6.2698,6.2588,6.1738,6.1282,6.1129,6.1129,6.14,6.1806,6.1806,6.2009,6.24,6.24,6.24,6.24,6.24,6.24,6.24,6.24,6.24,6.24,6.24,6.24,6.24,6.24,6.24,6.24,6.24,6.24,6.2263,6.1615,6.1419,6.0849,5.8451,5.6493,5.5179,5.5179,5.5179,5.5179,5.5179,5.5179,5.5089,5.479,5.4461,5.4102,5.3773,5.2013,5.0548,5.0226,4.8783,4.8087,4.8985,4.8813,4.9531,5.1804,5.1744,5.1565,5.1565,5.1864,0.0,5.2043,5.2312,5.2845,5.3623,5.4012,5.4371,5.464,5.467,5.4311,5.3653,5.3271,5.3061,5.2934,5.1904,5.1354,5.1248,5.002,4.9137,4.8445,4.7652,4.6934,4.6301,4.6301,4.6301,4.6301,4.6301,4.6301,4.6301,6.2793,6.2793,6.2793,6.2793,6.2793,6.2793,6.2793,6.2793,6.2793,6.2793,6.2793,6.2793,6.2793,6.2903,6.3282,6.4029,6.3539,6.349,6.4237,6.4273,6.4604,6.5251,6.5398,6.5472,6.5472,6.5477,6.5077,6.4267,6.2598,6.2072,6.266,6.1858,6.1806,6.24,6.24,6.24,6.24,6.24,6.24,6.24,6.24,6.24,6.24,6.24,6.24,6.24,6.24,6.24,6.24,6.24,6.24,6.24,6.24,6.24,6.24,6.24,6.24,6.24,6.24,6.213,6.1358,5.9302,5.6998,5.5179,5.5179,5.5179,5.5179,5.5179,5.5179,5.5029,5.4461,5.4371,5.4072,5.3198,5.1858,5.0697,5.0159,4.9134,4.9164,5.1116,5.1116,5.1864,5.4132,5.3832,5.3498,5.3498,5.4012,5.4371,5.4371,5.488,5.494,5.4371,5.4371,5.4581,5.5029,5.5029,5.47,5.4047,5.3356,5.3755,5.4954,5.2419,5.1993,5.3256,5.1727,5.0324,4.9165,4.8908,4.7948,4.6606,4.6606,4.6511,4.6301,4.6301,4.6301,4.6301,6.2793,6.2793,6.2793,6.2793,6.2793,6.2793,6.2793,6.2793,6.2793,6.2793,6.2793,6.2793,6.2793,6.3466,6.3956,6.4103,6.4604,6.4958,6.5105,6.5105,6.5178,6.5288,6.5962,6.6329,6.6329,6.6262,6.6162,6.6007,6.4212,6.3389,6.351,6.2627,6.2299,6.24,6.24,6.24,6.24,6.24,6.24,6.24,6.24,6.24,6.24,6.24,6.24,6.24,6.24,6.24,6.24,6.24,6.24,6.24,6.24,6.24,6.24,6.24,6.24,6.24,6.24,6.0912,5.928,5.8902,5.6998,5.5179,5.5179,5.5179,5.5179,5.5179,5.5179,5.5149,5.5059,5.5029,5.4431,5.2636,5.0803,4.9546,4.9456,4.9277,4.9875,5.1828,5.3443,5.4581,5.4999,5.494,5.488,5.488,5.497,5.5029,5.5029,5.5119,5.5149,5.5029,5.5029,5.482,5.4371,5.4371,5.4012,5.3348,5.3217,5.3575,5.4346,5.3861,5.4107,5.4769,5.3279,5.2509,5.2187,5.0906,4.948,4.8181,4.8181,4.7387,4.6301,4.6301,4.6301,4.6301,6.2793,6.2793,6.2793,6.2793,6.2793,6.2793,6.2793,6.2793,6.2793,6.2793,6.3196,6.3503,6.3503,6.4237,6.4934,6.5338,6.5742,6.6145,6.6549,6.6182,6.6145,6.6549,6.6953,6.7136,6.7136,6.6136,6.5889,6.6404,6.4113,6.3221,6.3683,6.2798,6.24,6.24,6.24,6.24,6.24,6.24,6.24,6.24,6.24,6.24,6.24,6.24,6.24,6.24,6.24,6.24,6.24,6.24,6.24,6.24,6.24,6.24,6.24,6.24,6.24,6.2263,6.1615,6.0161,5.8632,5.7993,5.6493,5.5179,5.5179,5.5179,5.5179,5.5179,5.5179,5.5179,5.5179,5.5179,5.4521,5.2516,5.1439,5.0744,5.0361,5.0331,5.105,5.3054,5.4102,5.479,5.5149,5.5179,5.5179,5.5179,5.5179,5.5179,5.5179,5.5179,5.5179,5.5179,5.5179,5.5029,5.473,5.473,5.4581,5.4306,5.4306,5.4431,5.473,5.473,5.491,5.5154,5.4483,5.3756,5.2936,5.2213,5.1044,4.9621,4.882,4.8094,4.7387,4.6601,4.6301,4.6301,6.2793,6.2793,6.2793,6.2793,6.2793,6.2793,6.2793,6.2793,6.2866,6.3086,6.3686,6.4176,6.4347,6.5118,6.5852,6.6439,6.6659,6.7026,6.7664,6.71,6.704,6.7664,6.77,6.77,6.77,6.615,6.5665,6.6404,6.3917,6.303,6.3683,6.2798,6.24,6.24,6.24,6.24,6.24,6.24,6.24,6.24,6.24,6.24,6.24,6.24,6.24,6.24,6.24,6.24,6.24,6.24,6.24,6.24,6.24,6.24,6.24,6.24,6.24,6.213,6.0933,5.9719,5.8519,5.7292,5.6085,5.5179,5.5179,5.5179,5.5179,5.5179,5.5179,5.5179,5.5179,5.5179,5.4521,5.2516,5.2187,5.2037,5.1475,5.1415,5.2163,5.4192,5.4431,5.464,5.5149,5.5179,5.5179,5.5179,5.5179,5.5179,5.5179,5.5179,5.5179,5.5179,5.5179,5.5179,5.5179,5.5179,5.5179,5.5179,5.5179,5.5179,5.5179,5.5179,5.5179,5.5179,5.5179,5.4564,5.3518,5.3518,5.2615,5.1126,4.9988,4.9108,4.8358,4.7235,4.6677,4.6502,6.2793,6.2793,6.2793,6.2793,6.2793,6.2793,6.2793,6.2793,6.3086,6.3906,6.4066,6.4383,6.5141,6.5925,6.6439,6.6476,6.7187,6.7627,6.77,6.7627,6.7627,6.77,6.77,6.77,6.77,6.6794,6.6344,6.6404,6.453,6.3628,6.3683,6.2798,6.24,6.24,6.24,6.24,6.24,6.24,6.24,6.24,6.24,6.24,6.24,6.24,6.24,6.24,6.24,6.24,6.24,6.24,6.24,6.24,6.24,6.24,6.24,6.24,6.24,6.213,6.0933,5.9719,5.8519,5.7292,5.6085,5.5179,5.5179,5.5179,5.5179,5.5179,5.5179,5.5179,5.5179,5.5179,5.4521,5.2516,5.2187,5.2187,5.2127,5.2127,5.2875,5.488,5.5119,5.5149,5.5179,5.5179,5.5179,5.5179,5.5179,5.5179,5.5179,5.5179,5.5179,5.5179,5.5179,5.5179,5.5179,5.5179,5.5179,5.5179,5.5179,5.5179,5.5179,5.5179,5.5179,5.5179,5.5179,5.5128,5.5053,5.5053,5.4175,5.283,5.2724,5.0961,4.8474,4.8358,4.7781,4.7048,6.2793,6.2793,6.2793,6.2793,6.2793,6.2976,6.3503,6.3613,6.3906,6.4751,6.5264,6.5705,6.5999,6.6769,6.726,6.726,6.7517,6.77,6.77,6.77,6.77,6.77,6.77,6.77,6.77,6.6852,6.6656,6.7202,6.4835,6.3971,6.4495,6.3068,6.24,6.24,6.24,6.24,6.24,6.24,6.24,6.24,6.24,6.24,6.24,6.24,6.24,6.24,6.24,6.24,6.24,6.24,6.24,6.24,6.24,6.24,6.24,6.24,6.24,6.213,6.0933,5.9719,5.8519,5.7292,5.6085,5.5179,5.5179,5.5179,5.5179,5.5179,5.5179,5.5179,5.5179,5.5179,5.4521,5.2516,5.3234,5.3623,5.2366,5.3264,5.4341,5.5089,5.5179,5.5179,5.5179,5.5179,5.5179,5.5179,5.5179,5.5179,5.5179,5.5179,5.5179,5.5179,5.5179,5.5179,5.5179,5.5179,5.5179,5.5179,5.5179,5.5179,5.5179,5.5179,5.5179,5.5179,5.5179,5.5179,5.5179,5.5179,5.487,5.423,5.2721,5.1405,5.0243,4.8711,4.7897,4.7575,6.2793,6.3013,6.3196,6.3196,6.3417,6.3783,6.4383,6.4494,6.4751,6.5558,6.6145,6.6586,6.6843,6.737,6.77,6.77,6.77,6.77,6.77,6.77,6.77,6.77,6.77,6.77,6.77,6.7117,6.7117,6.77,6.5297,6.4427,6.4966,6.3221,6.24,6.24,6.24,6.24,6.24,6.24,6.24,6.24,6.24,6.24,6.24,6.24,6.24,6.24,6.24,6.24,6.24,6.24,6.24,6.24,6.24,6.24,6.24,6.24,6.24,6.2243,6.1378,6.0032,5.8519,5.7292,5.6085,5.5179,5.5179,5.5179,5.5179,5.5179,5.5179,5.5179,5.5179,5.5179,5.473,5.3354,5.4281,5.47,5.3324,5.4311,5.5179,5.5179,5.5179,5.5179,5.5179,5.5179,5.5179,5.5179,5.5179,5.5179,5.5179,5.5179,5.5179,5.5179,5.5179,5.5179,5.5179,5.5179,5.5179,5.5179,5.5179,5.5179,5.5179,5.5179,5.5179,5.5179,5.5179,5.5179,5.5154,5.4692,5.4602,5.455,5.2404,5.1422,5.0953,4.9244,4.8444,4.8184,6.2829,6.3503,6.4103,6.4103,6.4787,6.5288,6.5288,6.5288,6.5582,6.6402,6.6512,6.6806,6.7627,6.77,6.77,6.77,6.77,6.77,6.77,6.77,6.77,6.77,6.77,6.77,6.77,6.77,6.77,6.77,6.5899,6.5016,6.4966,6.3221,6.24,6.24,6.24,6.24,6.24,6.24,6.24,6.24,6.24,6.24,6.24,6.24,6.24,6.24,6.24,6.24,6.24,6.24,6.24,6.24,6.24,6.24,6.24,6.24,6.24,6.24,6.24,6.0661,5.8519,5.7292,5.6085,5.5179,5.5179,5.5179,5.5179,5.5179,5.5179,5.5179,5.5179,5.5179,5.5179,5.5179,5.5179,5.5179,5.5179,5.5179,5.5179,5.5179,5.5179,5.5179,5.5179,5.5179,5.5179,5.5179,5.5179,5.5179,5.5179,5.5179,5.5179,5.5179,5.5179,5.5179,5.5179,5.5179,5.5179,5.5179,5.5179,5.5179,5.5179,5.5179,5.5179,5.5179,5.5179,5.5179,5.5078,5.3597,5.3311,5.3641,5.2156,5.1036,5.0213,5.0213,4.963,4.8818,6.4554,6.4774,6.4934,6.4934,6.5141,6.5472,6.6072,6.6145,6.6439,6.726,6.7333,6.7444,6.7664,6.77,6.77,6.77,6.77,6.77,6.77,6.77,6.77,6.77,6.77,6.77,6.77,6.77,6.77,6.77,6.6568,6.5633,6.4983,6.3829,6.3007,6.24,6.24,6.24,6.24,6.24,6.24,6.24,6.24,6.24,6.24,6.24,6.24,6.24,6.24,6.24,6.24,6.24,6.24,6.24,6.24,6.24,6.24,6.24,6.24,6.24,6.24,6.0661,5.8722,5.836,5.6735,5.5179,5.5179,5.5179,5.5179,5.5179,5.5179,5.5179,5.5179,5.5179,5.5179,5.5179,5.5179,5.5179,5.5179,5.5179,5.5179,5.5179,5.5179,5.5179,5.5179,5.5179,5.5179,5.5179,5.5179,5.5179,5.5179,5.5179,5.5179,5.5179,5.5179,5.5179,5.5179,5.5179,5.5179,5.5179,5.5179,5.5179,5.5179,5.5179,5.5179,5.5179,5.5179,5.4615,5.3623,5.3174,5.2719,5.2156,5.103,5.0655,5.0664,5.0021,4.9603,4.9339,6.5288,6.5545,6.5765,6.5765,6.6035,6.6402,6.688,6.6953,6.7136,6.7627,6.77,6.77,6.77,6.77,6.77,6.77,6.77,6.77,6.77,6.77,6.77,6.77,6.77,6.77,6.77,6.77,6.77,6.77,6.6838,6.592,6.4983,6.4131,6.3221,6.24,6.24,6.24,6.24,6.24,6.24,6.24,6.24,6.24,6.24,6.24,6.24,6.24,6.24,6.24,6.24,6.24,6.24,6.24,6.24,6.24,6.24,6.24,6.24,6.24,6.24,6.0995,5.939,5.8925,5.6998,5.5179,5.5179,5.5179,5.5179,5.5179,5.5179,5.5179,5.5179,5.5179,5.5179,5.5179,5.5179,5.5179,5.5179,5.5179,5.5179,5.5179,5.5179,5.5179,5.5179,5.5179,5.5179,5.5179,5.5179,5.5179,5.5179,5.5179,5.5179,5.5179,5.5179,5.5179,5.5179,5.5179,5.5179,5.5179,5.5179,5.5179,5.5179,5.5179,5.5179,5.5179,5.5179,5.4692,5.3782,5.2848,5.2238,5.1753,5.0229,4.9945,5.0389,4.9792,4.959,4.959,6.5508,6.6109,6.6623,6.6623,6.7223,6.77,6.77,6.77,6.77,6.77,6.77,6.77,6.77,6.77,6.77,6.77,6.77,6.77,6.77,6.77,6.77,6.77,6.77,6.77,6.77,6.77,6.77,6.77,6.691,6.5997,6.4983,6.4183,6.3295,6.24,6.24,6.24,6.24,6.24,6.24,6.24,6.24,6.24,6.24,6.24,6.24,6.24,6.24,6.24,6.24,6.24,6.24,6.24,6.24,6.24,6.24,6.24,6.24,6.24,6.24,6.1439,6.0182,5.9081,5.6998,5.5179,5.5179,5.5179,5.5179,5.5179,5.5179,5.5179,5.5179,5.5179,5.5179,5.5179,5.5179,5.5179,5.5179,5.5179,5.5179,5.5179,5.5179,5.5179,5.5179,5.5179,5.5179,5.5179,5.5179,5.5179,5.5179,5.5179,5.5179,5.5179,5.5179,5.5179,5.5179,5.5179,5.5179,5.5179,5.5179,5.5179,5.5179,5.5179,5.5179,5.5179,5.5179,5.5128,5.4828,5.2483,5.1785,5.1983,4.9626,4.9063,4.959,4.959,4.959,4.959,6.7187,6.7333,6.7444,6.7444,6.759,6.77,6.77,6.77,6.77,6.77,6.77,6.77,6.77,6.77,6.77,6.77,6.77,6.77,6.77,6.77,6.77,6.77,6.77,6.77,6.77,6.77,6.77,6.77,6.7501,6.6576,6.4999,6.4799,6.39,6.24,6.24,6.24,6.24,6.24,6.24,6.24,6.24,6.24,6.24,6.24,6.24,6.24,6.24,6.24,6.24,6.24,6.24,6.24,6.24,6.24,6.24,6.24,6.24,6.24,6.24,6.0828,5.9125,5.8857,5.6998,5.5179,5.5179,5.5179,5.5179,5.5179,5.5179,5.5179,5.5179,5.5179,5.5179,5.5179,5.5179,5.5179,5.5179,5.5179,5.5179,5.5179,5.5179,5.5179,5.5179,5.5179,5.5179,5.5179,5.5179,5.5179,5.5179,5.5179,5.5179,5.5179,5.5179,5.5179,5.5179,5.5179,5.5179,5.5179,5.5179,5.5179,5.5179,5.5179,5.5179,5.5179,5.5179,5.4535,5.3335,5.1622,5.0833,5.0486,4.8784,4.8711,4.959,4.959,4.959,4.959,6.77,6.77,6.77,6.77,6.77,6.77,6.77,6.77,6.77,6.77,6.77,6.77,6.77,6.77,6.77,6.77,6.77,6.77,6.77,6.77,6.77,6.77,6.77,6.77,6.77,6.8091,6.8091,6.77,6.77,6.6954,6.5532,6.5532,6.4792,6.3429,6.3429,6.3429,6.3429,6.3429,6.3429,6.3429,6.3429,6.3429,6.3396,6.3057,6.2922,6.2888,6.2516,6.24,6.24,6.24,6.24,6.24,6.24,6.24,6.24,6.24,6.24,6.24,6.24,6.1057,5.9522,5.8947,5.7418,5.5918,5.533,5.5179,5.5179,5.5179,5.5179,5.5179,5.5179,5.5179,5.5179,5.5179,5.5179,5.5179,5.5179,5.5179,5.5179,5.5179,5.5179,5.5179,5.5179,5.5179,5.5179,5.5179,5.5179,5.5179,5.5179,5.5179,5.5179,5.5179,5.5179,5.5179,5.5179,5.5179,5.5179,5.5179,5.5179,5.5179,5.5179,5.5179,5.5179,5.5179,5.5179,5.4769,5.3916,5.1927,5.1033,5.0676,4.8682,4.8435,4.9245,4.9245,4.9364,4.959,6.77,6.77,6.77,6.77,6.77,6.77,6.77,6.77,6.77,6.77,6.77,6.77,6.77,6.77,6.77,6.77,6.77,6.77,6.77,6.77,6.77,6.77,6.7847,6.7921,6.7921,6.8678,6.8715,6.7921,6.8031,6.7484,6.6329,6.6329,6.5715,6.4613,6.4613,6.4613,6.4613,6.4613,6.4613,6.4613,6.4613,6.4613,6.4546,6.3917,6.368,6.3612,6.299,6.2685,6.255,6.2415,6.24,6.24,6.24,6.24,6.24,6.24,6.24,6.24,6.24,6.1378,6.0043,5.9058,5.7738,5.642,5.5456,5.5179,5.5179,5.5179,5.5179,5.5179,5.5179,5.5179,5.5179,5.5179,5.5179,5.5179,5.5179,5.5179,5.5179,5.5179,5.5179,5.5179,5.5179,5.5179,5.5179,5.5179,5.5179,5.5179,5.5179,5.5179,5.5179,5.5179,5.5179,5.5179,5.5179,5.5179,5.5179,5.5179,5.5179,5.5179,5.5179,5.5179,5.5179,5.5179,5.5179,5.5179,5.5006,5.2481,5.1485,5.1339,4.8786,4.8134,4.8667,4.8768,4.9095,4.9464,6.77,6.77,6.77,6.77,6.77,6.77,6.77,6.77,6.77,6.77,6.77,6.77,6.77,6.77,6.77,6.77,6.77,6.77,6.77,6.77,6.77,6.77,6.8385,6.8752,6.8752,6.9522,6.9522,6.8752,6.9412,6.8877,6.7142,6.7142,6.6239,6.4613,6.4613,6.4613,6.4613,6.4613,6.4613,6.4613,6.4613,6.4613,6.458,6.4478,6.4444,6.4444,6.4343,6.3903,6.326,6.2618,6.24,6.24,6.24,6.24,6.24,6.24,6.24,6.24,6.24,6.0766,5.9014,5.8835,5.711,5.5406,5.5229,5.5179,5.5179,5.5179,5.5179,5.5179,5.5179,5.5179,5.5179,5.5179,5.5179,5.5179,5.5179,5.5179,5.5179,5.5179,5.5179,5.5179,5.5179,5.5179,5.5179,5.5179,5.5179,5.5179,5.5179,5.5179,5.5179,5.5179,5.5179,5.5179,5.5179,5.5179,5.5179,5.5179,5.5179,5.5179,5.5179,5.5179,5.5179,5.5179,5.5179,5.5179,5.4976,5.2028,5.1127,5.1313,4.8373,4.7525,4.8083,4.8617,4.8843,4.8994,6.77,6.77,6.77,6.77,6.77,6.77,6.77,6.77,6.77,6.77,6.77,6.77,6.77,6.77,6.77,6.77,6.77,6.77,6.77,6.8128,6.8385,6.8385,6.9155,6.9559,6.9559,7.0367,7.061,7.0243,7.0146,6.9646,6.875,6.8231,6.7474,6.6587,6.6065,6.5831,6.5831,6.5831,6.5831,6.5831,6.5831,6.5831,6.5797,6.5358,6.5222,6.5155,6.4749,6.441,6.4072,6.3734,6.3632,6.3565,6.3159,6.3024,6.2922,6.2516,6.24,6.24,6.24,6.0661,5.879,5.879,5.6998,5.5179,5.5179,5.5179,5.5179,5.5179,5.5179,5.5179,5.5179,5.5179,5.5179,5.5179,5.5179,5.5179,5.5179,5.5179,5.5179,5.5179,5.5179,5.5179,5.5179,5.5179,5.5179,5.5179,5.5179,5.5179,5.5179,5.5179,5.5179,5.5179,5.5179,5.5179,5.5179,5.5179,5.5179,5.5179,5.5179,5.5179,5.5179,5.5179,5.5179,5.5179,5.5179,5.4718,5.3779,5.159,5.0376,4.9626,4.75,4.6973,4.75,4.8083,4.8284,4.836]}]]